GFSGL_prec_cloud_003.txt.gz
Cloud_Cover
5 66 95 63 9 95 86 79 92 100 88 91 81 54 79 100 100 100 100 100 100 100 100 100 100 100 100 100 100 100 100 100 100 100 100 100 100 100 100 100 100 100 100
3 35 100 100 100 70 13 98 42 70 100 100 100 96 100 100 100 100 100 100 100 100 100 100 100 100 100 100 100 100 100 100 100 100 100 100 100 100 100 100 100 100 100
0 5 76 100 100 9 20 35 69 57 77 100 100 100 100 100 100 100 100 100 100 100 100 100 100 100 100 100 100 100 100 100 100 100 100 100 100 100 100 100 100 100 100
2 1 100 100 100 100 100 100 100 100 100 71 91 99 100 100 100 100 100 100 100 100 100 100 100 100 100 100 100 100 100 100 100 100 100 100 100 100 100 100 100 100 100
5 42 100 100 100 100 100 100 100 100 100 100 100 99 100 100 100 100 100 100 100 100 100 100 100 100 100 100 100 100 100 100 100 100 100 100 100 100 97 82 100 97 100
100 53 97 100 100 100 100 100 100 100 100 100 100 100 100 100 98 100 100 100 100 100 100 100 100 100 100 100 100 100 100 100 100 100 100 100 100 100 100 100 100 100 100
98 96 100 100 100 100 100 100 67 68 100 100 100 100 100 100 100 100 100 100 100 100 100 100 100 100 100 100 100 100 100 100 100 100 100 100 100 100 100 100 100 100 100
18 95 39 99 100 100 100 100 100 83 83 99 100 100 100 100 100 100 100 100 100 100 100 100 100 100 100 100 100 100 100 100 100 100 100 100 100 100 100 100 100 100 100
48 100 100 100 100 100 100 100 100 100 100 96 44 100 100 100 100 100 100 100 100 100 100 100 100 100 100 100 100 100 100 100 100 100 100 100 100 100 100 100 100 100 100
100 100 100 100 100 100 97 34 50 72 33 100 96 89 100 100 100 100 98 100 100 100 100 100 100 100 100 100 100 100 100 100 100 100 100 100 100 100 100 100 100 100 100
100 100 100 100 100 92 77 100 24 74 61 54 85 100 100 100 99 95 100 100 91 60 100 88 85 80 96 100 100 100 100 100 96 97 96 95 100 100 100 100 100 100 100
100 100 100 100 92 100 90 100 100 100 100 100 100 100 100 100 100 100 100 97 100 100 100 100 100 92 98 100 100 100 100 100 100 100 100 100 100 100 100 100 100 100 100
100 100 100 100 100 100 100 100 100 100 100 100 100 100 100 100 100 99 100 100 99 99 100 100 100 100 100 100 100 100 100 100 100 100 100 100 100 100 100 100 100 100 100
100 100 100 100 100 100 100 79 93 100 83 100 100 99 100 100 100 88 100 100 100 100 100 100 100 87 89 89 98 100 90 99 80 100 100 100 100 100 100 100 100 100 97
100 100 99 100 97 73 48 69 89 59 71 67 98 63 99 100 100 100 100 96 58 0 0 0 0 0 1 5 3 3 2 1 22 65 100 96 100 100 100 100 100 100 100
6 15 27 75 95 74 36 52 42 14 6 5 5 49 32 3 2 0 0 0 0 0 2 1 1 0 0 4 5 5 5 0 0 3 3 4 25 67 89 100 100 100 100
5 5 5 11 11 5 5 12 32 6 1 0 0 0 0 0 0 0 0 0 0 1 5 0 0 0 0 0 0 0 0 0 5 5 5 5 4 0 0 0 0 0 2
100 96 35 66 37 29 54 81 70 6 3 0 0 1 2 5 5 5 5 5 4 2 5 5 4 0 0 5 5 4 0 0 1 3 5 5 5 0 0 0 0 0 0
5 27 38 6 5 5 5 5 5 14 17 4 5 5 4 5 5 5 5 5 5 5 5 1 0 0 0 0 0 2 2 0 1 0 2 0 0 0 0 0 0 2 5
5 0 0 5 5 50 54 39 48 56 14 5 5 5 38 16 5 5 5 5 5 5 5 5 13 5 5 5 5 1 0 5 5 5 0 0 0 0 0 0 0 5 75
5 26 6 77 73 100 56 68 5 70 100 100 100 94 89 41 51 59 97 88 62 10 5 5 6 5 3 2 0 0 3 5 5 5 5 0 0 0 0 5 33 96 100
88 93 75 91 100 100 77 5 7 32 78 76 90 98 96 90 69 14 12 5 8 40 12 5 2 0 0 0 0 2 1 5 5 4 0 0 0 2 5 76 94 100 100
100 100 100 100 100 85 48 56 99 100 100 88 35 5 5 5 7 7 67 80 6 5 3 0 0 0 0 0 0 3 5 5 5 5 5 1 5 5 53 78 100 100 100
99 100 100 100 99 32 53 59 99 100 100 71 69 70 85 95 100 75 8 5 4 0 0 0 0 0 0 0 0 0 0 2 3 1 0 5 19 100 100 100 92 100 100
100 100 100 100 100 94 99 100 100 50 66 96 100 99 82 25 5 5 0 0 0 0 5 0 0 0 0 0 0 0 0 0 0 2 0 5 25 89 90 88 94 100 100
100 100 100 100 100 100 100 100 100 100 100 100 34 38 93 15 2 0 0 0 0 0 0 0 4 5 0 0 2 0 0 0 0 2 3 4 5 71 100 100 100 100 100

GFSGL_prec_cloud_006.txt.gz
Cloud_Cover
0 0 0 4 28 18 5 31 5 32 67 33 60 8 6 5 37 100 70 53 100 100 100 100 100 100 100 100 100 100 100 100 100 100 100 100 100 100 100 100 100 100 100
0 0 0 3 5 27 8 5 100 34 53 93 100 96 100 99 75 98 100 100 100 100 100 100 100 100 100 100 100 100 100 100 100 100 100 100 100 100 100 100 100 100 100
0 0 0 0 34 90 96 88 91 98 100 100 89 94 94 50 75 98 100 100 100 100 100 100 100 100 100 100 100 100 100 100 100 100 100 100 100 100 100 100 100 100 100
5 0 1 2 100 100 100 100 78 100 100 100 100 100 82 89 87 100 100 100 100 100 100 100 100 100 100 100 100 100 100 100 100 100 100 100 100 100 100 100 100 100 100
5 3 5 5 100 100 100 100 100 100 100 100 100 100 100 100 100 97 100 100 100 100 100 100 100 100 100 100 100 100 100 100 100 100 100 100 100 100 100 100 100 100 100
100 100 100 100 100 100 100 100 100 100 100 100 100 100 94 73 70 98 100 100 100 100 100 100 100 100 100 100 100 100 100 100 100 100 100 100 100 100 100 100 100 100 100
24 97 60 51 57 100 100 100 100 100 100 100 100 100 100 100 92 72 93 71 100 100 100 100 100 100 100 100 100 100 100 100 100 100 100 100 100 100 100 100 100 100 100
46 17 94 26 45 96 96 100 100 100 100 100 99 91 100 100 100 85 70 84 100 100 100 100 100 100 100 100 100 100 100 100 100 100 100 100 100 100 100 100 100 100 100
79 70 63 97 100 100 100 98 100 100 75 98 100 98 66 100 100 100 98 64 94 99 96 100 100 100 100 100 100 100 100 100 100 100 100 100 100 100 100 100 100 100 100
100 100 100 100 100 87 100 100 100 90 50 20 43 100 100 100 100 100 100 94 96 72 51 24 80 100 100 97 100 100 100 100 100 100 100 100 100 100 100 100 100 100 100
100 100 100 100 100 98 35 95 78 42 44 36 51 75 100 100 100 100 98 80 100 75 96 24 79 72 86 98 100 98 100 100 98 100 100 100 100 100 100 100 100 100 100
100 100 100 100 100 100 81 99 100 100 100 100 100 100 100 100 100 100 100 100 100 100 100 100 100 100 100 100 98 100 99 100 100 100 100 98 100 100 100 100 100 100 100
100 100 100 100 100 100 100 100 100 100 100 100 100 100 100 100 100 100 100 100 100 100 100 100 100 100 100 100 100 68 96 97 100 100 100 100 100 93 36 99 100 100 100
100 100 100 100 100 100 100 100 100 100 100 78 93 100 91 100 100 100 99 100 82 90 94 99 88 53 69 73 15 0 0 0 0 0 0 0 0 0 0 1 1 1 0
100 100 100 100 100 100 100 100 94 28 59 100 85 100 100 96 94 95 94 98 91 45 1 0 0 0 0 0 0 0 0 0 0 0 1 1 0 0 2 3 4 2 0
100 100 100 100 100 90 75 75 33 51 25 13 6 11 18 12 3 0 0 0 0 0 0 0 0 0 0 0 5 4 0 0 3 1 2 4 0 0 0 0 0 0 0
5 9 90 99 96 83 98 100 100 92 52 5 5 5 0 0 0 0 0 0 0 0 0 0 3 0 0 0 5 1 2 0 0 5 5 1 0 0 0 0 0 0 0
5 5 13 9 75 19 5 32 85 87 51 5 5 2 2 5 5 5 5 5 5 5 5 5 5 5 2 0 0 0 0 0 0 0 0 1 0 0 0 0 0 0 0
11 58 25 34 9 5 9 6 5 5 5 7 31 5 10 58 12 5 19 5 5 5 5 5 5 5 4 2 0 2 0 0 0 0 0 0 0 0 0 0 0 0 5
30 12 49 70 93 38 84 52 96 82 82 100 99 100 100 96 74 50 12 36 14 5 10 40 5 6 5 1 0 0 0 0 0 0 0 0 0 0 0 0 0 0 2
100 100 100 100 74 91 98 100 61 71 55 21 93 100 61 38 49 27 71 26 5 5 5 5 5 5 0 0 0 0 0 0 0 0 0 0 0 0 0 0 0 2 1
13 95 100 100 100 100 100 100 100 100 100 100 95 100 100 100 100 100 97 80 21 5 5 1 0 0 0 0 0 0 0 0 0 5 5 5 0 0 0 2 5 5 5
98 94 98 94 99 100 100 100 100 100 100 100 100 100 100 100 98 94 77 100 43 4 2 0 0 0 0 0 0 0 0 0 1 4 0 0 0 2 5 5 5 5 5
98 99 96 100 100 100 100 100 100 95 100 100 100 93 85 65 47 87 30 5 5 5 5 1 0 0 0 0 0 0 0 0 0 0 0 0 0 0 1 5 5 5 5
100 100 100 87 100 100 100 100 100 100 100 100 100 100 62 78 80 64 49 5 5 2 0 0 0 0 0 0 0 0 0 0 0 0 0 0 0 0 2 5 6 34 90
96 100 100 100 100 100 100 100 100 100 91 100 100 100 100 100 99 22 5 5 1 0 0 0 0 0 0 0 0 4 0 0 0 0 0 0 0 0 0 4 75 77 54

GFSGL_prec_cloud_012.txt.gz
Cloud_Cover
80 100 87 0 0 0 0 5 17 30 92 100 100 81 46 65 48 81 100 100 100 100 100 100 100 100 100 100 100 100 100 100 100 100 100 100 100 100 100 100 100 100 100
100 100 100 1 0 0 0 5 21 47 30 79 80 100 100 99 61 93 93 100 100 100 100 100 100 100 100 100 100 100 100 100 100 100 100 100 100 100 100 100 100 100 100
4 5 5 0 0 0 0 28 27 29 52 45 58 73 89 100 100 100 100 100 100 100 100 100 100 100 100 100 100 100 100 100 100 100 100 100 100 100 100 100 100 100 100
82 5 4 0 0 4 20 53 39 34 82 100 74 56 70 94 67 96 84 100 100 100 100 100 100 100 100 100 100 100 100 100 100 100 100 100 100 100 100 100 100 100 100
17 0 5 5 1 17 56 93 35 37 38 99 100 100 100 100 93 100 100 100 100 100 100 100 100 100 100 100 100 100 100 100 100 100 100 100 100 100 100 100 100 100 100
68 4 5 3 38 35 99 94 25 31 99 100 100 100 100 95 100 100 100 95 100 100 100 100 100 100 100 100 100 100 100 100 100 100 100 100 100 100 100 100 100 100 100
3 1 48 29 50 68 97 37 15 18 85 100 100 100 100 98 34 91 100 100 100 98 100 100 100 100 100 100 100 100 100 100 100 100 100 100 100 100 100 100 100 100 100
100 28 22 62 100 100 52 22 5 5 6 53 100 100 100 91 49 5 12 42 65 92 100 100 100 100 100 100 100 100 100 100 100 100 100 100 100 100 100 100 100 100 100
100 100 59 99 100 97 58 15 1 4 5 16 99 100 100 98 100 67 4 4 5 5 11 68 87 100 100 100 100 100 100 100 100 100 100 100 100 100 100 100 100 100 100
100 100 100 100 100 100 45 17 5 34 25 60 59 100 100 100 100 100 77 8 9 6 6 6 5 6 38 87 64 42 22 22 35 43 49 57 73 69 100 100 100 89 86
100 100 100 100 100 96 64 94 42 90 100 71 25 95 100 100 100 100 100 74 100 100 85 46 79 100 83 54 100 98 43 65 10 16 42 20 62 100 100 81 100 100 99
100 100 100 100 100 100 99 100 100 78 97 100 90 100 100 90 100 100 100 100 97 100 78 97 100 52 96 94 100 87 20 38 41 42 39 42 35 33 75 40 5 30 4
100 100 100 100 100 100 100 100 100 100 100 100 100 100 100 100 100 100 100 100 89 100 100 100 100 100 100 100 47 47 9 2 0 0 0 0 0 0 0 0 0 0 0
100 100 100 100 100 100 100 100 100 100 100 100 100 100 100 100 100 100 100 99 76 82 52 85 87 30 5 4 0 0 0 0 0 0 0 0 0 0 0 0 1 1 0
96 80 80 90 92 100 100 100 100 100 100 100 97 100 100 100 100 100 100 100 84 50 46 41 6 6 5 5 2 1 0 0 0 2 0 0 0 2 2 0 0 0 0
40 33 63 94 100 100 100 100 100 100 100 92 61 70 98 93 100 100 100 100 100 100 97 96 93 69 37 7 5 5 5 3 4 4 0 0 2 2 2 2 0 0 0
0 0 63 61 100 100 100 96 93 46 32 7 17 8 13 41 87 96 31 69 97 100 100 100 100 92 65 72 8 5 5 5 5 5 5 5 5 5 5 0 0 0 0
5 5 2 0 3 5 5 11 70 98 8 88 100 93 92 100 69 26 76 100 100 100 100 100 100 100 100 56 23 12 5 5 5 5 4 4 4 0 0 0 0 0 0
5 5 5 5 5 40 100 98 76 14 99 40 65 74 68 16 61 82 100 100 100 100 100 100 97 93 100 100 58 5 5 5 5 5 4 0 0 0 0 0 0 0 0
5 5 5 5 5 5 5 19 96 100 41 91 100 65 5 58 44 90 100 100 100 100 100 100 100 100 100 32 5 5 5 5 5 0 0 0 0 0 0 0 0 0 0
5 7 40 71 6 6 14 100 100 99 100 100 86 98 60 100 100 97 100 100 83 100 100 100 58 20 5 16 5 5 5 3 0 0 0 0 0 0 0 0 0 0 0
70 63 84 87 63 100 100 100 100 95 100 14 49 89 100 100 100 98 100 99 98 100 100 62 78 21 5 5 5 5 5 0 0 0 0 0 0 0 0 0 0 0 0
64 44 81 100 100 100 100 71 100 96 54 48 35 90 100 100 100 100 100 100 98 94 100 100 98 28 24 64 55 5 0 0 0 0 0 0 0 0 0 0 0 0 0
99 95 100 100 100 100 100 100 100 100 100 62 42 100 99 100 100 100 100 89 98 100 100 100 100 100 100 32 4 0 0 0 0 0 0 0 0 0 0 0 0 0 0
98 72 94 98 100 100 100 100 100 100 100 100 100 100 100 100 100 100 100 100 100 100 100 100 100 96 10 1 0 0 0 0 0 0 0 0 0 0 0 0 0 0 0
100 89 82 69 100 100 100 100 100 100 96 100 100 100 100 100 100 100 100 100 100 100 100 71 5 3 0 0 0 0 0 0 0 0 0 0 0 0 0 0 0 0 0

GFSGL_prec_cloud_018.txt.gz
Cloud_Cover
6 3 84 9 7 33 45 42 100 100 100 100 96 86 100 86 74 82 73 55 95 99 100 100 99 90 15 30 97 100 100 100 100 100 100 100 100 100 100 100 100 100 100
31 4 1 54 14 81 51 33 100 100 100 100 91 100 89 99 77 92 96 88 100 100 100 100 100 100 100 100 100 100 100 100 100 100 100 100 100 100 100 100 100 100 100
7 18 52 16 52 99 79 56 66 100 100 100 100 100 100 100 91 82 94 96 100 100 100 98 99 100 100 100 100 100 100 100 100 100 100 100 100 100 100 100 100 100 100
45 54 24 11 37 71 90 82 64 98 100 100 94 95 100 98 100 100 88 85 88 100 100 100 100 100 100 100 100 100 100 100 100 100 100 100 100 100 100 100 100 100 100
20 4 29 29 32 71 63 84 73 100 97 100 100 100 73 42 74 100 100 95 81 83 98 100 100 99 100 100 100 100 100 100 100 100 100 100 100 100 100 100 100 100 100
5 5 22 98 81 100 43 98 66 100 96 100 100 99 68 14 16 13 51 71 100 100 90 84 73 99 100 100 100 100 100 100 100 100 100 100 100 100 100 100 100 100 100
16 6 60 100 92 100 56 84 100 100 100 100 100 100 69 10 0 0 33 94 82 96 96 91 94 36 60 69 93 100 100 100 100 100 100 100 100 100 100 100 100 100 100
49 45 100 100 87 100 69 100 100 99 93 100 94 100 39 1 2 0 3 12 32 34 52 49 18 13 18 15 19 78 100 100 100 100 100 100 100 100 100 100 100 100 100
99 100 88 70 100 100 90 95 100 100 99 79 84 97 59 5 5 5 1 5 5 5 7 5 5 5 5 5 5 10 33 30 44 98 100 100 100 100 100 100 100 100 100
36 69 70 66 100 100 100 78 89 99 100 96 73 70 5 5 15 5 13 14 5 5 4 5 5 5 5 6 50 30 5 5 6 14 6 59 63 78 96 98 99 100 99
98 88 100 100 100 100 100 100 68 91 97 86 28 72 100 97 98 7 18 60 59 27 6 54 56 80 56 68 40 5 53 100 55 5 0 1 3 4 4 1 4 4 4
86 88 100 100 100 100 100 100 100 73 100 100 82 88 85 100 85 100 73 78 99 93 81 95 54 55 87 92 22 24 100 84 31 5 5 5 5 0 3 5 5 5 5
99 100 100 100 100 100 100 100 92 100 100 100 100 100 100 100 100 100 100 100 95 98 81 62 14 7 50 98 100 100 67 98 72 62 42 4 0 5 5 8 5 6 5
100 100 100 100 100 100 100 100 100 100 100 100 100 96 100 100 100 100 100 100 100 100 100 100 88 3 3 4 5 26 46 22 56 47 99 65 61 99 100 100 100 100 100
100 100 100 100 100 100 100 100 100 100 100 100 100 100 100 100 100 100 100 96 88 100 100 92 7 84 3 2 3 4 11 12 54 95 100 79 98 98 100 96 13 47 28
100 100 100 100 100 100 100 100 100 100 100 100 100 100 100 100 100 100 98 100 96 96 26 30 55 100 100 6 81 100 97 100 97 100 100 100 100 100 100 80 23 17 5
99 100 100 100 61 65 98 100 100 100 100 100 100 100 100 100 100 100 100 96 19 0 54 77 96 100 62 12 66 75 100 100 100 100 100 100 100 100 100 100 79 5 5
66 48 51 34 50 77 59 16 5 5 5 5 5 18 37 21 0 0 2 14 17 27 89 100 100 100 100 100 99 100 100 100 100 100 100 100 100 98 42 52 5 5 4
5 10 59 67 20 2 0 0 0 0 3 2 0 2 2 5 5 5 30 41 81 97 100 100 100 98 100 100 100 100 100 100 100 100 100 99 49 81 6 5 5 4 0
2 1 1 1 0 0 1 4 5 5 5 6 5 5 5 5 5 10 62 68 96 100 100 100 100 100 100 100 99 100 100 100 100 100 72 60 15 5 5 5 3 0 0
0 0 0 4 5 5 5 5 5 5 5 24 51 10 61 100 100 100 100 100 100 100 100 100 100 100 100 100 100 100 100 100 95 74 55 5 5 5 5 2 0 0 0
3 5 5 5 5 5 5 5 5 5 10 19 96 100 100 100 100 100 100 100 100 100 100 99 97 100 100 100 100 100 100 100 90 68 55 5 5 5 4 0 0 0 0
5 5 5 5 5 5 5 5 5 44 31 23 100 97 100 100 100 100 100 100 100 100 100 100 100 100 100 100 100 100 100 100 100 79 51 13 5 4 0 0 0 0 0
12 19 48 42 36 8 5 12 11 5 6 12 5 60 34 21 99 100 100 100 100 100 100 100 100 100 100 100 100 100 100 100 100 100 94 38 5 5 0 0 0 0 0
14 16 66 100 100 82 49 83 34 5 62 58 79 40 74 98 99 100 100 100 100 100 100 100 100 100 100 100 100 100 100 100 100 100 34 5 5 4 4 1 0 0 0
100 74 99 74 70 86 58 78 97 68 20 32 76 100 100 100 100 100 100 100 100 100 100 100 100 100 100 100 100 100 100 100 79 36 5 5 4 3 0 0 0 0 0

GFSGL_prec_cloud_021.txt.gz
Cloud_Cover
100 89 48 18 18 100 94 85 100 99 94 100 100 94 79 41 34 40 69 99 72 100 100 100 87 47 78 100 100 100 98 100 100 100 100 100 100 100 100 100 100 100 100
92 74 24 6 100 99 92 88 74 100 80 99 100 100 100 100 100 56 92 100 100 100 100 100 100 100 71 22 74 62 100 100 100 100 100 100 100 100 100 100 100 100 100
86 100 18 38 72 81 100 61 50 100 100 100 100 100 91 100 100 100 100 93 98 100 100 96 96 90 100 99 93 97 100 100 100 100 100 100 100 100 100 100 100 100 100
100 88 22 43 73 30 24 14 91 100 57 21 100 100 100 100 100 100 100 99 93 97 100 99 100 100 100 100 100 100 100 100 100 100 100 100 100 100 100 100 100 100 100
100 94 93 98 100 62 25 9 93 100 93 19 61 100 100 91 74 100 100 100 96 81 75 69 97 65 70 98 100 100 100 100 100 100 100 100 100 100 100 100 100 100 100
100 100 100 98 100 31 47 23 91 98 100 31 38 11 23 2 1 6 100 99 100 100 99 85 58 13 5 67 51 60 100 100 100 100 100 100 100 100 100 100 100 100 100
76 100 100 100 100 87 72 98 31 67 69 73 64 55 49 0 0 20 99 100 100 100 49 31 18 0 41 22 7 38 60 91 98 100 100 100 100 100 100 100 100 100 100
91 87 76 96 97 83 65 100 44 81 100 100 71 98 27 4 2 3 20 87 100 100 100 79 49 11 3 1 3 5 4 3 5 13 52 93 99 100 100 100 100 100 100
100 81 100 86 84 100 100 100 99 95 100 100 100 100 82 0 2 5 28 68 98 88 11 1 4 3 5 5 5 5 5 5 5 5 5 6 8 56 100 100 100 100 100
100 100 97 96 100 100 100 100 100 78 98 98 100 99 14 13 30 39 10 100 72 7 5 5 4 5 5 5 100 100 42 12 5 5 5 5 5 5 5 5 5 87 96
100 100 100 100 100 100 100 100 100 100 100 100 51 61 58 17 96 50 84 87 79 81 8 5 32 71 100 58 21 43 17 19 61 73 2 0 0 1 5 4 3 2 4
100 100 100 100 100 100 100 100 100 100 100 86 84 91 75 67 87 91 100 100 90 90 31 68 82 8 5 6 8 5 0 4 5 38 63 80 24 14 32 56 87 82 68
100 100 100 100 100 100 100 100 100 100 100 98 82 100 100 100 100 100 94 100 100 97 100 100 85 99 74 99 98 100 100 26 1 1 0 2 5 0 8 57 96 38 89
100 100 100 100 100 100 100 100 100 100 100 100 100 100 78 99 100 100 100 94 94 96 100 100 100 91 100 98 86 16 0 2 24 30 2 3 5 5 10 100 100 100 100
100 100 100 100 100 100 100 100 100 100 100 100 100 100 100 78 100 92 99 68 99 80 96 100 100 61 1 0 0 0 6 18 9 24 10 56 46 98 92 94 100 100 100
100 100 100 100 100 100 100 100 100 100 100 100 100 100 100 89 79 88 100 100 99 62 17 26 7 0 0 2 4 5 80 100 100 100 96 78 86 100 100 100 100 100 100
100 100 100 100 100 100 89 89 58 94 100 100 100 100 100 96 94 90 100 100 99 4 0 5 5 5 5 5 5 96 100 100 100 100 97 100 100 100 100 100 100 100 100
25 34 8 5 5 8 7 31 37 43 22 5 5 4 14 19 14 14 1 5 4 4 5 5 5 10 72 52 90 100 100 100 97 100 100 100 100 100 100 100 100 81 61
3 1 0 0 0 0 0 0 0 0 2 1 0 2 5 5 5 5 6 5 5 5 5 42 89 96 100 100 100 100 100 100 100 100 100 100 100 100 98 90 81 25 5
5 1 0 0 0 0 0 0 0 4 4 5 5 5 5 5 5 5 5 5 5 70 100 100 100 100 100 100 100 100 100 100 100 100 100 100 100 100 96 56 51 21 5
5 3 4 5 2 5 2 1 5 5 5 5 5 5 5 5 5 51 95 83 79 100 100 100 100 100 100 100 100 100 100 100 100 100 100 100 100 100 99 52 48 5 5
95 36 5 4 4 5 4 2 5 5 3 1 1 1 0 1 4 5 5 9 36 50 96 92 100 100 100 100 100 100 100 100 100 100 100 100 100 100 100 100 100 33 38
5 1 8 45 17 6 6 57 56 16 18 11 5 4 5 5 5 5 26 51 20 86 96 98 100 100 100 100 100 100 100 100 100 100 100 100 100 100 100 100 100 100 5
69 62 100 93 100 81 74 91 90 48 63 98 99 96 77 80 58 22 43 58 93 100 100 100 100 100 100 100 100 100 100 100 100 100 100 100 100 100 85 66 94 41 26
100 100 100 96 100 76 12 41 41 64 100 92 100 100 90 100 100 100 100 100 99 100 98 100 100 100 100 100 98 100 100 100 100 100 97 76 73 89 98 99 78 22 13
73 98 100 89 68 87 46 45 81 66 100 91 62 98 100 88 52 93 98 100 100 100 100 100 100 100 100 100 100 100 100 100 80 98 99 87 86 61 63 95 88 12 5

GFSGL_prec_cloud_024.txt.gz
Cloud_Cover
86 100 28 24 34 21 70 6 99 97 76 100 100 100 86 88 7 9 43 21 4 63 100 100 100 100 100 100 100 100 100 100 100 100 100 100 100 97 93 100 100 100 100
88 100 7 4 12 56 49 0 55 90 100 100 100 92 11 74 95 4 33 94 34 75 62 100 100 58 88 82 92 23 99 100 100 100 100 100 100 100 100 100 100 100 100
100 81 88 64 10 63 20 6 86 100 59 95 99 34 84 95 100 100 100 100 100 100 100 100 83 59 57 88 78 83 23 71 99 87 100 100 100 100 100 100 100 100 100
100 100 99 69 18 5 32 32 29 100 47 0 98 82 2 2 100 100 100 100 98 93 98 94 82 65 92 94 40 68 95 98 98 100 100 100 100 100 100 100 100 100 100
99 53 88 92 96 56 54 32 23 33 99 18 8 7 4 4 96 100 100 99 64 81 95 2 2 29 32 34 57 55 84 96 100 100 100 100 100 100 100 100 100 100 100
38 53 97 100 99 86 100 42 28 98 56 5 5 0 0 0 2 96 100 100 100 100 100 76 31 0 0 0 0 6 14 34 39 70 100 100 100 100 100 100 100 100 100
42 29 46 100 74 79 100 100 60 81 100 23 20 8 0 0 0 58 100 100 100 90 100 98 66 61 36 1 0 4 5 7 24 89 52 96 97 100 100 98 100 100 100
50 42 8 88 98 88 90 94 76 62 100 100 88 2 2 0 0 0 78 100 81 18 38 43 0 0 0 0 1 5 5 5 5 6 25 37 14 19 41 22 14 11 57
100 81 90 63 25 44 95 100 100 10 100 100 96 86 5 5 4 5 7 5 6 5 3 1 4 2 3 1 5 5 5 5 5 5 5 5 5 5 5 14 35 50 83
100 100 100 86 100 98 100 100 100 76 100 100 100 5 5 31 12 5 10 38 91 92 41 5 5 5 5 18 78 18 5 5 0 4 5 5 5 3 0 3 1 0 18
100 100 100 100 100 100 100 100 100 100 97 100 89 8 14 92 6 5 10 27 24 74 6 5 5 5 5 20 11 51 19 5 1 36 70 6 9 4 20 77 15 2 1
100 100 100 100 100 100 100 100 100 100 96 100 94 100 100 94 100 100 100 100 100 52 39 53 71 81 10 25 83 88 88 48 6 0 0 4 8 2 91 63 18 4 0
100 100 100 100 100 100 100 100 100 100 100 100 100 100 100 100 100 100 100 95 99 100 96 100 94 86 31 8 100 9 0 0 0 0 0 0 0 0 5 5 5 31 5
100 100 100 100 100 100 100 100 100 100 100 100 100 100 100 100 100 100 94 100 99 83 97 97 93 96 100 85 88 0 0 0 0 0 0 1 5 10 55 88 38 69 100
100 100 100 100 92 98 89 100 100 100 100 100 100 100 100 100 100 88 100 98 37 90 100 48 91 77 100 24 0 0 0 0 0 2 5 5 73 100 100 100 95 40 48
100 100 100 100 96 84 64 70 100 85 66 94 100 100 100 100 100 100 98 96 98 47 51 3 0 2 0 1 2 3 2 5 4 23 16 28 99 100 100 100 92 100 65
40 100 100 100 100 100 100 100 100 100 100 96 100 98 99 100 100 100 100 100 100 83 14 0 5 5 5 2 4 5 14 76 69 100 100 100 100 100 100 100 100 91 98
51 25 9 42 59 83 78 58 80 41 0 0 0 0 0 0 0 0 0 5 3 4 5 5 5 5 5 5 10 31 23 99 100 100 100 100 100 100 100 100 100 100 100
5 5 5 5 5 5 5 0 0 0 0 0 0 0 0 1 5 5 5 5 5 5 5 5 5 11 90 87 99 99 100 100 100 100 100 100 100 100 100 100 100 100 100
81 83 69 7 5 4 1 4 4 0 0 0 2 0 0 0 1 2 5 5 5 5 5 5 5 38 5 37 42 100 99 100 100 100 100 100 100 100 100 100 100 100 100
100 100 93 72 14 6 5 5 0 0 0 0 0 0 0 0 2 2 4 0 2 5 5 5 5 5 5 6 12 68 72 92 100 100 100 100 100 100 100 100 100 100 100
97 61 42 92 52 9 3 2 7 5 5 5 4 1 1 0 0 0 0 2 1 0 5 5 5 5 26 96 100 95 100 95 100 100 100 100 100 100 100 100 100 100 100
74 61 43 37 27 25 36 90 100 99 86 99 100 46 5 5 3 2 3 4 5 5 5 12 88 51 43 93 100 100 100 100 100 100 100 100 100 100 100 100 100 100 100
96 92 100 100 96 97 91 99 53 5 68 13 14 97 81 93 94 100 95 92 88 99 97 98 69 33 48 75 100 97 99 72 98 100 100 100 100 100 100 100 100 100 100
81 14 78 64 100 76 99 6 10 31 97 58 80 62 6 28 52 43 80 99 95 100 100 100 99 76 55 66 11 19 64 94 99 98 98 100 99 99 100 100 99 100 100
100 100 85 100 100 83 81 91 99 100 79 87 88 87 89 100 96 100 100 35 94 88 89 43 59 95 100 100 100 100 100 86 14 38 58 46 31 35 25 17 22 36 62

GFSGL_prec_cloud_027.txt.gz
Cloud_Cover
5 40 68 35 35 0 5 31 74 18 39 100 100 77 31 0 0 6 16 7 18 28 96 100 96 94 100 100 100 100 97 100 100 100 100 100 100 100 100 100 100 100 100
30 100 100 100 0 3 13 6 100 100 57 100 36 7 0 50 3 19 49 95 54 58 100 100 100 100 100 100 100 100 100 56 21 94 100 100 100 100 100 100 100 100 100
100 100 100 87 5 7 5 11 100 100 6 0 1 0 0 10 100 93 67 75 98 94 57 60 90 84 66 100 100 100 42 85 86 92 100 100 100 100 100 100 100 100 100
100 100 100 71 47 62 5 24 20 50 5 0 0 0 0 8 68 40 74 59 70 9 2 14 29 67 100 52 44 87 46 81 79 98 100 100 100 100 100 100 100 100 100
100 100 100 100 100 58 8 38 44 5 6 25 0 0 0 12 54 2 66 90 59 15 0 0 0 2 28 11 21 29 18 35 59 98 100 100 100 100 100 100 100 100 100
100 100 54 100 100 100 17 56 61 17 90 6 2 0 3 16 99 88 76 100 100 36 0 0 0 0 0 1 17 14 3 0 4 57 100 100 100 100 100 100 100 100 100
100 99 52 20 100 93 90 93 95 22 100 14 4 5 4 2 51 96 9 0 21 82 13 1 0 0 0 0 0 0 4 8 12 93 24 63 93 100 97 90 90 72 84
100 84 90 35 98 96 100 100 100 100 99 87 8 5 5 5 3 1 0 1 0 0 21 0 2 5 5 31 18 7 0 0 0 0 3 16 35 21 11 10 5 5 15
100 100 96 78 85 100 100 100 100 98 100 100 98 32 62 80 11 7 2 4 5 5 49 46 44 22 22 49 34 7 5 5 5 2 0 3 5 5 4 58 16 30 13
100 99 100 100 100 86 100 100 93 98 89 100 100 31 5 69 71 11 3 5 5 45 8 16 5 5 5 5 7 5 5 5 5 2 1 2 5 3 0 4 0 1 32
100 100 84 86 100 100 99 100 100 100 100 100 100 100 100 65 87 20 30 9 77 68 5 11 16 33 6 19 5 5 5 4 0 0 0 0 11 0 0 0 0 0 0
100 100 100 100 100 100 100 100 100 100 100 100 100 100 100 82 97 99 100 100 48 97 82 51 80 98 100 58 27 17 35 5 0 0 0 0 0 0 0 0 0 0 2
100 100 100 98 98 100 100 100 100 100 100 100 100 100 100 98 100 100 100 100 100 100 100 96 100 60 100 100 89 98 43 4 0 0 0 0 0 0 0 0 5 4 5
100 100 100 100 100 100 99 100 100 100 100 100 100 100 100 100 100 100 85 99 79 90 96 75 81 8 55 33 99 14 9 0 0 0 0 0 0 0 5 8 8 77 75
100 100 100 100 100 100 100 100 100 100 100 100 97 90 100 100 100 95 77 100 100 100 98 89 26 1 0 2 3 0 0 0 0 0 0 0 5 24 28 93 97 100 100
76 100 100 100 100 100 100 100 100 100 100 100 100 97 100 99 100 100 100 100 100 98 100 15 1 0 1 1 1 5 5 3 3 5 5 5 91 100 100 100 100 100 100
83 95 100 77 83 79 96 100 57 77 81 100 98 100 100 100 100 100 100 47 99 28 1 5 3 5 5 5 4 3 5 69 98 99 100 100 98 100 100 100 100 100 100
65 33 79 83 67 56 39 42 9 5 24 15 4 1 0 0 0 0 0 0 0 4 5 5 5 5 5 5 5 5 5 5 23 86 93 98 100 100 100 100 100 100 100
11 43 48 77 90 8 35 42 100 26 5 4 5 5 1 0 0 0 0 0 0 0 0 2 5 5 5 5 5 5 5 5 5 66 83 97 100 100 100 100 100 100 100
5 5 5 12 5 14 26 42 44 72 46 5 5 4 1 0 0 0 0 0 0 0 0 0 0 0 0 1 5 5 5 5 74 69 88 73 100 99 100 100 100 100 100
5 5 60 100 66 68 55 5 5 5 22 67 36 0 0 0 0 0 0 0 0 0 0 2 0 0 3 5 5 5 5 5 11 100 100 97 99 100 94 99 100 100 100
57 59 98 100 99 60 40 21 36 55 64 5 5 5 5 5 4 0 0 1 0 4 5 5 5 5 5 5 15 33 30 35 12 85 100 100 100 100 100 100 100 100 100
98 99 94 75 90 88 43 97 44 88 100 62 80 59 34 5 5 5 5 6 60 89 31 26 5 5 5 5 5 7 78 94 97 100 100 100 100 100 99 100 100 100 100
100 100 100 99 100 100 99 100 100 22 6 8 33 38 37 40 32 75 48 78 95 100 100 100 99 100 83 50 7 5 6 5 10 10 16 62 100 100 100 100 100 100 100
97 100 100 100 100 100 100 99 81 98 74 72 71 95 88 47 11 31 5 50 71 5 33 28 59 9 7 64 35 93 99 100 38 63 6 40 7 7 31 55 57 85 94
100 100 98 100 100 100 100 95 97 66 50 73 12 55 41 6 16 7 5 5 17 5 9 40 56 41 44 99 66 3 10 46 80 100 98 100 100 57 37 59 56 49 4

GFSGL_prec_cloud_030.txt.gz
Cloud_Cover
95 38 5 5 23 5 5 5 20 75 44 100 32 9 14 7 9 12 8 21 39 30 18 74 100 95 100 100 100 100 100 100 100 100 100 100 100 100 100 100 100 100 100
100 100 16 97 32 5 5 5 6 40 5 1 0 3 6 10 10 98 97 31 32 39 32 34 100 100 100 100 100 100 100 100 100 100 100 100 100 100 100 100 100 100 100
100 100 99 94 95 26 5 5 5 32 6 1 1 1 0 0 1 14 14 7 13 26 35 35 32 82 100 94 82 100 100 100 99 100 100 100 100 100 100 100 100 100 100
100 100 100 100 100 50 5 2 5 9 5 3 2 0 0 0 0 0 0 0 0 10 17 25 98 100 98 36 53 64 98 91 100 100 100 100 100 100 100 100 100 100 100
100 88 72 100 100 100 96 27 6 5 12 5 5 5 2 0 0 0 0 0 0 0 0 0 4 18 1 16 31 25 17 37 87 100 100 100 100 100 100 100 100 100 100
43 11 96 98 100 100 100 100 95 6 35 31 28 19 5 5 6 5 3 0 0 0 0 0 0 0 0 0 2 0 2 3 82 100 100 100 100 100 100 100 100 100 100
100 98 100 100 99 100 100 100 100 94 93 48 100 80 80 85 85 61 6 5 5 4 0 0 0 0 0 0 0 0 4 1 2 67 63 85 100 100 100 100 100 100 100
98 100 100 100 100 100 100 100 100 100 100 93 100 49 84 99 94 66 22 13 6 5 6 16 5 2 3 4 29 6 50 92 75 16 13 93 97 100 63 59 61 33 26
100 100 100 100 100 100 100 100 100 100 100 100 100 100 24 21 98 84 60 70 43 13 5 5 5 5 5 5 5 59 31 5 5 5 5 5 4 5 7 12 52 43 49
100 100 100 100 100 97 100 100 100 100 100 100 100 100 61 40 100 98 36 66 100 100 100 74 6 5 5 8 5 5 5 5 5 3 4 4 5 24 19 9 44 41 87
100 100 100 100 96 100 99 100 100 99 97 95 100 99 83 100 95 100 97 99 100 39 15 25 10 5 9 8 5 5 6 5 5 4 0 0 0 0 0 0 0 0 0
100 100 97 89 100 100 100 100 99 100 100 93 100 100 99 100 100 99 100 58 100 79 85 44 27 14 12 39 98 71 5 78 8 4 0 0 0 0 0 0 0 0 2
61 100 100 66 100 100 100 100 100 100 100 100 100 100 100 100 100 100 100 100 93 97 100 100 99 62 14 12 78 86 5 5 5 1 0 0 0 0 0 0 0 0 5
100 100 100 100 100 100 100 100 100 100 100 100 100 100 100 100 100 100 100 100 100 97 49 82 72 20 5 5 1 4 0 0 0 0 0 0 0 0 0 0 2 5 16
100 100 100 99 94 100 100 100 100 100 100 100 100 100 100 100 100 100 99 98 100 79 90 81 95 12 2 1 0 0 0 0 0 0 0 0 4 5 5 5 46 76 95
100 100 100 91 96 100 100 100 100 100 100 100 100 100 100 90 99 100 100 100 100 100 95 64 29 0 2 5 5 5 5 5 5 5 5 5 32 92 97 95 21 100 100
92 96 98 100 100 100 93 25 34 37 87 90 59 70 54 90 99 82 45 27 48 100 36 0 5 3 0 0 1 0 3 5 5 5 5 5 5 5 8 95 100 100 100
2 9 58 92 91 84 14 7 5 10 6 5 5 5 5 5 5 5 0 0 0 0 0 0 0 0 0 0 0 0 0 0 4 2 5 5 5 5 5 79 100 100 53
0 3 5 5 5 5 7 5 5 5 5 5 5 5 5 4 5 3 0 0 0 0 0 0 0 0 0 0 0 0 0 0 4 5 5 5 5 26 27 9 72 54 79
5 5 5 5 5 5 43 71 77 36 15 28 55 80 98 7 3 3 2 0 0 0 0 0 0 0 0 0 0 0 0 0 4 5 6 14 5 5 5 10 74 78 51
6 76 72 6 5 6 48 100 98 89 62 30 5 7 79 89 90 6 4 0 0 0 0 1 5 4 5 5 5 4 4 5 5 5 5 5 5 75 100 82 92 100 100
84 83 73 99 94 64 97 65 97 100 100 30 54 98 100 91 61 17 6 9 8 5 5 5 48 6 8 5 5 5 5 5 5 5 5 5 5 5 5 10 72 100 100
84 75 88 94 100 76 94 97 100 55 80 91 100 100 99 67 71 86 66 16 32 54 5 8 90 51 22 8 5 5 5 5 5 5 54 5 5 5 5 5 10 27 74
92 73 82 100 100 100 97 59 85 77 40 80 58 96 100 100 92 11 13 31 97 29 6 5 46 6 6 22 5 5 5 8 5 5 5 5 5 5 5 5 5 5 6
100 90 94 17 26 57 96 98 100 94 12 63 20 5 5 5 39 79 63 5 53 25 34 14 10 12 7 5 5 5 7 23 51 5 5 5 5 85 100 68 100 67 43
96 56 40 44 77 100 91 99 100 100 100 100 100 74 89 84 5 5 5 5 65 79 99 65 52 14 5 5 13 91 82 5 5 5 5 5 9 5 20 94 100 93 72

GFSGL_prec_cloud_033.txt.gz
Cloud_Cover
100 100 100 95 84 85 11 19 17 5 5 6 9 13 17 18 12 10 14 19 24 28 29 58 38 39 91 76 100 100 100 100 100 100 100 100 100 100 100 100 100 100 100
100 96 41 100 100 96 94 5 16 5 5 17 14 10 15 18 54 36 14 26 39 43 34 29 52 70 99 100 100 100 100 100 100 100 100 100 100 100 100 100 100 100 100
62 73 12 100 100 100 100 37 45 5 6 57 5 11 14 13 11 5 5 15 35 55 45 35 46 93 100 98 100 100 100 100 100 100 100 100 100 100 100 100 100 100 100
100 59 50 35 100 100 100 99 29 32 52 10 17 6 8 5 5 4 0 2 5 14 54 99 100 36 54 36 63 68 100 100 100 100 100 100 100 100 100 100 100 100 100
100 99 70 77 81 73 95 100 100 61 10 51 10 5 5 5 44 28 5 7 5 5 0 0 0 2 28 42 24 26 44 97 100 100 100 100 100 100 100 100 100 100 100
90 100 77 95 100 100 90 99 100 100 78 10 6 12 24 56 56 50 52 5 13 54 57 12 5 5 5 4 10 1 0 19 99 100 100 100 100 100 100 100 100 100 99
95 100 100 100 100 100 99 100 100 100 100 100 92 17 64 97 100 98 46 5 5 8 55 86 78 32 11 16 5 5 5 5 22 78 45 100 100 100 100 100 100 100 95
100 100 99 100 100 100 100 100 100 100 100 100 100 91 19 42 100 100 98 53 41 53 89 81 96 100 99 100 100 97 78 49 32 72 86 86 100 100 100 96 100 100 98
100 100 100 100 100 100 100 100 100 100 100 100 100 100 100 100 100 100 100 58 99 92 99 100 100 100 100 100 97 79 34 5 5 11 5 5 5 5 8 9 35 59 99
100 100 100 100 99 100 90 100 100 100 100 100 100 100 100 100 100 100 100 100 100 100 100 62 68 56 99 97 70 72 85 27 5 34 10 5 5 5 4 4 84 99 93
100 100 100 100 99 100 100 100 100 100 100 100 100 100 100 86 90 100 100 100 100 100 96 64 24 5 5 5 6 5 5 5 17 8 5 5 1 2 0 0 0 0 4
100 100 100 100 100 100 98 100 94 100 100 100 100 100 100 100 70 92 100 100 100 100 90 98 99 76 70 9 5 5 77 64 5 5 0 0 0 0 0 0 0 0 3
100 100 100 100 100 100 100 100 100 100 100 100 100 100 88 100 100 100 100 93 100 100 100 100 100 100 98 47 5 5 3 1 1 1 0 0 0 0 0 0 0 0 0
100 100 99 100 100 100 100 100 100 100 100 100 100 100 100 100 100 100 100 100 100 100 100 98 75 100 98 5 5 0 0 0 0 0 0 0 0 0 5 5 20 77 96
100 100 100 100 100 100 100 100 100 100 100 100 100 100 100 100 100 100 100 100 100 100 100 99 95 91 85 21 0 0 0 0 0 0 0 0 4 5 5 5 5 5 5
100 95 100 100 100 100 83 86 100 100 100 100 97 95 100 100 100 100 100 100 100 93 93 79 7 12 0 0 0 0 0 0 0 0 0 0 0 0 0 0 2 1 5
8 25 44 42 53 40 23 20 36 48 20 17 25 38 53 22 58 71 26 21 1 5 70 8 0 0 0 0 0 0 0 0 0 0 0 0 0 0 0 0 5 0 2
5 5 15 21 22 16 7 2 7 5 3 0 0 1 5 5 5 5 5 5 4 2 0 3 5 5 2 5 2 3 0 0 0 0 0 0 0 2 2 3 4 5 5
7 25 6 5 5 5 5 5 3 1 2 5 5 5 5 5 5 5 0 0 3 5 4 5 5 5 2 0 0 0 0 0 0 2 2 0 1 4 2 3 5 5 5
5 25 24 6 8 92 97 57 10 13 5 5 5 5 5 5 32 25 5 4 5 5 5 5 5 5 4 4 5 1 2 0 0 0 0 2 5 5 5 5 5 5 5
100 5 58 81 81 100 100 99 10 5 64 84 72 29 26 68 80 7 5 5 5 5 5 5 5 5 5 2 5 5 5 3 1 5 5 3 0 0 4 5 5 5 5
9 87 38 98 100 100 100 100 94 88 96 73 20 81 86 18 5 36 5 5 4 3 4 4 5 5 82 11 4 3 2 5 4 4 1 5 5 5 3 0 0 0 3
68 79 98 100 100 93 58 80 100 100 100 96 10 30 5 5 5 32 92 52 30 39 24 20 5 5 5 5 5 9 10 16 6 5 5 5 5 5 66 65 50 6 3
94 100 100 100 91 12 23 76 98 100 98 88 66 67 58 67 66 97 74 69 73 10 26 24 35 71 76 27 5 5 5 9 5 5 5 15 6 5 4 5 22 99 94
100 82 89 65 34 5 6 28 47 98 100 82 81 97 100 100 100 86 12 8 5 5 5 5 7 5 5 4 8 9 6 78 20 6 5 5 5 5 5 5 5 56 17
55 100 100 84 48 85 43 86 97 48 35 100 100 100 100 100 100 99 5 5 1 2 2 0 0 1 3 0 2 4 5 5 5 0 1 4 5 5 5 5 5 7 42

GFSGL_prec_cloud_036.txt.gz
Cloud_Cover
100 57 100 100 100 100 54 22 5 5 44 50 11 14 22 22 16 18 25 22 29 41 42 49 69 57 68 60 74 84 96 100 100 100 100 100 100 100 100 100 100 100 100
100 100 76 5 8 16 62 100 64 24 72 7 6 6 34 6 5 15 40 53 73 46 47 80 100 97 96 76 66 98 90 68 100 100 100 100 100 100 100 100 100 100 100
7 38 70 12 13 5 37 100 86 6 18 55 49 46 64 5 5 5 22 53 54 81 91 74 79 82 95 100 84 100 100 100 100 100 100 100 100 100 100 100 100 100 100
97 97 100 13 52 99 47 52 100 96 18 30 25 17 26 42 5 5 5 4 2 10 55 54 56 97 61 50 92 100 100 99 98 100 100 100 100 100 100 100 89 100 100
65 95 100 92 30 98 37 16 32 100 100 100 100 98 86 93 81 12 5 5 5 5 5 5 14 58 81 71 39 77 76 100 100 100 100 100 100 100 100 100 100 100 100
75 49 90 100 100 100 99 69 66 48 81 98 95 96 100 36 84 100 63 51 7 5 25 24 12 81 64 71 100 100 100 97 99 100 100 100 92 100 100 100 100 100 100
41 87 100 100 100 100 100 100 6 32 93 100 89 79 32 99 100 27 58 20 99 92 61 28 8 39 9 49 58 40 94 92 68 84 94 100 100 100 100 100 100 100 98
95 74 99 100 100 100 100 100 100 50 96 100 100 100 31 68 100 100 100 100 100 100 100 100 96 83 100 19 10 20 33 77 90 90 86 66 94 93 100 96 98 99 92
100 100 100 100 86 100 100 100 100 100 86 65 100 75 93 92 91 100 100 100 100 100 100 100 100 100 100 100 80 8 5 9 22 11 27 58 28 20 6 13 58 45 89
100 100 100 100 100 97 100 98 100 100 100 100 100 100 100 100 88 91 100 100 100 100 100 100 100 100 100 100 100 95 66 42 7 5 5 5 5 5 2 1 0 0 8
100 100 100 97 78 69 100 100 92 100 93 100 100 56 100 100 100 100 100 100 100 100 100 65 81 58 46 44 57 43 25 10 8 5 5 5 0 0 0 0 0 0 0
100 100 100 98 100 100 100 100 100 100 100 100 100 97 96 100 100 100 100 100 100 100 90 100 100 74 56 16 5 24 87 89 54 5 5 1 0 0 0 0 0 0 0
100 100 100 100 100 100 100 100 100 70 99 100 100 98 100 100 100 100 100 100 100 100 100 100 100 100 100 100 100 100 94 10 5 1 0 0 0 0 0 0 0 0 0
100 100 100 100 100 100 100 100 100 100 100 100 100 100 100 100 100 100 100 100 93 98 100 100 98 96 77 57 51 10 2 0 0 0 0 0 0 0 0 0 0 0 0
100 100 100 100 100 100 100 100 100 100 100 100 100 100 100 100 100 100 100 74 100 100 57 100 99 58 2 0 0 0 0 0 0 0 0 0 0 0 0 0 0 0 0
100 100 100 100 100 100 100 100 100 100 100 100 100 100 100 76 85 100 99 99 96 61 93 7 89 0 0 0 0 0 0 0 0 0 0 0 0 0 0 0 0 0 0
100 100 100 100 100 76 48 79 49 75 100 100 99 100 100 26 45 58 13 25 20 10 4 6 33 0 0 0 0 0 0 0 0 0 0 0 0 0 0 0 0 0 0
51 37 81 79 27 15 6 5 5 5 5 5 5 5 5 5 5 5 5 5 5 2 0 0 2 1 1 1 0 0 0 0 0 0 0 0 0 0 0 0 1 5 5
5 6 3 4 5 5 21 5 5 22 23 5 5 5 5 6 28 20 27 5 5 5 5 5 5 4 0 3 5 2 2 0 0 0 0 1 2 0 0 0 0 0 0
12 5 5 31 56 77 75 54 5 5 47 96 95 45 55 68 95 91 8 27 60 69 9 1 1 0 0 3 3 5 5 0 0 0 0 0 0 2 3 0 0 0 0
5 8 69 5 60 5 5 34 83 72 99 66 14 5 5 5 35 5 46 14 5 1 0 5 3 4 5 5 5 4 5 5 5 5 5 5 5 5 5 5 5 3 0
96 7 33 59 88 84 20 27 74 55 34 5 8 60 24 7 5 5 14 68 28 7 5 5 16 5 5 5 18 23 5 5 5 5 5 5 5 5 5 5 5 5 5
38 64 59 77 93 92 96 99 99 81 26 64 100 86 87 73 84 90 100 79 42 67 48 12 40 60 28 55 100 80 4 14 84 44 9 5 5 5 5 5 5 5 5
94 100 70 51 100 95 100 100 84 88 85 26 8 100 93 98 100 100 84 88 83 96 64 23 5 5 5 23 22 3 0 16 85 67 5 9 5 5 5 5 5 5 5
87 76 77 100 97 100 99 96 88 94 87 71 54 70 93 99 100 100 93 89 48 5 5 5 1 0 0 0 0 0 4 5 4 4 3 3 0 0 0 0 3 5 5
79 100 100 100 96 74 94 96 91 75 100 90 96 100 100 100 100 93 5 5 7 5 4 3 2 4 4 2 0 3 5 5 2 5 0 0 0 0 0 0 0 0 9

GFSGL_prec_cloud_039.txt.gz
Cloud_Cover
100 32 71 100 100 100 100 100 89 14 14 47 99 58 56 51 45 38 38 72 71 87 100 99 100 99 100 87 74 81 82 100 99 100 100 100 100 100 100 100 100 100 100
100 28 19 86 26 52 83 66 100 98 5 17 92 40 29 29 52 29 43 58 64 98 100 94 100 67 100 97 85 100 80 78 100 100 100 100 100 100 100 100 100 100 100
26 45 4 2 5 5 5 30 86 100 15 14 100 90 52 35 72 54 38 46 54 69 70 93 100 69 87 100 100 100 100 100 94 100 100 100 100 100 100 100 100 100 100
100 13 7 98 46 5 5 7 6 66 60 17 80 79 90 63 78 82 28 11 18 42 67 100 100 100 100 100 100 100 100 100 100 100 100 100 100 100 100 100 100 100 100
48 5 5 79 83 10 48 19 15 5 10 53 100 64 49 99 6 96 94 97 28 67 70 64 63 45 59 44 37 89 92 98 100 100 100 100 100 100 100 100 100 100 100
10 79 4 40 37 62 34 34 33 20 10 1 5 10 21 27 39 17 27 100 100 63 7 23 94 100 14 6 5 19 21 45 64 91 100 100 100 100 100 100 100 100 82
37 69 59 99 76 25 87 52 89 70 81 100 79 17 53 90 31 30 33 32 100 100 100 100 44 44 100 100 100 99 100 88 10 84 94 92 87 93 91 92 93 100 100
97 62 82 100 90 83 98 92 100 64 14 100 100 100 84 96 82 85 44 72 92 69 83 100 100 100 100 100 100 100 100 100 99 82 52 12 28 75 65 61 71 60 76
92 96 100 100 100 100 98 79 72 97 100 100 76 69 93 77 100 59 79 100 100 100 100 100 100 100 100 100 100 100 100 100 95 100 88 94 27 5 6 22 58 99 100
100 100 100 100 100 100 100 100 100 95 86 73 68 100 75 92 100 100 100 100 100 100 100 100 100 100 100 100 100 100 100 100 69 81 60 81 57 18 5 2 0 0 2
83 94 100 100 100 100 100 100 100 100 54 58 99 95 98 81 100 100 100 100 100 100 100 100 100 100 100 100 100 100 100 98 88 67 19 8 9 5 4 2 0 0 1
100 100 100 100 100 100 100 100 100 100 98 95 98 98 42 77 52 97 93 97 100 100 100 100 100 100 100 92 92 76 30 5 5 16 9 1 0 0 0 0 0 0 0
100 100 100 100 100 100 100 100 100 100 100 100 94 100 76 93 95 84 62 66 100 100 100 89 100 97 30 29 8 5 0 0 0 0 0 0 0 0 0 0 0 0 0
100 100 100 100 100 100 100 100 100 100 89 87 100 100 98 98 95 77 78 98 76 99 92 95 54 67 25 3 0 0 0 0 0 0 0 0 0 0 0 0 0 0 0
100 100 100 100 100 100 100 100 100 100 100 100 100 97 100 100 91 99 100 89 63 99 100 99 58 50 5 5 5 5 3 3 0 0 0 0 0 0 0 0 0 0 0
100 100 100 100 100 100 100 100 100 100 99 100 100 100 100 98 41 9 54 100 96 56 18 5 4 2 1 0 0 0 0 0 3 5 0 0 0 0 0 0 0 0 0
100 100 100 100 100 100 100 100 100 99 100 100 100 100 97 99 97 78 25 3 5 6 45 5 5 4 0 0 5 5 2 0 0 0 0 0 0 0 0 0 0 5 4
100 100 100 100 97 95 100 59 49 42 30 22 44 82 76 30 14 5 5 5 5 10 64 67 7 5 5 4 3 2 0 0 1 1 2 4 3 3 0 0 0 5 5
79 95 100 98 52 41 78 32 42 44 22 5 5 14 6 8 58 62 5 0 0 4 5 5 5 2 0 0 0 0 5 5 5 4 4 4 0 0 0 5 5 1 0
42 7 17 36 100 92 36 78 61 9 30 15 27 37 5 12 5 4 2 5 5 20 13 2 1 0 0 5 5 14 25 5 5 1 0 3 5 5 4 4 5 5 5
7 30 65 72 46 27 100 55 65 66 13 5 6 5 11 5 5 5 5 5 3 1 4 5 5 4 16 66 66 9 19 13 5 5 6 5 5 5 5 5 5 5 6
93 98 86 100 100 96 80 66 67 34 32 77 80 69 6 5 5 5 5 5 10 31 36 19 66 92 52 5 5 5 5 91 7 23 33 88 92 17 7 5 5 23 23
99 91 91 93 83 86 61 70 93 81 69 73 41 17 98 71 43 55 55 12 16 19 15 86 95 79 34 68 6 5 26 54 4 1 5 38 100 71 47 48 12 52 18
100 94 100 99 98 98 92 79 59 31 42 26 69 97 73 43 45 71 100 100 96 74 77 37 10 5 5 0 0 0 1 0 0 2 4 4 4 4 1 0 0 4 4
96 100 100 98 93 97 100 100 96 74 66 87 99 94 80 70 48 58 100 92 82 65 81 5 1 0 0 0 0 0 20 5 1 44 0 0 0 0 0 0 0 0 0
84 100 98 100 100 100 100 100 100 100 100 85 100 95 97 99 96 100 91 62 25 24 5 5 4 0 2 2 1 2 4 5 2 5 0 0 0 0 0 0 0 0 0

GFSGL_prec_cloud_042.txt.gz
Cloud_Cover
100 93 23 5 5 99 63 18 43 23 19 22 92 88 100 95 100 100 98 100 100 91 96 100 90 55 79 42 45 42 92 36 97 100 100 100 100 100 100 100 100 100 94
100 97 6 9 21 9 5 5 17 100 100 100 24 26 26 23 37 34 43 49 68 100 100 100 100 74 96 64 98 98 42 68 61 100 100 100 100 100 100 100 100 100 100
100 40 39 30 30 36 5 33 4 97 100 100 64 13 68 17 5 9 26 28 63 100 100 100 100 89 93 100 100 100 100 98 90 99 100 100 100 100 100 100 100 100 100
30 27 22 88 90 64 29 34 24 3 5 71 100 69 66 75 83 89 83 83 62 78 89 89 52 57 98 100 100 100 91 86 100 100 100 100 100 100 100 100 100 98 99
93 63 100 96 100 72 88 100 52 19 5 35 78 100 100 100 100 99 96 45 67 28 42 50 42 17 9 21 7 97 100 62 99 100 100 100 100 100 100 100 96 100 100
5 26 100 99 100 100 100 94 55 26 11 85 99 37 86 50 26 26 90 7 8 5 86 100 100 100 100 100 100 65 100 100 100 99 100 99 99 66 91 85 95 99 100
100 9 70 100 92 100 100 100 100 100 32 25 17 18 13 9 6 63 5 9 58 57 18 70 81 93 100 100 100 100 100 100 100 100 100 100 100 100 98 97 54 73 78
84 100 31 60 96 100 95 96 100 97 42 38 12 64 83 93 100 90 6 6 5 5 5 97 100 100 100 100 100 100 100 100 100 100 100 100 100 96 98 100 82 76 77
100 100 96 81 95 100 100 95 62 100 86 79 99 81 99 82 92 87 12 5 5 59 100 91 100 100 100 100 100 100 100 100 100 100 100 100 100 100 99 100 52 17 9
100 100 95 100 100 100 100 100 73 100 100 100 97 57 100 40 58 83 78 98 65 98 87 99 100 100 100 100 100 100 100 100 100 96 95 48 67 23 12 5 5 5 5
100 100 100 100 100 100 97 93 100 100 100 70 77 91 95 94 44 54 84 100 96 70 99 67 35 99 100 100 100 100 86 74 26 38 61 94 70 5 4 0 0 0 1
100 100 100 100 100 100 100 100 100 100 93 94 40 18 79 37 73 61 61 98 67 99 76 100 100 70 1 4 5 30 67 99 98 83 37 7 3 0 3 0 0 0 0
100 100 100 100 100 100 99 100 100 100 100 48 88 95 32 97 26 74 86 30 64 91 44 86 100 41 9 2 5 5 33 1 0 2 5 4 0 1 0 3 4 0 0
100 100 100 100 100 100 100 100 100 99 99 100 100 76 100 37 77 35 28 31 84 42 58 98 100 44 25 13 5 5 5 5 3 3 0 1 0 0 0 0 0 0 0
100 100 100 100 100 100 100 100 100 92 100 39 98 95 100 36 34 77 75 43 49 69 97 98 75 33 37 4 4 2 0 0 0 0 0 1 3 0 0 1 2 0 0
100 100 100 100 100 100 100 100 100 99 100 98 100 99 68 58 95 97 98 26 39 96 20 14 26 9 5 5 5 5 2 0 0 4 1 0 0 1 0 3 5 5 5
100 100 100 100 100 100 100 100 100 100 100 100 100 96 98 76 75 82 100 26 4 4 5 54 5 5 5 5 4 0 3 0 0 1 1 4 0 5 25 5 5 5 5
100 100 100 100 100 96 100 100 100 100 94 42 45 56 70 93 82 83 9 10 6 5 28 5 32 5 4 5 5 5 5 5 5 2 5 5 5 5 5 5 5 5 5
100 100 100 100 100 100 100 100 98 86 92 37 56 86 97 68 30 5 5 5 25 5 7 30 5 4 5 5 3 0 0 5 5 36 52 13 5 5 5 5 5 22 10
100 100 78 63 32 96 81 64 84 90 72 35 47 87 47 95 66 77 31 53 48 5 5 5 4 5 5 4 4 2 35 22 43 16 13 13 31 23 67 85 92 88 93
100 46 5 5 6 7 5 5 12 28 58 48 95 100 100 100 100 93 53 17 5 5 5 5 5 5 5 5 4 5 15 66 22 28 5 5 5 5 86 82 90 77 99
100 100 100 100 87 89 92 100 100 89 97 100 100 98 86 66 5 6 30 17 5 5 5 5 5 34 67 11 14 5 16 5 5 4 5 4 0 0 0 49 77 87 88
100 85 97 67 85 99 99 90 99 78 58 23 16 43 5 23 19 5 36 24 5 5 5 7 8 10 6 23 5 5 5 1 0 3 0 0 0 3 3 3 5 9 5
100 100 99 100 86 78 100 96 56 75 85 97 99 92 76 77 67 97 35 7 79 99 100 96 64 73 19 5 4 0 0 0 0 0 0 0 0 0 0 0 0 0 0
100 100 100 98 70 93 100 100 86 100 89 96 91 41 100 98 100 100 26 32 32 100 62 45 38 38 5 5 1 0 3 5 1 42 0 0 0 0 0 0 0 0 0
100 100 73 100 100 92 84 100 100 100 100 83 86 85 96 100 100 100 100 90 72 35 43 27 20 5 5 5 0 2 3 4 2 5 0 0 0 0 0 0 0 0 0

GFSGL_prec_cloud_045.txt.gz
Cloud_Cover
100 100 99 45 4 35 100 27 13 38 100 97 100 76 95 54 21 52 29 52 100 100 100 100 95 71 41 13 22 51 96 100 100 100 100 100 100 100 100 100 100 100 95
100 100 100 25 8 0 0 9 8 38 49 46 52 34 19 6 40 52 14 98 99 100 100 97 94 75 38 83 86 71 72 77 71 100 100 100 100 100 100 100 99 96 100
69 61 95 26 15 2 17 31 21 12 49 100 95 95 12 15 61 59 24 62 100 100 100 99 100 100 99 100 99 100 87 92 78 79 100 100 100 100 100 100 100 94 93
100 41 32 19 4 31 86 50 18 4 5 14 40 40 12 38 46 73 65 16 23 63 32 16 5 13 24 75 97 91 60 90 100 100 100 100 100 100 100 100 100 100 98
100 70 51 79 5 55 57 35 33 14 18 12 11 7 6 61 50 100 100 100 100 31 12 5 5 5 5 18 57 86 100 90 100 100 100 100 100 100 100 81 53 57 56
95 94 72 100 98 64 46 89 36 6 91 57 40 35 37 16 1 2 5 6 5 5 5 26 5 5 6 38 20 5 11 41 89 100 100 100 100 100 100 100 100 100 100
100 99 37 88 100 100 100 100 74 100 98 98 100 100 41 4 1 4 5 5 46 18 5 61 83 41 33 26 100 100 100 100 100 100 100 100 100 100 100 100 100 100 100
100 100 100 94 100 100 100 92 92 64 100 100 99 100 69 12 5 66 5 18 22 65 90 92 100 60 5 46 96 100 100 100 100 100 100 100 100 81 50 53 39 20 49
100 100 100 100 100 95 87 100 100 100 94 100 100 100 73 95 37 5 7 55 34 43 47 58 6 5 28 33 8 5 5 58 100 100 100 100 100 100 44 16 44 21 28
100 100 100 92 100 100 97 100 100 100 90 68 96 100 83 25 50 30 32 99 16 29 86 6 5 6 6 21 6 5 5 4 14 14 49 70 95 89 42 5 5 5 5
100 100 100 100 100 100 84 89 76 82 96 93 95 99 66 84 19 5 5 4 46 92 40 27 99 100 51 33 5 5 9 8 1 2 5 5 5 5 5 5 5 4 0
100 100 100 100 100 100 100 100 100 97 100 85 98 94 91 36 54 18 5 5 7 20 67 30 32 23 60 38 2 0 0 2 5 5 8 67 52 9 5 0 0 0 0
100 100 100 100 100 100 100 100 100 100 100 100 100 100 100 41 12 14 17 8 5 65 96 44 51 43 48 5 5 0 0 1 5 5 5 5 4 0 0 3 0 0 0
100 100 100 100 100 100 100 100 100 100 100 100 97 65 96 93 44 6 5 22 20 86 58 58 100 99 37 9 17 5 5 5 5 5 5 5 4 5 5 2 3 1 1
100 100 100 100 100 100 100 100 100 100 100 100 100 100 100 89 61 44 43 23 39 77 75 100 83 28 46 57 5 6 5 3 5 5 5 3 5 5 5 5 5 5 5
100 100 100 100 100 100 100 100 100 100 100 100 100 94 92 100 100 100 100 100 100 47 34 15 16 84 29 5 5 5 4 4 5 5 5 5 5 5 1 5 5 5 5
100 100 100 100 100 100 100 100 100 100 100 100 100 100 100 100 100 100 100 64 7 25 81 66 68 16 45 5 5 5 5 5 4 5 5 5 5 5 5 5 5 5 5
100 100 99 100 100 100 100 100 100 100 100 100 100 100 99 99 97 73 27 89 74 76 21 25 34 9 6 5 5 6 19 8 13 4 5 5 5 5 5 5 7 7 4
100 95 77 100 100 100 100 100 100 100 100 100 99 72 98 78 87 69 9 27 40 91 91 77 83 61 34 8 12 4 2 6 10 0 5 6 5 3 5 16 44 58 12
96 100 100 96 77 84 84 100 99 62 90 99 5 8 9 8 33 94 78 87 100 84 99 64 36 5 13 29 26 6 7 16 37 7 31 16 3 26 13 14 17 38 57
100 100 99 100 100 83 65 44 58 53 17 5 5 7 13 9 14 82 100 100 100 89 25 5 15 24 14 29 5 18 25 65 44 7 62 69 12 5 5 5 5 2 74
100 100 100 100 100 93 57 46 20 57 74 62 62 64 60 79 32 13 5 5 5 5 6 22 19 85 100 80 96 92 50 12 12 5 5 2 5 5 5 5 18 46 28
40 94 100 84 100 94 81 100 99 74 43 20 25 60 28 5 12 24 28 30 51 70 89 100 100 64 84 24 5 5 5 17 10 5 0 0 0 1 3 3 1 4 3
51 92 100 95 100 62 100 78 100 100 96 99 100 87 79 100 57 66 82 100 83 100 97 100 100 100 54 8 5 5 30 7 5 5 1 0 0 0 0 0 0 0 0
90 64 100 99 100 100 100 100 100 100 100 100 100 100 100 96 84 98 100 98 96 56 100 100 100 89 98 21 49 5 5 5 5 5 0 0 0 0 0 0 0 0 0
100 60 100 100 100 100 100 100 100 100 100 100 100 100 100 100 88 90 88 100 100 100 100 100 100 64 97 91 5 5 5 5 5 3 0 0 0 0 0 0 0 0 0

GFSGL_prec_cloud_048.txt.gz
Cloud_Cover
100 100 100 33 41 90 99 8 13 80 66 93 94 100 100 100 100 35 5 30 26 71 59 53 40 14 5 9 33 19 52 98 100 100 100 100 100 100 100 100 100 100 100
100 87 100 86 27 5 8 86 99 18 27 32 72 24 0 2 5 42 5 40 100 100 98 63 78 14 5 9 82 90 50 11 69 100 100 100 100 100 100 98 86 100 100
55 85 76 68 36 6 5 0 0 0 0 0 6 15 65 19 5 27 13 35 83 98 46 72 97 92 100 98 53 33 22 35 32 100 100 100 100 100 100 79 96 99 99
100 12 24 79 24 9 6 4 2 3 0 0 0 4 83 21 86 42 35 14 5 5 15 31 40 73 39 19 7 32 94 89 73 100 100 99 100 100 100 81 97 66 77
100 87 81 6 3 5 5 5 5 5 3 0 1 5 19 5 5 2 3 6 6 53 55 45 8 5 10 13 22 58 45 52 99 100 100 100 100 100 63 79 100 100 100
96 100 30 5 80 100 68 63 5 5 5 5 10 53 2 0 5 5 5 0 0 5 5 5 5 5 6 100 75 58 71 5 6 7 57 100 100 100 100 100 100 100 100
97 97 63 72 25 99 50 47 98 5 5 7 68 44 6 5 13 5 5 8 9 6 14 58 20 5 5 5 7 6 5 6 16 96 71 28 61 85 99 77 93 99 100
100 87 93 100 100 100 99 64 97 30 81 48 10 12 79 38 24 6 5 5 8 40 22 76 66 17 39 20 5 5 4 4 5 5 5 4 5 85 97 67 84 89 94
100 100 95 100 100 100 100 96 82 99 100 75 29 55 5 46 45 99 7 88 82 18 92 100 96 100 75 7 5 5 5 5 5 10 5 0 0 0 4 46 38 78 85
100 100 100 100 98 100 100 100 100 100 100 100 100 53 35 29 76 38 32 62 66 66 8 11 41 20 6 67 5 5 5 24 5 5 4 0 0 0 0 3 5 5 5
100 100 100 100 100 100 100 100 100 100 100 100 100 100 91 27 48 69 56 11 5 4 99 72 8 22 67 13 22 99 17 28 13 6 11 5 4 5 5 5 5 5 5
84 100 100 100 100 100 100 100 100 100 100 100 100 100 88 62 74 19 5 6 5 5 5 18 30 5 5 13 44 100 38 40 5 5 48 42 9 5 5 5 5 5 3
17 100 100 100 100 100 100 100 100 100 100 100 100 100 100 78 100 100 80 5 5 13 5 75 12 2 13 100 100 94 7 43 12 5 25 5 5 5 5 2 1 0 0
86 100 99 100 100 100 100 100 100 100 100 100 100 100 100 100 100 100 86 42 22 81 50 8 5 64 100 100 100 13 5 8 15 12 5 5 5 5 0 0 0 0 0
100 100 100 100 100 100 100 100 100 100 100 100 100 100 100 100 100 100 100 100 90 95 98 99 100 100 100 98 77 10 5 5 5 5 5 4 4 1 4 0 0 5 3
100 100 100 100 100 100 100 100 100 100 100 100 100 100 100 100 100 100 100 96 100 100 100 100 100 73 56 5 21 83 17 2 5 5 4 2 3 3 0 4 5 4 5
100 100 100 100 100 100 100 100 100 100 100 100 100 100 100 100 100 100 100 100 98 100 100 100 100 89 100 18 5 17 5 22 8 5 1 4 5 5 5 5 5 8 5
100 100 100 100 100 100 100 100 100 100 100 100 100 100 100 100 100 100 100 100 100 100 89 20 45 100 51 5 5 12 6 5 5 1 0 5 5 5 4 8 4 69 5
100 99 100 100 100 100 100 100 100 100 100 100 100 100 100 100 100 100 100 99 58 9 5 5 18 100 98 15 40 6 7 4 4 0 0 2 19 0 16 81 92 72 49
5 38 73 29 100 100 100 100 100 100 100 100 100 97 100 99 22 11 78 20 5 5 5 5 87 100 36 4 5 4 2 0 0 1 4 88 27 41 88 3 0 1 0
100 54 97 23 96 99 100 100 78 90 100 85 100 13 5 5 5 5 5 5 5 5 20 100 100 26 5 5 9 72 26 38 83 84 100 91 67 96 5 0 3 2 4
49 90 99 85 60 61 100 100 100 100 100 100 100 69 54 36 68 83 72 50 66 12 9 23 60 99 93 66 100 98 69 100 90 38 42 15 4 0 0 0 0 4 2
38 95 100 46 96 100 100 100 100 100 100 80 35 92 82 100 55 33 36 59 65 97 28 26 99 74 94 100 80 35 100 71 21 85 5 5 0 0 1 4 0 0 0
36 49 100 5 86 100 100 100 100 100 99 100 100 65 93 99 78 100 100 100 91 100 44 98 97 100 99 93 92 100 100 91 100 83 6 4 0 4 5 5 5 0 0
100 99 98 83 38 100 100 100 100 100 100 89 100 100 100 100 100 100 100 100 100 72 93 100 100 100 100 92 100 93 28 93 12 75 40 5 7 60 61 5 5 0 0
72 51 67 70 60 76 100 100 100 98 100 100 100 100 100 100 100 100 100 100 100 100 100 100 100 100 100 100 100 98 85 100 100 100 14 8 17 78 96 22 4 0 0

GFSGL_prec_cloud_051.txt.gz
Cloud_Cover
100 100 100 100 5 37 5 95 100 97 5 63 100 100 92 98 50 75 8 41 62 100 36 0 0 10 97 94 97 100 100 100 100 100 100 100 100 100 100 92 33 16 60
100 100 100 57 30 60 95 96 92 6 26 71 35 26 44 5 5 5 0 100 37 22 76 14 78 100 85 49 44 47 56 33 89 100 100 100 100 100 100 92 28 93 4
88 100 100 100 97 98 79 92 75 89 93 41 31 0 1 5 4 3 10 3 5 5 14 52 25 10 54 86 65 48 56 65 100 100 100 100 100 100 98 100 89 32 15
95 91 100 100 98 20 5 40 96 96 54 5 5 5 1 0 20 55 23 8 2 2 1 3 3 17 6 32 16 52 7 39 98 100 100 100 100 100 91 79 91 72 24
94 100 100 100 43 4 3 6 100 70 100 10 4 4 1 4 0 0 3 4 5 5 5 10 5 5 17 5 10 48 52 36 66 77 69 68 92 90 65 40 73 31 59
100 100 100 100 74 53 81 100 94 95 100 47 5 5 5 2 5 2 5 4 5 5 5 5 28 49 6 6 15 38 23 20 37 44 20 20 5 5 5 30 5 11 6
92 95 46 97 100 100 100 99 99 95 80 62 52 47 4 5 5 5 5 5 5 5 5 5 6 5 6 26 5 24 47 19 31 68 5 11 40 8 4 5 49 44 0
95 39 75 100 100 100 100 100 100 100 100 100 77 50 98 5 49 5 5 5 16 5 5 5 5 5 5 54 88 90 65 22 36 46 16 9 5 5 1 1 0 6 0
100 96 41 100 100 100 100 100 100 100 100 100 100 100 100 100 31 5 3 5 5 5 8 58 38 6 20 24 84 84 54 29 5 5 6 20 17 5 5 3 5 5 1
100 100 100 100 100 100 100 100 100 100 100 100 100 100 100 100 100 58 2 5 5 5 5 39 14 14 70 56 5 5 5 5 5 5 5 5 5 5 5 7 5 7 5
100 100 100 100 100 100 100 100 100 100 100 100 100 100 100 100 100 100 100 82 67 13 7 16 48 20 18 5 5 5 15 5 4 5 6 100 95 20 5 25 50 39 32
20 100 100 100 100 100 100 100 100 100 100 100 100 100 98 100 99 100 100 100 100 100 88 78 99 83 5 5 4 5 5 13 17 85 96 100 75 12 5 5 5 4 3
1 33 90 100 100 100 100 100 100 100 100 100 100 100 100 100 100 100 100 100 100 100 100 100 100 100 100 87 21 29 54 99 99 100 100 60 13 5 5 28 5 0 0
100 100 91 44 100 100 100 100 100 100 100 100 100 100 100 100 100 100 100 100 100 100 100 100 100 100 100 84 19 72 100 98 62 88 80 5 5 5 5 3 2 0 0
90 100 100 100 100 100 100 100 100 100 100 100 100 100 100 100 100 100 100 100 100 100 100 100 100 100 100 88 100 100 100 93 80 8 5 9 5 1 8 6 4 0 0
99 100 100 100 100 100 100 100 100 100 100 100 100 100 100 100 100 100 100 100 100 100 100 100 100 100 100 100 100 100 100 48 5 5 5 5 5 5 4 1 0 0 0
0 13 92 100 100 100 100 100 100 100 100 100 100 100 100 100 100 100 100 100 100 100 100 100 100 100 100 100 100 100 50 5 5 5 5 5 5 0 0 3 0 5 5
0 0 0 5 60 95 100 100 100 100 100 100 100 100 100 100 100 100 100 100 100 100 100 100 100 100 100 100 100 100 97 5 5 5 5 5 1 0 0 5 2 4 4
2 0 1 49 11 91 100 100 100 100 100 100 100 100 100 100 100 100 100 100 100 100 100 100 99 97 90 88 100 70 4 5 5 6 0 2 2 2 1 32 46 1 2
5 0 0 5 6 12 98 100 100 100 100 100 100 100 100 100 100 100 100 100 100 100 100 100 100 85 24 99 100 93 5 3 5 5 7 58 26 95 42 5 2 2 0
18 14 0 4 8 5 96 99 93 98 56 99 100 100 100 100 100 100 100 100 100 100 36 62 8 47 65 100 98 62 51 5 5 5 21 99 95 99 41 5 5 2 0
65 98 80 5 2 13 7 60 96 100 47 36 10 38 100 100 83 66 61 100 86 46 79 85 80 20 100 100 10 100 54 5 24 49 51 24 6 52 13 5 5 5 0
14 6 25 27 39 43 8 55 79 100 22 54 46 43 99 100 100 100 99 82 81 87 96 100 83 98 100 99 53 6 100 82 94 66 93 93 100 75 5 9 5 5 11
7 4 14 36 16 5 6 97 94 22 99 100 100 96 95 71 86 92 42 92 100 100 100 100 100 100 81 86 90 77 99 99 100 100 100 100 100 94 74 85 19 47 39
55 78 13 6 10 5 5 5 58 100 100 98 100 98 100 100 100 100 95 100 100 100 100 100 100 100 95 73 44 99 99 96 100 100 100 100 100 100 100 100 100 100 57
82 12 5 10 84 71 50 12 99 100 100 99 74 70 99 96 100 97 100 100 100 100 100 100 100 100 100 100 100 100 100 100 98 100 100 100 100 100 100 100 100 100 100

GFSGL_prec_cloud_054.txt.gz
Cloud_Cover
100 100 100 100 100 98 68 49 66 14 10 5 13 93 100 90 19 6 5 14 85 98 56 5 2 1 38 39 25 79 100 100 100 100 100 100 100 100 97 76 70 5 9
100 100 100 100 100 100 89 96 97 84 63 96 18 5 5 72 100 100 52 26 85 51 2 5 8 6 49 80 100 98 32 93 100 100 100 100 100 100 100 100 62 6 10
100 100 100 100 100 100 99 100 100 100 100 100 64 9 24 8 28 18 0 6 5 10 5 5 5 15 36 92 100 95 70 98 100 100 100 100 100 100 97 100 53 78 35
14 98 100 100 100 100 100 18 11 46 81 90 93 52 41 5 16 5 0 0 6 56 5 5 5 6 8 34 26 68 98 100 97 100 100 100 100 100 100 100 99 76 33
0 79 100 100 100 100 100 100 94 100 87 12 67 89 60 80 6 5 5 4 0 4 5 36 65 17 5 7 16 64 24 94 99 100 100 100 100 92 91 98 54 4 8
5 94 100 100 100 100 100 100 100 100 20 5 69 72 98 100 31 5 5 5 52 5 5 5 5 5 5 40 69 88 100 99 28 98 86 95 62 63 90 14 5 5 5
4 44 100 100 100 100 100 100 100 94 100 100 100 76 95 100 14 30 13 61 96 35 5 12 5 5 5 5 18 58 22 38 34 59 63 7 34 10 7 24 6 22 19
0 17 100 100 100 100 100 100 100 100 100 100 100 100 100 98 100 94 34 14 5 5 5 5 5 5 64 12 7 33 65 49 30 5 29 25 5 65 5 5 4 2 1
0 43 100 91 100 100 100 100 100 100 100 100 100 100 51 82 100 100 100 81 5 5 5 5 5 5 5 12 47 68 38 22 10 6 5 5 8 1 1 2 2 4 5
7 17 99 100 100 100 100 100 100 100 100 100 100 100 100 69 55 44 98 100 100 100 79 5 3 8 2 5 5 5 5 5 32 34 5 5 5 5 3 5 11 67 74
0 1 44 100 100 100 100 100 100 100 100 100 100 100 100 92 71 52 44 33 61 100 100 56 22 20 49 6 5 16 50 100 74 53 58 92 18 9 5 5 39 8 40
0 0 3 69 100 100 100 100 100 100 100 100 100 100 100 100 100 82 98 84 57 76 100 47 98 100 100 91 86 79 92 57 66 20 100 96 85 12 8 28 6 88 68
27 53 88 56 99 100 100 100 89 100 100 100 100 100 100 100 100 100 100 84 19 43 100 100 95 100 100 100 100 100 96 100 8 61 94 56 36 96 100 100 34 8 5
100 100 100 97 94 86 100 100 100 100 100 100 100 100 100 100 100 100 100 100 97 99 100 100 100 100 100 100 100 99 100 71 66 95 100 100 100 51 100 48 28 16 5
100 100 100 100 100 96 84 100 100 100 100 100 100 100 100 100 100 100 100 100 99 100 100 100 100 100 100 100 100 100 100 86 100 100 100 100 100 100 98 72 7 5 5
1 0 4 20 43 100 96 80 57 95 100 100 100 100 100 100 100 100 100 100 100 100 100 100 100 100 100 100 100 100 100 100 95 100 100 100 100 100 57 13 3 4 5
5 5 5 10 33 99 100 100 100 46 94 100 100 100 100 100 100 100 100 100 100 100 100 100 100 100 100 100 100 100 100 100 100 100 97 58 100 35 7 5 5 0 1
5 5 1 3 2 7 73 100 100 100 99 93 100 100 100 100 100 100 100 100 100 100 100 100 100 100 100 100 100 100 100 99 99 98 100 100 59 5 5 5 4 4 5
5 5 0 0 0 8 9 39 100 100 100 99 94 100 100 100 100 100 100 100 100 100 100 100 100 100 100 89 100 100 100 100 100 100 98 75 5 5 5 8 19 17 5
5 0 4 2 0 0 2 9 26 90 30 34 23 52 99 100 100 100 100 100 100 100 100 100 100 100 100 100 100 100 100 100 100 83 30 8 5 5 23 12 8 5 13
6 0 0 0 4 5 5 9 2 15 20 93 99 97 100 78 14 68 46 100 100 100 100 100 100 100 100 100 100 100 100 100 96 31 5 7 6 62 73 89 100 86 22
6 1 2 5 5 1 4 75 100 56 19 20 20 7 43 14 87 100 100 55 12 42 47 12 52 40 47 89 99 100 100 24 20 19 67 41 68 30 38 35 99 100 53
11 11 3 5 48 89 20 5 6 36 96 100 92 50 30 54 19 16 20 12 54 5 27 21 10 69 99 100 100 100 100 98 91 100 96 100 76 89 90 90 94 100 100
28 25 60 29 29 62 15 5 4 27 10 5 20 99 100 5 10 90 76 83 74 95 100 83 71 66 100 87 100 100 100 100 100 100 95 100 100 100 100 100 100 100 100
51 87 98 97 79 20 5 14 79 84 77 47 20 90 63 20 71 57 100 100 100 100 100 100 100 100 100 100 100 100 100 100 100 100 100 98 100 100 100 100 100 100 100
8 10 10 6 5 5 5 6 64 98 95 100 100 38 75 75 84 94 93 100 100 100 100 100 100 100 100 100 100 100 100 100 100 100 100 100 100 100 100 100 100 100 100

GFSGL_prec_cloud_057.txt.gz
Cloud_Cover
1 100 100 100 100 100 100 100 72 100 21 94 100 100 49 100 100 100 100 100 100 90 100 90 61 32 47 37 20 81 100 100 100 100 100 100 100 96 65 100 88 79 48
2 30 100 100 100 100 100 100 84 100 94 100 100 79 91 40 76 44 65 78 100 70 19 12 32 5 46 56 52 96 100 100 100 100 100 100 100 100 83 100 63 67 7
1 2 81 100 100 100 100 100 100 100 100 98 89 59 38 7 10 7 89 97 5 4 3 27 12 47 28 33 50 95 100 100 97 100 100 100 100 100 100 100 100 100 77
5 0 5 88 100 100 100 100 100 100 100 46 5 4 20 67 78 5 5 5 5 5 3 22 89 100 25 27 83 99 95 100 100 100 100 100 100 100 100 100 100 100 98
31 8 5 0 100 100 100 100 100 100 100 100 85 7 5 31 100 26 12 5 5 5 5 5 27 5 8 5 24 91 100 100 100 100 100 100 100 100 100 98 100 100 29
0 3 5 0 46 81 100 100 100 100 100 100 100 100 6 5 86 60 5 18 5 5 36 5 14 11 5 66 73 56 84 65 98 100 100 100 100 100 100 69 31 38 15
36 5 2 1 14 100 100 100 100 100 100 100 100 100 100 100 77 50 98 100 84 28 5 5 7 6 28 64 51 61 83 83 99 82 78 88 84 92 77 98 34 13 44
21 100 47 2 13 100 100 100 100 100 100 100 100 100 100 100 100 100 100 100 76 64 29 13 11 27 14 41 58 6 93 76 86 89 44 73 73 70 49 59 25 6 17
100 100 100 11 50 67 100 100 100 100 100 100 100 100 100 100 100 100 100 100 100 99 58 24 98 40 33 9 22 5 5 5 10 31 11 38 74 32 87 21 6 8 12
100 92 12 15 10 20 100 100 100 100 100 100 100 100 100 100 100 100 100 100 100 99 100 32 45 59 88 57 10 10 10 36 27 5 6 81 13 44 5 16 5 5 5
95 3 0 5 4 0 65 100 100 100 100 100 100 100 100 100 100 100 100 100 76 59 97 100 100 100 100 100 96 94 100 84 63 6 11 16 94 79 98 5 5 5 5
5 4 3 6 1 14 29 100 100 100 100 100 100 100 100 100 100 100 100 100 99 100 99 100 100 100 100 100 100 100 100 100 98 92 77 100 100 100 60 21 15 41 67
18 71 84 54 46 52 81 100 100 100 100 100 100 100 100 100 100 100 100 100 91 96 91 100 100 100 100 100 100 100 100 100 100 100 100 100 74 98 51 99 100 29 49
100 95 100 100 100 100 99 100 100 100 100 100 100 100 100 100 100 100 100 100 100 100 100 100 100 100 100 100 89 93 100 100 100 100 100 99 86 100 100 100 100 78 6
71 54 35 83 97 100 90 100 98 96 97 100 100 100 100 100 100 100 100 100 100 100 100 99 98 100 100 100 100 100 100 100 100 100 100 100 100 100 100 100 100 52 35
5 9 7 15 28 42 71 46 53 88 100 100 100 100 100 100 100 100 100 100 100 100 100 100 100 100 100 100 100 100 100 100 100 100 100 100 100 100 100 100 100 98 100
0 0 0 20 29 33 28 25 15 28 96 100 100 100 100 100 100 100 100 100 100 100 100 100 100 100 100 100 100 100 100 100 100 100 100 100 100 98 59 100 100 100 100
0 5 0 5 5 16 28 24 19 21 39 83 89 100 100 100 99 100 100 100 100 100 100 100 100 100 100 100 100 100 100 100 100 100 100 100 100 100 100 100 100 100 99
0 3 4 4 1 14 10 23 25 8 42 92 87 67 98 83 100 100 100 100 100 100 100 100 100 100 100 100 100 100 100 100 100 100 100 100 100 100 100 99 98 75 9
6 13 15 28 62 11 10 22 26 29 28 29 30 23 6 26 98 88 68 100 100 100 100 100 100 100 100 100 100 100 100 100 100 100 100 100 76 95 78 21 15 59 81
83 40 17 25 23 13 11 11 10 21 25 26 22 36 90 42 93 89 75 97 98 98 57 98 100 100 100 100 88 96 100 100 99 100 100 96 62 100 86 45 95 92 92
36 41 85 78 5 7 8 10 5 8 12 17 6 27 30 7 14 26 12 9 16 48 73 55 91 100 100 83 89 100 100 100 100 100 100 100 100 100 100 100 100 100 100
70 85 100 30 20 22 8 20 46 59 8 3 4 27 64 45 70 19 35 13 29 32 44 77 61 56 62 49 79 100 95 98 100 100 100 100 100 100 100 100 100 100 100
3 3 20 10 15 19 10 9 0 10 68 5 6 31 60 14 80 96 87 8 28 41 86 7 48 86 100 100 100 100 100 100 100 100 100 100 100 100 100 100 100 100 100
27 6 22 32 15 3 81 36 17 8 33 5 18 96 63 96 73 28 32 56 19 22 100 100 99 100 100 100 100 100 100 100 100 100 100 100 100 100 100 100 100 100 100
94 80 87 100 91 51 18 6 79 15 58 78 31 70 92 99 94 100 95 95 95 100 91 100 92 100 100 100 100 100 100 100 100 100 100 100 100 100 100 100 100 100 100

GFSGL_prec_cloud_063.txt.gz
Cloud_Cover
100 100 100 100 100 59 100 98 100 100 100 100 100 100 98 5 12 51 92 55 91 97 100 97 100 100 100 100 100 64 99 100 100 100 100 100 100 100 100 100 100 87 100
100 100 100 100 88 44 5 77 100 100 100 100 100 100 100 60 48 97 100 95 42 98 100 100 100 100 100 100 100 100 42 100 100 100 100 100 100 100 100 89 92 78 89
100 99 96 75 79 15 5 28 90 74 86 95 100 100 100 92 100 97 100 100 90 22 99 100 98 67 100 99 100 100 88 100 100 100 100 100 100 100 84 90 100 100 98
79 97 87 10 5 26 29 13 5 23 100 100 71 99 100 100 100 100 100 100 86 93 100 100 100 65 97 100 98 94 87 95 100 100 100 100 100 100 100 99 88 89 57
94 69 68 17 16 79 32 74 38 13 50 100 100 86 25 75 100 100 100 100 99 62 68 52 29 33 30 59 81 100 80 96 100 100 100 100 100 100 89 73 99 87 100
11 5 15 99 98 5 38 31 96 100 100 100 100 100 100 72 83 100 100 99 100 100 100 64 49 100 66 62 57 93 100 100 100 100 100 100 100 100 100 100 100 100 100
5 71 19 5 5 6 12 32 44 60 91 99 100 100 100 100 100 70 38 75 100 100 94 100 100 100 100 97 97 100 100 100 100 100 100 96 95 100 100 100 100 100 100
100 58 11 6 5 22 70 45 57 76 93 80 100 100 100 100 100 100 76 25 11 65 94 96 94 100 100 100 100 84 91 91 60 100 100 100 99 78 100 95 100 100 100
17 65 100 20 5 35 67 100 100 88 99 100 100 100 97 100 100 100 100 100 100 100 100 100 100 100 100 100 56 23 60 93 57 87 74 90 100 99 79 100 99 100 98
5 49 27 5 6 52 96 100 94 100 88 85 97 78 100 100 100 100 100 100 100 100 100 100 100 100 100 100 100 66 56 93 99 68 39 100 100 100 100 100 100 97 100
21 52 100 99 58 84 72 89 56 78 81 84 94 99 100 100 100 100 100 100 100 100 100 100 100 100 100 100 100 82 87 57 16 59 96 99 100 100 100 100 96 98 100
96 99 56 92 100 100 90 91 90 80 92 83 90 94 100 100 100 100 100 100 100 100 100 100 100 100 100 100 96 68 64 76 69 52 64 92 100 100 93 97 100 99 94
100 100 100 100 100 100 100 100 100 88 64 94 100 61 68 99 100 100 100 100 100 100 100 100 100 100 100 100 100 99 99 100 100 100 97 100 100 100 100 100 100 100 100
100 100 100 100 100 100 100 85 55 100 100 88 55 97 99 59 100 100 100 100 100 100 100 100 100 100 100 100 100 100 100 100 100 100 94 100 100 100 100 100 100 100 100
100 100 100 81 64 80 82 16 5 17 31 89 94 100 100 99 100 94 94 100 100 100 100 100 100 100 100 100 100 100 100 100 100 100 100 100 100 100 100 100 100 100 98
100 100 100 69 67 68 7 6 93 89 100 100 100 97 95 92 100 100 100 100 100 100 100 100 100 100 100 100 100 98 100 100 94 93 100 100 100 100 100 100 100 100 100
100 100 100 74 62 8 1 5 5 33 100 100 100 100 100 97 100 100 100 100 100 100 100 100 100 100 100 94 90 100 100 100 100 100 100 100 100 100 100 100 100 100 100
100 100 17 5 5 5 5 5 4 4 6 5 73 85 90 100 80 95 100 99 100 100 100 100 100 100 100 100 100 100 84 93 100 100 100 100 100 28 84 100 100 71 78
100 100 85 83 5 12 5 2 4 0 4 1 6 57 91 90 51 97 100 100 99 100 100 100 100 100 100 100 100 100 100 100 100 100 100 100 100 98 100 100 87 85 73
100 100 97 65 43 26 9 0 1 36 4 5 75 90 100 29 62 80 100 100 98 98 100 100 100 100 100 100 100 100 100 100 100 100 100 100 100 96 97 100 96 100 99
100 81 98 8 21 5 8 26 8 68 31 70 99 78 98 5 5 5 5 16 4 19 69 98 100 100 100 100 100 100 100 100 99 100 100 100 100 100 100 98 97 96 86
93 95 97 79 60 4 23 36 99 100 100 98 5 34 100 68 5 4 4 3 4 24 45 63 30 21 5 39 98 100 100 100 97 99 95 100 100 100 100 100 100 100 70
100 78 52 59 100 100 100 100 100 96 86 82 39 6 29 20 3 0 0 5 11 38 66 75 16 74 90 100 100 100 100 98 100 100 100 100 100 100 100 100 100 100 100
100 100 100 100 100 98 100 100 56 35 76 76 99 43 3 2 44 18 2 7 18 50 96 98 84 49 74 28 24 60 57 66 70 99 100 100 100 100 100 100 100 100 100
100 100 100 100 100 100 98 83 97 97 99 83 32 44 81 62 59 72 91 86 82 70 64 90 100 100 100 100 100 100 100 100 100 100 100 100 100 100 100 100 100 100 100
100 100 100 100 100 100 100 98 100 100 100 100 100 100 90 100 100 41 80 94 83 84 100 100 100 100 100 100 100 100 100 100 100 100 100 100 100 100 100 100 100 100 100

GFSGL_prec_cloud_066.txt.gz
Cloud_Cover
45 39 100 100 100 100 100 77 100 100 100 100 100 100 100 100 100 100 97 90 100 94 99 100 100 91 59 77 100 100 100 100 90 100 100 100 100 100 99 100 100 91 34
70 51 31 86 92 100 97 28 98 65 100 100 100 73 95 100 100 82 100 100 78 92 100 96 100 91 97 82 95 100 100 67 45 100 100 100 100 100 100 100 100 100 50
79 89 17 53 80 58 28 5 1 75 97 100 100 100 91 57 100 100 100 100 100 100 99 100 100 100 98 100 95 99 74 58 52 100 100 100 100 100 100 64 88 64 82
68 100 27 39 34 7 5 19 22 31 40 100 62 100 100 94 76 39 97 100 100 100 100 100 100 100 100 100 100 98 100 48 100 100 100 100 100 100 96 85 78 59 52
85 100 100 35 54 9 13 5 20 13 14 29 52 100 100 99 97 81 45 30 91 100 100 100 100 100 100 98 100 91 100 100 100 100 100 100 100 100 92 100 97 100 81
88 12 24 20 76 92 21 9 17 34 37 36 41 70 96 100 100 100 15 5 51 100 100 99 98 96 70 70 100 99 100 100 97 100 100 100 100 86 100 100 100 98 100
88 74 72 26 18 24 32 58 54 48 71 77 73 59 100 100 100 100 100 97 74 49 93 91 98 100 96 98 100 100 92 91 99 100 100 100 100 97 90 100 97 94 100
70 10 10 20 25 41 43 83 99 99 100 88 88 72 76 100 100 100 100 100 73 14 22 19 14 99 80 32 98 100 96 98 98 100 100 95 100 97 100 100 99 100 100
40 67 96 56 67 34 94 65 66 96 76 98 98 99 85 100 100 100 100 100 100 100 100 100 100 100 100 100 100 100 100 100 100 100 94 84 94 98 82 100 100 100 100
100 34 44 52 33 92 63 58 100 100 36 40 99 85 85 89 99 100 100 100 100 100 100 100 100 100 100 100 100 100 100 100 100 100 100 100 99 99 92 87 79 88 99
100 100 100 100 87 89 96 82 84 27 26 44 40 100 98 99 76 84 100 100 100 100 100 100 100 100 100 100 100 100 100 100 100 100 100 98 99 100 88 100 100 100 99
100 100 100 100 100 100 98 78 100 97 56 61 29 94 99 79 85 66 68 100 100 100 100 100 100 100 100 100 100 100 100 100 96 98 98 100 100 100 100 100 100 100 100
100 100 100 100 100 100 100 100 33 74 66 100 74 51 100 83 80 91 55 100 100 100 100 100 100 100 96 90 72 98 100 98 100 100 100 100 100 100 100 100 100 100 100
100 100 100 100 100 100 100 100 100 100 99 37 80 92 96 98 74 99 74 51 80 99 100 100 100 100 100 100 100 100 100 100 100 100 100 100 100 100 100 100 100 100 100
100 100 100 100 100 100 100 100 39 85 100 100 90 88 54 78 62 96 100 99 99 77 71 91 100 100 100 100 100 100 100 100 100 100 100 100 100 97 98 100 100 100 100
100 100 100 100 100 100 100 95 62 100 100 100 100 91 93 85 100 100 100 100 100 100 100 100 100 100 100 100 99 98 100 90 95 100 100 100 100 100 99 100 100 100 100
100 100 100 100 100 94 100 100 99 63 100 100 100 100 100 97 100 100 100 100 100 100 100 100 100 100 100 100 100 100 100 100 100 100 100 100 100 100 100 97 84 100 85
100 100 100 100 100 100 100 14 73 39 24 13 74 76 97 100 100 100 100 89 95 94 100 100 100 100 100 100 100 100 100 100 100 100 100 100 100 100 100 100 100 100 100
100 100 100 100 100 100 93 98 94 22 28 66 59 62 59 99 61 82 100 42 51 44 82 89 100 100 100 100 100 100 100 100 100 100 100 100 100 100 100 100 100 100 100
100 100 100 100 100 100 100 100 100 100 100 84 93 99 67 22 45 99 69 67 67 5 34 100 100 100 100 100 100 100 100 100 100 100 100 100 100 100 100 100 100 100 100
100 100 100 100 100 100 100 100 100 100 75 100 86 20 90 0 62 96 84 99 96 98 98 35 100 58 47 88 82 73 100 100 100 100 100 100 100 100 100 100 100 100 100
100 100 100 100 100 100 100 100 100 99 82 52 11 20 71 18 99 91 99 98 90 81 100 96 98 99 100 98 100 96 42 45 56 100 100 100 100 100 100 100 100 100 100
100 100 100 100 100 100 95 95 82 95 84 100 100 100 99 93 100 100 100 100 100 91 37 42 84 90 81 66 81 71 100 100 100 100 100 100 100 100 100 100 100 100 100
100 100 100 100 100 100 100 100 91 46 94 100 93 97 100 100 100 97 100 100 99 98 86 83 100 100 100 100 100 100 100 100 100 99 100 98 99 100 100 100 100 100 100
100 100 100 100 100 100 100 100 100 99 98 100 100 79 85 100 97 72 88 78 100 100 100 98 100 100 100 97 94 90 96 94 91 75 98 100 100 100 100 100 100 100 100
100 100 100 100 100 100 100 100 100 100 100 100 100 100 100 100 100 100 100 94 87 85 53 54 84 75 62 65 15 64 76 95 55 87 16 49 31 11 52 100 100 100 100

GFSGL_prec_cloud_069.txt.gz
Cloud_Cover
6 85 22 78 99 100 100 100 100 100 73 75 100 99 100 100 100 100 100 100 100 100 91 97 95 86 94 86 100 100 100 100 100 100 100 100 100 99 100 100 92 63 34
96 57 62 68 100 100 100 100 100 96 100 86 18 84 100 100 100 100 100 100 100 100 100 97 100 100 68 95 100 100 100 100 100 100 100 100 100 100 100 96 99 99 39
94 100 91 100 100 78 72 25 39 16 69 100 97 100 100 100 100 100 100 100 100 100 100 100 87 100 100 97 100 100 100 100 100 100 100 100 100 97 100 99 100 100 72
88 100 29 80 100 99 37 15 58 22 49 76 78 100 100 100 100 100 100 100 99 99 100 100 100 89 99 74 100 100 100 100 100 100 100 100 100 100 100 100 100 34 51
100 97 42 74 88 56 40 15 100 100 90 97 100 97 100 100 100 100 100 100 100 100 100 96 98 100 100 100 100 100 92 97 100 86 100 100 100 100 67 94 96 82 42
100 78 100 100 87 90 100 93 72 100 99 100 100 100 34 33 58 100 100 68 88 45 95 47 52 81 100 100 100 100 100 100 100 100 100 100 100 100 100 69 99 100 99
20 11 5 32 100 100 99 100 100 58 39 100 87 99 43 7 9 94 100 94 100 99 33 70 100 73 100 96 94 100 100 100 100 89 98 92 100 100 100 89 100 100 100
100 55 44 72 100 98 100 100 100 74 82 100 87 99 55 38 33 100 86 100 95 98 100 99 77 74 65 96 99 100 100 80 99 100 100 100 100 86 100 87 100 100 89
100 49 70 28 88 71 76 100 99 100 100 100 98 100 35 67 42 99 99 100 100 100 100 100 83 100 95 64 20 80 100 99 100 100 100 100 100 100 100 100 100 100 100
60 11 14 23 100 99 100 58 100 95 95 10 47 86 92 91 76 50 100 100 100 100 100 100 100 100 100 100 100 100 100 100 100 100 100 100 100 100 100 100 100 100 100
73 12 64 49 88 8 20 100 64 30 5 20 63 14 94 44 70 22 82 100 100 100 100 100 100 100 100 100 99 100 100 100 100 100 100 100 100 100 100 100 92 80 76
69 99 71 79 83 83 84 100 65 29 11 45 100 35 48 61 40 59 53 99 75 41 100 100 100 100 100 100 100 100 100 100 100 100 100 100 100 100 100 100 100 96 100
97 91 100 100 100 100 100 100 100 100 98 44 63 94 48 5 62 95 100 100 84 59 51 100 100 100 100 98 98 100 98 99 100 99 100 100 100 100 100 100 100 100 100
99 24 90 100 100 100 100 92 90 100 100 57 100 100 48 34 56 63 45 39 83 46 96 46 50 69 100 100 100 100 99 100 100 100 100 100 100 100 100 100 100 100 100
91 84 100 98 66 91 100 100 100 95 80 58 70 100 53 38 70 70 99 98 88 100 100 81 92 83 68 90 76 99 100 100 100 96 96 95 99 100 100 100 99 100 100
100 100 100 100 100 98 100 100 100 100 100 100 100 59 35 79 100 100 98 100 100 100 100 100 100 100 100 100 100 90 100 100 100 100 100 100 99 100 100 98 100 100 95
100 100 100 100 100 100 100 100 100 100 100 100 100 100 96 96 100 99 100 100 100 96 100 100 100 99 75 100 100 100 98 100 100 100 100 100 100 100 100 100 100 100 100
100 100 100 100 100 100 100 100 100 100 100 100 95 42 97 100 100 100 100 86 17 60 46 81 100 100 100 100 100 100 100 100 100 100 100 100 100 100 100 100 100 100 100
100 100 100 100 100 100 100 100 100 100 100 100 91 89 100 100 100 99 100 5 6 65 99 53 96 97 100 100 100 100 100 100 100 100 100 100 100 100 100 100 100 100 100
100 100 100 100 100 100 100 100 100 100 100 100 90 100 100 24 96 99 93 100 99 100 100 48 31 69 100 99 100 100 84 87 99 100 97 83 100 100 100 100 100 100 100
100 100 100 100 100 100 100 100 100 100 100 100 100 100 100 100 100 100 100 100 100 100 100 100 98 69 99 49 98 90 81 60 83 94 90 100 100 100 100 100 100 100 100
100 100 100 100 100 100 100 100 100 100 100 100 100 100 100 100 100 100 100 100 100 100 67 5 80 100 100 98 90 70 20 48 65 93 100 97 100 100 100 100 100 100 100
100 100 100 100 100 100 100 100 100 100 86 99 68 54 100 100 90 94 89 47 64 75 33 32 60 40 33 19 58 74 59 79 100 100 100 100 100 100 100 100 100 100 100
100 100 100 100 100 100 100 100 100 100 100 100 100 100 75 76 67 73 92 90 93 98 98 80 61 96 22 15 58 100 87 22 29 34 18 64 68 55 75 99 100 100 100
100 100 100 100 100 100 100 100 100 100 100 100 100 100 100 100 100 100 100 100 100 95 84 68 41 42 85 60 10 3 74 100 28 67 50 98 100 100 89 83 50 32 33
100 100 100 100 100 100 100 100 100 100 100 100 100 100 100 100 100 100 100 100 100 100 100 66 31 51 77 56 4 69 100 100 55 100 12 84 87 70 13 57 74 79 64

GFSGL_prec_cloud_075.txt.gz
Cloud_Cover
0 0 0 0 2 11 5 96 100 100 100 100 100 100 100 100 100 100 100 100 100 100 100 100 100 100 100 100 100 100 100 100 100 100 100 100 100 100 100 99 99 76 100
0 0 0 0 5 4 5 65 100 100 100 100 100 100 100 100 100 96 68 73 100 100 100 100 99 100 100 100 100 100 100 100 100 100 100 100 100 100 100 95 100 100 100
0 0 0 0 0 5 2 5 100 87 100 93 98 46 48 90 81 96 55 6 26 58 100 100 100 100 100 100 100 100 100 100 100 100 100 100 100 100 100 99 99 100 100
0 0 0 0 0 95 33 5 18 97 99 59 30 82 92 58 14 57 7 0 3 5 24 95 100 100 100 100 100 100 100 100 100 100 100 100 100 100 100 100 100 100 100
0 0 0 0 0 32 9 5 0 5 16 95 100 69 58 48 5 45 83 8 4 5 5 37 94 100 100 100 100 100 100 100 100 100 100 100 100 100 100 100 100 100 100
0 0 0 0 0 5 52 7 5 0 1 5 5 40 18 5 5 4 29 2 8 30 5 5 90 100 100 100 100 100 100 100 100 100 100 100 100 100 100 100 100 100 100
5 63 25 3 4 1 3 7 40 5 4 26 12 12 23 5 5 4 5 5 6 20 55 18 75 44 36 99 100 100 100 100 100 100 100 100 100 100 100 100 100 100 100
100 99 88 61 18 2 1 50 5 22 57 55 31 4 0 0 1 1 7 3 28 8 71 85 81 66 92 82 87 37 32 70 98 100 100 100 100 100 100 100 100 100 100
100 100 100 100 100 99 53 100 100 100 100 100 84 18 1 0 3 2 0 0 0 0 71 14 84 53 68 98 66 75 64 28 81 100 100 100 98 100 100 100 100 100 100
100 100 100 100 100 100 100 100 100 100 100 100 98 5 5 62 71 12 2 2 3 0 5 32 100 98 100 97 94 40 46 21 91 79 96 88 99 42 100 100 100 100 100
100 100 100 100 100 100 100 100 100 100 100 100 100 42 6 12 37 100 100 1 9 10 9 0 1 79 94 98 29 75 61 100 100 97 90 99 100 100 100 100 100 100 100
100 100 100 100 100 100 100 100 100 100 100 100 100 100 87 100 39 99 100 78 0 10 8 2 0 3 46 21 36 5 64 80 75 90 100 100 100 100 100 95 99 100 100
100 100 100 100 100 100 100 100 100 100 100 100 100 100 100 100 93 92 79 100 100 14 5 48 0 0 4 5 5 36 32 5 9 12 26 64 100 100 100 100 100 100 100
100 100 100 100 100 100 100 100 100 100 100 100 100 100 100 100 98 100 100 100 100 95 45 12 1 2 0 42 4 4 10 5 10 8 22 48 16 12 12 58 100 88 99
100 100 100 100 100 100 100 100 100 100 100 100 100 100 100 100 100 86 59 36 36 60 46 14 50 6 9 16 32 95 67 18 43 61 40 84 95 67 100 24 94 92 100
100 100 100 100 100 100 100 100 100 100 100 100 100 100 100 100 100 100 100 100 100 100 64 86 71 69 100 100 100 100 100 96 97 48 33 62 100 100 100 99 98 100 100
100 100 100 100 100 100 100 100 100 100 100 100 100 100 100 100 100 100 100 100 100 91 52 99 28 25 20 21 60 100 98 98 94 100 99 100 100 99 100 99 100 100 100
100 100 100 100 100 100 100 100 100 100 100 100 100 100 100 100 100 100 100 100 100 90 7 5 18 41 92 87 45 100 100 99 100 91 99 96 100 100 97 99 100 100 100
100 100 100 100 100 100 100 100 100 100 100 100 100 100 100 100 100 100 100 100 100 87 42 36 30 96 85 88 77 97 64 18 58 96 85 85 64 76 83 96 99 87 68
100 100 100 100 100 100 100 100 100 100 100 100 100 100 100 100 100 100 100 100 98 65 44 83 98 97 97 93 73 77 78 92 96 97 100 100 98 100 100 99 100 96 44
79 72 100 100 100 100 100 100 100 100 100 100 100 100 100 100 100 100 100 100 84 58 81 61 100 100 68 64 98 50 98 100 88 100 89 48 95 46 72 99 100 100 100
35 27 90 100 100 100 100 100 100 100 100 100 100 100 100 100 100 100 100 100 99 92 55 20 40 97 89 62 45 48 73 99 17 4 3 3 3 7 20 79 100 100 100
55 10 100 100 100 100 100 100 100 100 100 100 100 100 100 100 100 100 100 100 100 100 76 70 88 92 56 55 44 43 76 100 94 98 100 100 100 94 100 100 100 86 80
95 91 73 100 100 100 97 87 100 100 100 100 100 100 100 100 100 100 100 100 100 100 100 100 91 98 96 42 96 100 100 100 100 100 100 100 100 100 100 100 94 94 100
100 100 100 100 100 100 100 100 100 100 100 100 100 100 100 100 100 100 100 100 100 100 100 100 90 98 91 92 86 100 100 100 100 80 100 100 100 91 56 3 5 76 63
100 100 100 100 100 100 100 99 96 100 100 100 100 100 100 100 100 100 100 100 100 100 100 100 100 100 100 100 100 100 100 100 100 100 95 46 5 2 14 4 4 5 2

GFSGL_prec_cloud_078.txt.gz
Cloud_Cover
0 0 0 0 0 0 0 1 5 8 4 84 97 68 100 100 100 100 100 100 100 100 94 86 100 79 100 100 100 100 100 100 100 100 90 100 100 100 100 100 100 100 100
0 0 0 0 0 0 0 1 5 1 5 43 47 80 60 100 100 100 100 100 100 100 100 100 100 100 100 100 100 100 100 100 100 100 100 100 100 100 100 100 100 65 84
15 0 0 0 3 0 0 0 0 0 5 5 87 89 32 88 100 100 100 100 100 100 100 100 100 100 97 100 100 100 100 100 100 100 100 100 100 100 100 100 100 43 46
0 0 0 0 0 0 0 0 0 4 1 0 4 5 5 7 31 28 48 40 33 83 96 100 100 100 70 97 100 100 100 100 100 100 100 100 100 100 100 100 100 96 97
9 0 0 0 0 0 0 36 31 47 12 9 2 55 100 100 98 95 92 100 100 6 6 20 26 12 81 86 99 100 100 100 100 100 100 100 100 100 100 100 100 100 100
99 5 1 3 0 2 6 98 100 98 96 100 100 98 92 68 82 72 100 100 99 13 20 5 51 87 87 100 84 40 75 100 100 100 100 100 100 100 100 100 100 100 100
100 100 100 100 100 100 100 100 100 100 100 95 100 100 100 100 91 5 7 55 100 100 100 95 91 53 61 89 53 45 99 100 100 100 100 100 100 100 100 100 100 100 100
100 100 100 100 100 100 100 100 100 100 100 100 100 100 100 100 86 100 97 45 92 58 100 95 100 70 88 88 97 76 93 61 94 89 96 100 100 100 100 100 100 100 100
100 100 100 100 100 100 100 100 100 100 100 100 100 100 100 100 82 10 54 8 6 64 98 100 93 100 100 100 100 100 99 100 100 100 98 43 100 100 100 100 100 100 100
100 100 100 100 100 100 100 100 100 100 100 100 100 100 100 100 100 100 8 95 2 53 68 23 54 98 96 86 81 88 68 38 92 100 100 100 100 100 100 100 100 100 100
100 100 100 100 100 100 100 100 100 100 100 100 100 100 100 100 100 100 100 100 4 5 4 5 14 81 100 100 100 15 6 81 58 88 78 40 98 77 85 49 92 100 100
14 100 100 100 100 100 100 100 100 100 100 100 100 100 100 100 100 100 100 100 35 96 11 5 42 56 82 76 78 69 5 5 12 10 14 20 25 52 52 77 80 100 100
100 100 100 100 100 100 100 100 100 100 100 100 100 100 100 100 100 100 100 100 100 67 43 51 5 31 99 100 68 12 98 5 7 5 6 6 10 5 6 22 15 7 5
10 100 100 100 100 100 100 100 100 100 100 100 100 100 100 100 100 100 100 100 100 100 93 96 84 42 41 94 83 29 5 5 6 5 5 4 1 5 9 37 45 88 100
9 100 100 89 100 100 100 100 100 100 100 100 100 100 100 100 100 100 100 100 100 97 99 68 70 28 70 46 58 83 72 49 54 70 84 83 68 53 23 27 78 91 100
100 100 100 99 100 100 100 100 100 100 100 100 100 100 100 100 100 100 100 100 100 100 94 100 85 82 100 87 100 100 100 93 100 100 76 77 95 100 89 100 72 94 79
100 100 100 100 100 100 100 100 100 100 100 100 100 100 100 100 100 100 100 100 100 100 100 100 100 100 89 99 100 100 100 100 100 100 100 100 99 100 100 100 100 98 100
100 100 100 100 100 100 100 100 100 100 100 100 100 100 100 100 100 100 100 100 100 100 100 100 100 100 84 75 100 100 100 99 100 95 95 91 100 99 98 99 96 98 99
100 100 100 100 100 100 100 100 100 100 100 100 100 100 100 100 100 100 100 100 100 100 100 100 100 100 99 100 100 98 100 100 100 100 100 100 100 100 100 98 100 84 86
100 100 100 100 100 100 95 100 100 100 100 100 100 100 100 100 100 100 100 100 100 100 100 100 71 100 100 100 100 100 100 100 100 100 100 100 100 100 100 100 100 93 86
5 68 100 100 100 100 100 100 100 100 100 100 100 100 100 100 100 100 100 100 100 100 100 79 82 97 100 100 100 100 100 100 100 100 100 100 100 100 100 94 94 100 100
0 5 9 77 100 100 98 100 100 100 100 100 100 100 100 100 100 100 96 97 100 100 99 100 97 94 54 100 100 99 96 91 99 100 100 100 98 75 23 13 4 45 60
32 20 33 7 8 18 93 100 100 100 100 100 100 100 100 100 100 100 100 100 87 97 100 99 89 11 21 34 61 42 70 47 45 56 52 29 49 76 72 11 22 30 25
100 100 69 75 21 71 34 98 100 100 100 100 100 100 100 100 100 100 100 100 100 100 100 96 99 39 49 26 16 10 84 88 88 31 78 85 81 94 22 47 83 99 100
95 100 100 100 100 100 100 100 50 99 69 100 100 100 100 100 100 100 100 100 100 100 100 100 100 100 100 100 100 100 96 94 56 97 64 95 74 100 100 100 100 100 98
100 100 100 100 100 100 100 100 100 100 83 100 100 100 97 100 96 100 100 100 100 100 100 100 100 100 100 100 100 100 100 100 100 100 100 100 100 100 100 62 5 3 4

GFSGL_prec_cloud_081.txt.gz
Cloud_Cover
100 100 100 100 0 0 0 0 0 5 71 100 58 76 100 100 100 100 82 83 94 100 99 100 99 86 100 95 99 91 100 100 100 100 100 100 100 100 100 97 100 100 100
100 100 31 0 2 4 0 0 0 0 5 6 6 5 29 100 100 100 100 100 100 100 100 100 100 100 95 90 100 100 100 100 100 100 100 100 100 100 100 100 100 100 100
100 92 11 8 15 10 0 5 2 1 2 20 4 4 5 32 6 58 99 100 100 100 100 100 100 100 100 100 100 100 100 100 100 100 100 100 100 100 100 100 100 100 100
100 100 100 31 12 9 26 57 90 63 90 100 100 92 11 35 75 97 24 45 100 100 100 100 100 100 98 100 100 100 100 100 100 100 100 100 100 100 100 100 100 100 100
99 99 100 99 100 100 100 100 100 100 100 100 100 100 100 94 100 82 100 27 52 100 99 100 100 100 100 100 95 92 100 100 100 100 100 100 100 100 100 100 100 100 100
100 100 100 100 100 100 100 100 100 100 100 100 100 100 100 100 100 100 99 97 71 5 78 88 97 83 100 93 95 100 100 100 100 100 100 100 100 100 100 100 100 100 100
100 100 100 100 100 100 100 100 100 100 100 100 100 100 100 100 100 76 100 67 79 86 50 0 4 5 48 98 95 97 100 100 100 100 100 100 100 100 100 100 100 100 100
100 100 100 100 100 100 100 100 100 100 100 100 100 100 100 99 87 100 100 78 66 25 9 5 55 7 88 85 99 100 79 91 100 100 100 100 100 100 100 100 100 100 100
100 100 100 100 100 100 100 100 100 100 100 100 100 100 100 100 100 100 100 100 100 31 98 32 31 3 44 97 18 10 98 79 84 100 99 97 48 37 97 100 100 100 100
100 100 100 100 100 100 100 100 100 100 100 100 100 100 100 100 100 100 100 100 99 3 4 2 29 31 63 84 17 51 6 60 75 60 87 69 46 8 58 95 100 100 100
100 100 100 100 100 100 100 100 100 100 100 100 100 99 100 100 100 100 41 89 67 46 6 47 0 1 0 7 46 20 86 93 100 95 81 85 93 29 28 81 100 100 100
100 100 100 100 100 100 100 100 100 100 100 100 98 99 100 100 100 100 100 100 92 100 68 75 9 3 0 2 24 7 34 5 33 65 91 25 70 70 56 39 52 74 96
100 100 97 100 86 68 100 42 100 100 100 100 43 68 100 100 100 100 100 100 99 100 98 53 5 40 36 13 5 7 5 5 10 38 81 81 7 5 6 37 39 38 56
99 63 32 13 36 91 91 75 100 100 100 100 100 100 100 100 100 100 100 100 100 100 100 93 20 38 80 7 64 10 5 8 56 19 30 80 99 100 100 88 71 100 100
86 100 92 71 97 100 98 100 100 100 100 100 100 100 100 100 100 100 100 100 100 100 100 73 56 88 20 22 85 100 66 80 17 38 93 50 100 100 100 100 89 100 100
100 98 100 97 100 100 100 100 100 100 100 100 100 100 100 100 100 100 100 100 100 100 92 100 95 100 92 100 99 99 65 89 99 100 99 100 100 96 95 100 100 94 100
52 48 80 100 100 100 81 88 100 100 100 100 100 100 100 100 100 100 100 100 100 95 98 99 99 100 100 100 99 100 100 100 100 100 100 100 100 100 100 100 93 100 100
96 70 54 100 100 100 100 100 100 100 100 100 100 100 100 100 100 100 100 100 100 100 100 92 99 99 100 100 100 100 100 100 99 100 100 100 88 99 100 100 100 100 100
36 22 100 88 100 100 100 100 100 100 100 100 100 100 100 100 100 100 100 100 100 100 100 100 97 92 80 84 75 93 90 98 100 95 100 100 100 100 100 100 97 90 89
8 7 93 91 100 100 100 100 100 100 100 100 100 100 100 100 100 100 100 100 100 100 100 100 100 100 100 100 100 92 96 92 59 66 100 100 96 100 100 100 100 100 100
20 8 5 92 93 100 100 100 100 100 99 100 100 100 100 100 100 100 100 100 100 100 100 100 100 100 91 100 100 99 76 17 17 18 15 11 7 30 11 56 99 100 100
17 13 9 19 91 97 100 100 100 100 100 100 100 100 100 100 100 100 100 100 100 100 100 100 98 100 100 100 100 100 100 77 34 53 97 100 94 74 51 47 38 37 26
20 4 12 96 68 96 81 36 99 100 100 100 100 100 100 100 100 100 100 100 100 100 100 100 100 100 100 100 100 100 64 18 8 51 59 57 55 22 42 60 54 17 5
84 8 31 100 100 100 100 98 100 100 100 100 100 100 100 100 100 100 100 100 100 100 100 100 100 100 100 100 100 91 96 61 91 36 77 100 74 10 54 35 84 99 100
100 96 99 100 100 100 100 100 100 100 100 100 100 100 100 100 100 100 100 100 100 100 100 100 100 100 100 100 100 100 100 100 100 100 100 100 100 96 99 97 97 99 97
100 100 100 100 90 100 100 100 100 100 100 100 100 100 100 100 100 100 100 100 100 100 100 100 94 66 88 98 87 27 37 40 21 13 18 14 4 5 3 3 2 2 0

GFSGL_prec_cloud_084.txt.gz
Cloud_Cover
100 100 100 100 100 35 0 0 0 0 1 1 0 1 6 100 100 100 100 100 100 69 98 82 100 100 100 100 100 100 100 100 100 100 100 100 100 100 100 100 100 100 100
100 100 100 100 80 91 0 0 0 0 0 4 10 4 0 0 9 90 100 100 95 100 99 98 74 97 70 100 100 100 100 100 100 100 100 100 100 100 100 100 100 100 100
100 100 100 99 100 100 55 1 0 0 0 0 2 3 5 4 46 96 99 100 100 100 100 100 100 100 100 100 100 100 100 100 100 100 100 100 100 100 100 100 100 100 100
100 100 100 100 100 100 100 99 6 22 4 3 1 3 1 1 13 100 100 92 100 57 43 100 100 34 9 67 88 64 100 100 100 100 100 100 100 100 100 100 100 100 100
100 100 100 100 100 100 100 100 96 96 100 100 100 99 79 21 2 20 100 29 94 100 66 36 95 100 100 100 72 46 53 96 93 100 100 100 100 100 100 100 100 100 100
100 100 100 100 100 100 100 100 31 86 100 96 100 100 100 100 100 100 25 39 100 100 67 7 4 5 12 5 7 5 10 81 91 99 100 100 100 100 100 100 100 100 100
100 100 100 100 100 100 100 100 100 90 48 80 36 92 100 100 100 95 100 66 64 52 22 5 10 3 1 5 62 98 100 93 87 73 95 82 100 82 100 100 100 100 100
100 100 100 100 100 100 100 100 100 100 100 100 17 6 34 4 5 5 14 72 92 100 86 5 9 5 5 5 55 100 100 60 93 100 100 100 72 79 100 100 100 100 100
100 100 100 100 100 100 100 100 100 100 100 100 100 100 88 1 42 22 91 93 31 96 81 2 6 4 19 26 29 99 100 89 80 100 100 98 100 100 100 100 100 100 100
100 100 100 100 100 100 100 100 100 100 100 100 100 100 100 83 100 94 69 95 59 99 100 6 9 1 69 45 5 30 11 47 57 72 75 88 30 33 46 100 95 100 100
100 100 100 100 100 100 100 100 100 100 100 100 100 100 100 100 93 98 63 100 100 25 13 73 7 21 100 100 49 3 4 7 50 21 44 64 53 42 28 25 93 100 100
100 100 100 100 100 100 100 100 100 100 100 100 100 100 100 100 100 100 100 100 99 68 42 64 97 58 100 100 68 74 100 29 41 43 74 96 81 99 78 42 30 13 48
100 100 100 100 100 100 100 100 100 100 100 100 100 100 100 91 100 100 100 100 100 100 100 50 80 94 38 25 1 0 5 22 17 57 41 29 33 84 38 66 58 45 95
100 100 100 100 100 100 100 100 100 100 100 100 85 98 100 100 100 100 100 100 100 100 100 36 14 36 14 1 0 1 5 1 5 5 5 10 15 89 67 97 100 100 100
100 99 100 100 100 94 87 100 100 100 100 100 76 36 88 100 100 100 100 100 100 100 100 98 100 100 15 5 7 17 51 19 28 88 22 10 20 66 90 50 95 100 100
98 86 100 100 100 100 100 100 100 100 100 100 100 71 100 100 100 100 100 100 100 100 100 100 100 92 100 64 25 68 86 73 99 79 94 90 93 100 54 62 78 93 91
32 38 100 100 88 100 100 100 100 100 100 100 100 100 100 100 100 100 100 100 100 100 100 100 100 100 100 100 100 100 100 100 94 67 100 100 100 100 92 100 100 100 100
5 47 34 64 99 96 100 100 100 100 100 100 100 100 100 100 100 100 100 100 100 100 100 100 100 100 100 100 100 100 100 100 100 100 100 100 100 100 100 100 100 100 100
3 2 1 22 99 94 100 100 100 100 100 100 100 100 100 100 100 100 100 100 100 100 100 100 100 100 100 100 100 100 100 94 91 97 100 91 83 98 100 100 100 100 100
4 0 4 17 16 48 98 100 94 100 100 100 100 100 100 100 100 100 100 100 100 100 100 100 100 100 100 100 100 100 100 100 100 97 100 70 99 99 93 100 100 100 100
6 1 0 0 18 5 53 100 100 100 100 100 100 100 100 100 100 100 100 100 100 100 100 100 100 100 100 100 100 100 100 100 100 100 98 49 93 95 90 67 98 81 84
9 0 11 0 0 12 100 100 100 99 93 100 100 100 100 100 100 100 100 100 100 100 100 100 100 100 100 100 100 100 100 100 99 56 46 35 68 70 75 78 85 80 100
64 6 5 5 4 28 36 99 100 100 100 100 100 100 100 100 100 100 100 100 100 100 100 100 100 100 100 100 100 100 100 100 100 100 100 100 100 100 100 74 85 95 100
69 65 7 96 91 48 100 97 100 100 100 100 100 100 100 100 100 100 100 100 100 100 100 100 100 100 100 100 100 100 100 100 100 100 100 100 100 99 98 100 100 100 100
100 100 100 100 100 100 90 100 100 100 100 100 100 81 100 100 100 100 100 100 100 100 100 100 100 100 100 100 100 100 100 100 100 100 100 100 98 100 44 78 18 68 2
100 100 100 100 100 100 100 100 100 100 100 100 100 100 100 100 100 100 100 100 100 100 100 100 100 100 100 100 100 100 100 100 100 98 96 51 34 13 16 3 0 0 0

GFSGL_prec_cloud_087.txt.gz
Cloud_Cover
100 100 100 100 100 100 100 67 0 0 0 0 0 4 5 73 100 100 100 100 100 100 100 100 100 100 100 100 100 100 97 98 58 97 100 100 100 100 100 100 100 100 100
100 100 100 100 100 100 100 69 3 0 0 0 0 5 54 100 100 100 100 100 100 100 100 100 100 100 77 88 100 100 100 100 100 99 100 100 100 100 100 100 100 100 100
100 100 100 100 100 100 100 100 100 6 11 11 0 0 0 4 47 99 100 100 100 100 100 100 100 100 100 100 100 99 100 100 100 100 100 100 100 100 100 100 100 100 100
100 100 100 98 100 100 100 100 100 6 4 5 35 94 32 0 0 0 4 100 100 100 100 100 100 100 100 100 100 100 100 99 99 100 99 100 100 100 100 100 100 100 100
100 100 100 100 100 100 100 100 100 58 50 15 18 5 84 100 99 70 4 0 6 9 9 100 92 11 33 98 72 86 99 68 100 96 100 100 100 100 100 100 100 100 100
100 100 100 100 100 100 100 100 100 100 78 29 35 100 9 10 100 100 100 100 100 100 100 9 5 0 4 1 0 0 0 6 71 76 100 98 100 100 100 100 100 100 100
100 100 100 100 100 100 100 100 100 100 99 88 100 100 84 9 21 14 12 66 100 100 98 36 94 3 4 65 77 72 29 80 74 73 100 73 52 88 100 100 100 100 79
100 100 100 100 100 100 100 100 100 100 100 100 100 100 79 100 71 7 5 65 10 81 100 100 100 100 100 100 82 61 100 100 61 100 82 57 73 97 71 100 100 100 100
100 100 100 100 100 100 100 100 100 100 100 100 100 100 99 36 51 23 47 25 94 24 35 100 100 100 100 100 100 100 100 96 89 80 99 60 56 70 80 100 100 100 100
100 100 88 100 100 100 100 100 100 100 100 100 100 100 100 100 87 36 45 5 29 5 5 95 100 78 100 100 100 100 99 99 88 50 67 77 52 90 100 100 88 100 100
100 100 100 100 100 100 100 100 100 100 100 100 100 100 100 100 79 100 100 26 4 32 10 100 62 59 100 100 73 30 85 77 57 88 99 86 94 100 99 100 94 99 99
100 100 100 100 100 100 100 100 100 100 100 100 100 100 100 100 65 100 100 80 72 40 33 100 100 100 100 100 100 97 100 97 56 97 95 74 93 95 100 100 100 96 100
100 100 100 100 100 100 100 100 100 100 100 100 97 100 93 73 50 96 100 64 98 100 97 100 100 79 100 85 100 100 98 61 44 49 45 47 100 97 100 100 100 90 100
99 100 100 100 100 100 100 100 100 100 91 100 100 100 100 78 61 100 100 100 89 100 100 100 100 100 100 100 100 100 100 6 6 31 25 66 93 62 90 76 94 100 100
30 54 96 100 100 100 100 100 100 100 100 100 98 100 97 54 65 100 100 100 100 100 100 100 100 100 100 100 100 100 75 7 11 5 5 18 30 18 37 27 42 91 98
4 4 14 97 81 100 100 98 100 100 100 100 100 100 96 81 100 100 100 100 100 100 100 100 100 100 100 100 100 100 100 100 94 91 54 22 61 70 99 100 100 100 99
9 3 16 49 83 81 100 100 100 100 100 100 94 100 100 100 100 100 100 100 100 100 100 100 100 100 100 100 100 100 100 100 100 100 98 100 99 100 63 85 94 100 100
10 37 39 35 32 75 69 98 85 100 100 99 100 98 100 100 100 100 100 100 100 100 100 100 100 100 100 100 100 100 100 100 100 100 98 100 100 100 100 100 100 100 100
97 72 5 4 7 43 61 65 77 96 100 100 100 100 100 100 100 100 100 100 100 100 100 100 100 100 100 100 100 100 100 100 100 100 100 100 100 100 99 100 100 100 100
5 7 40 0 1 17 47 98 93 100 95 100 100 100 100 100 100 100 100 100 100 100 100 100 100 100 100 100 100 100 100 100 100 100 100 100 100 100 100 100 100 100 100
21 0 0 0 0 15 40 90 100 100 98 91 83 82 100 100 100 100 100 100 100 100 100 100 100 100 100 100 100 100 100 100 100 100 100 100 100 100 100 100 100 100 100
16 0 0 0 0 2 50 62 100 100 100 100 100 100 100 93 97 100 100 100 100 100 100 100 100 100 100 100 100 100 100 100 100 100 100 100 100 100 100 100 100 100 98
29 41 24 5 17 22 59 85 97 97 100 100 100 100 100 99 100 100 100 100 100 100 100 100 100 100 100 100 100 100 100 100 100 100 100 100 97 92 98 95 88 100 95
4 18 92 84 65 61 100 100 88 95 100 100 100 100 100 100 100 100 100 100 100 100 100 100 100 100 100 100 100 100 100 100 100 100 100 100 99 100 100 100 100 100 100
95 83 47 70 100 100 100 100 100 100 100 100 100 100 100 99 100 100 100 100 100 100 100 100 100 100 100 100 100 100 100 100 100 100 100 100 100 100 100 100 100 100 100
100 100 100 100 100 100 100 94 100 100 100 100 92 97 100 100 100 100 100 100 100 100 100 100 100 100 100 100 100 100 100 100 100 100 100 100 100 100 100 100 88 91 95

GFSGL_prec_cloud_090.txt.gz
Cloud_Cover
22 39 95 100 100 100 100 100 100 90 84 13 0 5 48 47 9 30 100 100 100 100 92 100 100 100 100 100 100 100 100 100 100 100 100 55 55 70 64 78 65 100 71
64 28 76 100 100 100 100 78 56 100 48 31 0 5 29 49 48 27 35 100 100 100 100 100 100 100 100 53 100 100 100 84 55 100 100 100 98 83 100 100 100 100 100
100 100 100 100 100 100 100 93 65 100 100 82 81 8 0 28 52 87 47 83 95 100 100 75 20 29 20 18 20 43 35 31 94 100 100 99 100 90 100 100 100 100 100
100 100 100 100 100 100 100 90 39 53 100 100 100 67 6 3 68 100 100 82 99 60 56 98 93 8 92 100 100 100 100 100 99 99 64 66 90 100 100 100 100 100 100
100 100 100 100 100 100 100 100 94 77 100 100 79 99 94 6 14 76 64 66 100 51 54 40 35 45 100 100 100 100 75 65 65 100 86 83 99 100 100 100 100 100 100
100 100 100 100 100 100 100 100 100 91 91 97 97 28 100 98 19 5 4 43 65 98 70 50 46 9 9 6 92 5 0 10 9 6 20 48 89 100 100 100 100 100 100
100 100 100 100 100 100 100 100 98 38 98 100 100 100 73 100 68 18 5 3 31 68 54 43 36 28 39 51 50 28 44 1 13 12 100 55 53 94 100 100 100 100 61
100 100 100 100 100 100 100 100 100 98 93 71 74 100 100 100 100 100 93 50 9 32 45 16 32 52 42 71 48 61 90 47 16 45 76 83 50 84 68 94 97 100 98
100 100 100 100 100 100 100 100 100 100 100 100 44 67 100 100 100 100 100 100 90 43 39 17 15 22 13 42 100 74 100 100 99 51 32 15 5 72 70 97 100 100 100
100 100 100 100 100 100 100 100 100 100 100 100 70 24 99 100 98 100 100 100 100 72 25 18 17 56 49 95 79 99 100 71 100 90 11 49 17 46 99 98 85 100 100
100 100 100 100 100 100 100 100 100 100 100 100 94 100 100 100 100 100 100 74 11 98 94 43 27 14 34 93 98 100 100 100 100 98 87 88 62 66 100 99 100 96 100
100 100 100 100 100 100 100 100 100 100 100 100 100 100 97 76 76 80 100 96 26 45 15 100 100 92 100 100 100 98 100 100 44 72 100 95 62 70 31 50 99 53 93
100 100 100 100 100 100 100 100 100 100 100 100 100 100 100 98 100 100 92 30 63 18 7 73 69 100 100 81 95 100 100 100 63 34 44 100 90 100 89 81 100 100 100
100 100 100 100 100 100 100 100 100 100 100 100 100 39 69 78 16 6 12 14 81 42 12 40 99 56 44 99 95 96 69 100 96 100 50 100 77 88 47 76 100 89 98
99 100 93 100 100 100 89 87 96 100 100 100 100 100 34 66 47 99 80 75 38 43 95 90 89 100 100 100 100 100 100 95 100 100 78 88 52 67 8 83 76 96 100
100 100 100 100 100 100 90 100 100 100 100 100 100 100 100 100 100 100 100 100 100 100 96 100 100 100 100 100 100 100 100 100 100 100 100 100 71 16 95 48 48 68 56
100 100 100 95 100 40 92 74 55 45 100 100 100 100 100 100 97 100 100 100 100 100 100 100 100 100 100 100 100 100 100 100 100 100 100 100 70 99 35 98 100 79 88
100 100 100 100 87 85 61 91 56 75 74 79 87 86 50 100 100 100 100 100 100 100 100 65 96 100 100 100 100 100 100 100 100 100 100 98 100 96 98 95 88 94 100
5 33 36 57 98 86 70 59 90 80 97 72 96 97 100 100 100 100 100 100 100 100 100 100 100 100 100 100 100 100 100 100 100 100 100 100 100 100 97 100 100 100 99
2 1 32 44 16 35 100 61 52 97 100 81 74 100 100 100 100 100 100 100 100 100 100 100 100 100 100 100 100 100 100 100 100 100 100 100 100 100 100 100 100 99 100
22 3 2 5 5 5 86 29 57 32 63 97 84 45 100 100 100 100 100 100 100 100 100 100 100 100 100 100 100 100 100 100 100 100 100 100 100 100 100 100 100 100 100
41 49 15 6 6 6 20 80 53 34 99 94 44 53 100 100 100 100 100 100 100 100 100 100 100 100 100 100 100 100 100 100 100 100 100 100 100 100 100 100 100 100 100
96 54 71 72 50 16 17 29 66 54 53 100 99 94 100 99 100 100 100 100 100 100 100 100 100 100 100 100 100 100 100 100 100 100 100 100 100 100 100 100 100 100 100
100 99 100 74 20 31 33 91 100 72 97 100 100 100 100 100 100 100 100 100 100 100 79 99 98 100 100 100 100 100 100 100 100 100 100 100 100 100 100 100 100 100 26
36 7 22 68 21 94 64 100 100 100 100 100 100 100 100 100 100 100 100 100 100 100 100 100 100 100 100 100 100 100 100 100 100 100 100 100 100 100 100 100 100 100 99
42 21 53 8 40 100 82 58 82 81 96 100 100 100 100 100 100 100 100 100 100 100 100 100 100 100 91 100 100 100 100 100 100 100 100 100 100 100 100 100 100 100 100

GFSGL_prec_cloud_093.txt.gz
Cloud_Cover
45 92 77 100 100 100 100 100 100 75 64 28 62 30 45 1 37 42 4 100 100 100 78 95 100 100 60 100 100 100 99 14 15 72 96 78 82 100 100 33 38 87 78
98 99 100 100 100 100 100 100 100 100 91 76 89 46 2 98 100 89 42 19 100 100 100 94 49 100 100 26 53 10 12 8 48 23 15 71 60 100 77 100 96 85 100
100 100 100 100 100 100 100 100 100 100 100 100 100 20 8 26 100 100 70 44 60 100 100 100 100 78 100 100 100 100 100 98 44 79 13 21 83 43 100 95 96 100 100
100 100 100 100 100 100 100 100 100 100 100 100 100 40 24 0 48 97 49 64 54 77 90 100 100 100 100 89 99 100 91 74 14 48 86 91 93 76 56 100 100 100 100
100 100 100 100 100 100 100 100 100 100 100 100 100 100 100 35 23 100 26 9 53 52 87 100 44 94 100 86 57 90 100 82 98 100 98 92 55 98 47 63 95 100 100
100 100 100 100 100 100 100 100 100 100 100 100 100 100 100 34 57 62 5 100 89 85 0 53 72 100 8 5 5 4 48 66 5 5 4 69 6 39 99 100 100 100 100
100 100 100 100 100 100 100 100 100 100 100 100 100 100 100 41 33 26 33 10 94 98 41 52 30 100 51 5 44 27 16 5 2 2 0 4 5 84 76 100 100 100 100
100 100 100 100 100 100 100 100 100 100 100 100 97 100 100 16 81 98 96 60 42 5 5 93 88 12 70 59 25 5 5 19 5 27 38 4 11 77 88 92 84 100 100
100 100 100 100 100 100 100 100 100 100 100 100 100 100 100 60 27 99 100 100 98 4 13 54 93 15 1 2 5 35 99 60 87 43 34 30 100 100 91 86 100 100 100
100 100 100 100 100 100 100 100 100 100 100 96 100 100 99 81 99 96 75 92 100 96 6 5 6 5 5 5 2 5 6 46 46 100 100 100 100 87 100 65 100 100 100
100 100 100 100 100 100 100 100 100 100 100 100 100 100 56 85 85 64 100 99 46 86 97 79 86 89 90 96 10 5 5 10 20 34 52 73 100 100 100 88 97 100 100
100 100 100 100 100 100 100 100 100 100 100 100 100 100 100 89 87 100 100 100 54 54 19 86 91 64 18 18 55 91 100 32 63 52 94 82 90 100 100 81 100 97 82
100 100 100 100 100 100 100 100 100 100 75 81 100 100 100 100 100 81 100 84 45 18 50 70 73 82 95 97 96 75 80 96 94 100 99 100 87 100 100 92 92 100 100
31 95 100 100 100 100 100 100 100 100 100 68 90 100 100 100 100 100 100 86 100 99 6 12 40 89 100 100 100 94 100 100 97 100 100 99 100 95 93 100 68 100 100
100 100 100 100 100 100 100 100 100 100 92 82 70 89 99 100 100 100 100 100 100 100 100 85 43 80 77 99 100 100 100 100 100 100 100 100 100 100 96 90 65 36 69
100 100 100 100 100 100 94 100 100 100 100 88 86 80 68 100 86 100 100 100 100 100 100 100 100 100 85 100 100 99 100 100 100 100 100 100 100 100 100 100 100 100 100
100 100 100 100 100 98 100 90 100 100 100 100 90 86 93 98 85 79 85 93 100 100 100 100 100 100 100 100 100 100 100 100 100 100 100 100 100 100 100 100 100 100 100
100 100 65 96 100 100 100 100 94 100 100 100 100 85 73 93 100 98 100 99 100 100 100 100 100 98 94 98 100 100 100 100 100 100 100 100 100 100 100 100 100 100 100
8 43 65 21 7 76 100 100 100 100 92 99 100 100 98 100 100 100 100 100 100 100 100 100 100 99 100 100 100 100 100 100 100 100 100 100 100 100 100 100 100 100 100
2 0 5 5 3 5 58 69 99 73 79 82 67 97 92 100 100 100 100 100 100 100 100 100 100 100 100 100 100 100 100 100 100 100 100 100 100 100 100 100 100 100 100
0 4 4 0 4 28 9 58 49 4 96 33 39 48 99 100 100 100 100 100 100 100 100 100 100 100 100 100 100 100 100 100 100 100 100 100 100 100 100 100 100 100 100
2 11 75 31 39 57 48 66 0 7 62 75 86 88 98 100 100 100 100 100 100 100 100 100 100 100 100 100 100 100 100 100 100 100 100 100 100 100 100 100 100 100 100
62 54 41 74 69 23 90 100 31 57 100 77 53 73 97 85 100 100 100 100 100 100 100 100 100 100 100 100 100 100 100 100 100 100 100 100 100 100 100 100 100 100 100
30 98 100 99 94 13 18 87 98 67 70 79 79 96 100 100 100 100 100 100 100 100 100 100 100 100 100 100 100 100 100 100 100 100 100 100 100 100 100 100 100 100 100
98 31 17 79 88 78 32 89 92 99 87 67 97 99 83 99 100 100 100 98 100 100 100 100 100 100 100 99 95 100 100 100 100 100 100 100 100 100 100 100 100 100 100
14 14 20 22 71 14 7 4 59 97 95 83 96 96 90 100 100 100 100 100 100 100 100 100 100 100 100 100 100 100 100 100 100 100 100 100 100 100 100 100 100 100 100

GFSGL_prec_cloud_096.txt.gz
Cloud_Cover
12 0 13 100 100 100 100 100 100 100 100 100 97 100 92 12 1 0 0 0 2 45 100 99 100 62 95 100 100 100 99 100 100 100 100 52 71 100 92 42 65 78 85
48 68 99 100 100 100 100 100 100 100 100 100 100 92 100 85 0 0 0 0 0 45 100 100 100 94 16 98 100 100 100 100 100 100 100 100 100 13 62 89 100 100 72
100 100 100 100 100 100 100 100 100 100 100 100 100 100 61 28 0 0 3 0 0 0 37 57 95 97 72 100 100 100 100 100 100 100 100 100 78 59 97 98 100 99 100
100 100 100 100 100 100 100 100 100 100 100 100 100 100 100 5 7 4 33 0 0 2 2 2 87 95 100 86 97 100 100 100 100 100 100 100 100 100 100 100 100 100 93
100 100 100 100 100 100 100 100 100 100 100 100 100 100 100 26 10 19 5 0 4 4 0 4 26 90 83 100 97 97 94 100 100 100 100 100 92 64 44 91 100 100 100
100 100 100 100 100 100 100 100 100 100 100 100 100 100 100 98 5 3 4 0 5 5 5 5 5 25 46 100 100 100 100 8 8 49 9 27 5 13 7 99 100 100 100
100 100 100 100 100 100 100 100 100 100 100 100 100 100 100 100 99 16 5 3 8 5 21 5 60 59 4 2 40 0 4 0 0 5 12 7 17 5 12 100 100 100 100
100 100 100 100 100 100 100 100 100 100 100 100 100 100 100 100 100 89 29 6 44 13 37 12 65 40 16 17 98 67 6 2 0 3 5 4 5 4 7 12 90 100 99
100 100 100 100 100 100 100 100 100 100 100 100 100 100 100 100 100 100 100 100 96 32 5 16 27 20 100 93 98 98 100 100 100 92 49 5 4 5 7 85 100 100 100
92 100 100 100 100 100 100 100 100 100 100 100 100 100 100 99 100 100 100 100 100 86 51 5 5 5 16 6 51 16 64 90 97 100 100 100 100 100 54 78 44 99 100
29 97 100 100 100 100 100 100 100 100 100 100 100 100 100 100 100 100 100 100 100 100 93 44 30 14 6 72 95 61 11 17 18 18 96 100 100 100 97 93 100 98 100
36 100 85 100 100 100 100 100 100 61 100 100 100 100 91 90 87 98 99 97 100 100 56 51 69 88 45 16 56 100 99 100 100 70 45 100 100 100 100 100 100 94 100
49 69 100 92 100 100 100 100 100 87 21 43 99 100 98 99 36 61 92 41 63 72 100 94 92 53 38 39 100 76 100 24 100 99 14 6 12 45 93 100 100 100 100
8 17 66 100 60 100 100 100 100 100 100 91 95 100 100 99 97 100 12 24 88 99 100 100 100 62 97 100 100 99 74 42 72 100 100 100 88 100 100 100 100 100 100
5 14 38 30 67 6 46 100 99 100 100 100 100 100 100 100 80 76 88 80 71 79 97 100 100 100 99 27 83 71 90 97 95 92 46 81 100 100 100 100 100 100 98
71 86 39 56 100 48 61 70 90 96 100 100 100 100 99 98 40 99 100 100 100 100 95 83 91 100 73 6 23 48 73 78 17 100 99 100 100 100 100 100 100 100 100
0 11 46 100 100 100 88 93 100 100 98 100 100 100 100 100 100 100 100 100 100 100 100 98 71 35 5 11 31 47 41 87 96 100 100 100 100 100 100 100 100 100 100
4 0 35 35 92 100 100 100 100 86 97 100 100 100 100 100 100 99 100 100 100 100 100 100 98 90 89 86 81 95 100 91 80 100 100 100 100 100 100 100 100 100 100
0 3 1 2 5 74 99 100 100 100 91 94 38 100 100 100 100 100 100 100 100 100 100 100 100 100 100 100 94 90 100 96 100 100 100 100 100 100 100 100 100 100 100
0 0 0 0 1 11 10 100 100 94 100 100 75 58 99 87 100 100 100 100 100 100 100 100 100 100 100 100 100 100 100 100 100 100 100 100 100 100 100 100 100 100 100
2 5 43 5 98 84 100 7 24 46 0 2 9 26 96 17 100 100 100 100 100 100 98 100 100 100 100 99 100 100 100 100 100 100 100 100 100 100 100 100 100 100 100
99 76 59 70 20 6 0 74 68 1 18 3 100 80 76 6 81 97 100 100 100 100 100 100 100 100 100 100 100 100 100 100 100 100 100 100 100 100 100 100 100 100 100
100 100 100 94 54 83 64 9 45 50 9 14 28 27 54 99 96 100 100 100 100 100 90 100 100 100 100 100 100 100 100 100 100 100 100 100 100 100 100 100 100 100 100
100 100 62 9 5 29 11 11 74 17 40 90 92 51 74 83 66 100 100 100 100 100 100 100 100 100 100 100 100 100 100 100 100 100 100 100 100 100 100 100 100 100 100
30 70 1 14 0 88 14 0 0 24 87 54 99 88 100 84 92 100 100 73 100 100 100 100 100 99 100 100 100 100 100 100 100 100 100 100 100 100 100 100 100 100 100
34 100 48 72 0 0 43 56 15 0 0 7 40 73 86 100 73 86 100 100 100 88 94 100 100 100 100 99 100 100 100 100 100 100 100 100 100 100 100 100 100 100 100

GFSGL_prec_cloud_099.txt.gz
Cloud_Cover
2 0 0 70 100 100 100 100 100 100 100 100 100 100 100 100 32 28 4 0 0 0 4 87 100 100 100 100 100 89 86 100 100 80 100 100 99 71 100 88 98 97 98
59 34 100 100 100 100 100 100 100 100 100 100 100 100 100 100 45 7 1 0 0 0 0 33 100 100 100 100 100 99 95 77 100 89 100 100 98 100 100 84 64 52 50
100 100 100 100 100 100 100 100 100 100 100 100 100 100 100 100 5 3 5 8 1 0 0 0 94 91 100 100 100 100 100 100 96 100 100 80 98 100 100 98 100 100 100
100 100 100 100 100 100 100 100 100 100 100 100 100 100 100 99 71 4 0 2 14 3 0 0 69 100 100 99 56 100 100 100 100 100 85 95 71 98 99 100 100 100 96
100 100 100 100 100 100 100 100 100 100 100 100 100 100 100 100 98 98 55 1 89 30 3 1 3 4 100 100 78 89 100 100 100 100 100 100 99 100 100 96 63 97 100
100 100 100 100 100 100 100 100 100 100 100 100 100 100 100 100 94 87 14 24 66 4 0 5 5 0 5 99 100 100 100 100 100 74 44 16 72 15 68 41 80 100 100
100 100 100 100 100 100 100 100 100 100 100 100 100 100 100 100 100 91 96 100 90 2 7 15 5 9 1 44 9 94 94 100 100 100 99 35 5 5 6 97 43 100 100
52 100 100 100 100 100 100 100 100 100 100 100 100 100 100 100 100 100 64 100 66 10 2 24 5 5 5 4 5 5 21 15 86 88 100 100 100 100 89 93 96 75 95
95 100 58 100 100 100 100 100 100 100 100 100 100 100 100 100 100 100 96 100 57 20 27 96 99 11 5 94 100 92 5 5 38 100 96 88 66 93 39 100 100 100 100
99 100 100 100 100 100 100 100 100 100 100 100 100 100 100 100 100 100 100 100 100 90 100 80 70 100 71 5 3 12 92 99 97 94 40 43 85 76 68 82 22 81 100
5 10 85 100 51 96 100 100 100 100 100 100 100 100 100 100 100 100 100 100 100 100 100 100 100 90 74 60 22 37 29 80 54 65 30 90 95 100 74 97 100 47 86
5 5 90 100 100 79 100 100 100 100 100 100 100 100 100 100 100 100 100 100 100 100 100 100 97 98 71 88 92 86 83 62 100 69 23 90 100 100 100 98 98 99 92
0 1 16 80 49 33 100 100 100 100 100 100 100 100 100 100 100 100 100 100 100 100 100 100 100 100 100 100 100 100 90 88 38 99 65 10 85 100 87 98 100 49 28
0 0 6 96 14 5 90 100 100 100 100 100 100 98 99 100 100 100 100 61 13 82 100 98 48 54 40 82 90 88 100 100 98 100 100 99 93 100 100 49 98 100 91
0 0 5 90 49 43 55 76 100 100 100 100 100 100 100 100 91 100 100 100 97 100 100 48 16 2 4 10 8 5 31 90 100 95 100 100 100 100 79 71 85 94 100
0 0 1 42 5 5 8 70 48 100 100 100 100 100 100 100 99 100 100 100 100 100 100 81 9 6 2 75 10 60 24 26 12 45 30 56 72 35 62 99 100 100 100
0 0 0 2 0 0 5 18 6 11 27 100 100 100 100 98 100 100 100 100 100 100 100 100 100 100 47 7 7 69 100 58 43 66 98 37 32 45 100 79 100 100 100
0 0 0 0 0 3 0 5 27 17 15 6 74 95 100 100 100 100 100 100 100 100 100 100 100 100 100 100 100 100 100 100 92 100 100 64 85 100 92 100 100 100 100
0 0 0 0 0 0 0 26 16 21 61 64 100 96 100 100 100 100 100 100 100 100 100 100 100 100 100 100 100 100 100 100 100 100 100 100 100 100 100 100 100 100 100
0 0 0 0 4 71 12 0 3 68 32 75 100 100 93 75 75 100 100 100 100 100 100 100 100 100 100 100 100 100 100 100 100 100 99 99 100 100 100 100 100 100 100
5 54 76 7 3 100 98 100 48 47 16 0 0 17 98 100 100 100 100 100 100 100 100 100 100 100 100 68 75 82 100 100 100 100 100 100 100 100 100 100 100 100 100
41 40 88 80 24 5 2 18 68 66 5 1 17 13 97 19 98 100 100 100 100 100 100 100 100 100 100 100 100 100 100 100 100 100 100 100 100 100 100 100 100 100 100
100 100 100 100 100 89 73 5 4 2 3 30 78 0 11 70 100 100 100 100 91 82 94 84 100 100 100 100 100 100 100 100 100 100 100 100 100 100 100 100 100 100 100
100 24 14 8 17 2 3 0 1 15 2 7 100 20 82 100 99 100 100 100 100 92 12 34 100 100 100 100 100 100 100 100 100 100 100 100 100 100 100 100 100 100 100
0 0 0 58 56 0 0 0 0 0 0 0 0 40 52 78 95 79 98 73 100 95 67 65 28 30 96 100 100 100 100 100 100 100 100 100 100 100 100 100 100 100 100
0 0 3 4 96 3 1 18 45 7 6 2 0 0 1 5 38 95 83 100 86 46 93 98 100 100 67 39 82 67 99 100 100 100 100 100 100 100 100 100 100 95 100

GFSGL_prec_cloud_102.txt.gz
Cloud_Cover
99 89 63 32 46 98 100 100 100 97 64 100 100 100 100 100 100 100 100 88 4 8 15 16 5 19 97 100 100 100 100 88 100 97 100 100 51 100 100 100 100 94 100
100 100 100 100 100 100 100 100 100 100 93 91 100 100 100 100 100 100 100 7 4 7 1 10 5 4 6 100 100 100 100 100 99 98 100 100 100 100 79 99 85 67 48
100 100 100 100 100 100 100 100 100 100 100 100 100 100 100 100 100 100 12 4 5 1 12 5 5 9 96 37 99 100 100 100 100 100 100 92 87 98 94 98 96 100 89
100 100 100 100 100 100 100 100 100 100 100 100 100 100 100 100 100 100 100 73 7 4 2 24 5 6 100 47 99 78 100 100 100 100 100 100 100 100 100 100 100 100 100
100 100 100 100 100 100 100 100 100 100 100 100 100 100 100 100 100 100 100 96 17 45 3 4 3 33 5 100 62 100 71 98 100 100 100 100 100 100 100 85 100 98 100
100 100 100 100 100 100 100 100 100 100 100 100 100 100 100 100 100 100 100 98 45 19 0 4 77 3 14 43 4 100 100 76 100 100 100 100 100 100 100 100 100 100 100
100 100 100 100 100 100 100 100 100 100 100 100 100 100 100 100 100 100 100 100 100 1 3 3 38 4 5 0 2 2 70 98 95 100 100 100 100 59 44 84 53 69 97
61 98 100 99 100 100 100 100 100 100 100 100 100 100 100 100 100 100 100 100 100 11 3 12 1 5 38 4 0 2 16 7 6 95 100 100 98 98 89 100 100 25 96
40 64 24 94 37 90 100 100 100 100 100 100 100 100 100 100 100 100 100 100 100 88 100 100 29 46 26 76 5 0 5 5 13 60 22 78 100 100 100 81 62 97 100
35 64 16 4 95 7 1 99 100 100 100 100 100 100 100 100 100 100 100 100 100 100 100 100 95 98 100 98 93 100 9 25 5 5 21 7 20 25 88 20 90 66 89
35 1 18 0 95 83 10 64 100 99 100 100 100 100 100 100 100 100 100 100 100 100 100 100 100 100 100 100 100 100 100 47 18 30 24 12 36 61 100 100 98 57 20
0 0 0 4 78 100 60 100 100 100 100 62 100 100 100 100 100 100 100 100 100 100 100 100 100 100 100 100 100 100 100 100 100 99 82 73 75 98 95 60 89 75 33
0 0 0 0 23 100 100 100 100 100 100 78 100 100 100 100 100 100 100 100 100 100 100 100 100 100 100 100 100 100 100 85 100 99 34 100 100 100 48 99 74 99 95
0 0 0 0 2 11 99 100 100 100 100 99 100 96 100 100 100 100 100 100 100 100 100 100 88 94 100 100 100 100 100 98 92 100 89 100 100 100 88 59 100 100 100
0 0 0 0 0 0 24 86 100 100 95 89 50 96 100 100 100 100 100 100 100 100 100 100 100 100 100 100 100 100 100 100 87 65 87 72 99 86 91 66 87 100 100
0 0 0 0 0 0 0 1 89 100 100 100 100 100 100 100 100 100 100 100 100 100 100 100 100 100 100 97 100 97 91 97 76 23 50 77 100 100 94 100 93 100 100
0 0 0 0 0 0 0 0 1 14 81 100 100 100 100 100 100 100 100 100 100 100 100 100 100 100 100 100 100 100 100 100 79 70 68 33 49 100 100 100 100 100 100
9 0 0 0 2 3 0 0 0 0 8 61 78 93 99 100 100 100 100 100 100 100 100 100 100 100 100 100 100 100 100 97 100 100 100 100 100 100 100 99 100 100 100
0 27 5 4 0 0 0 0 0 0 0 0 0 57 55 100 100 100 99 100 100 100 100 100 100 100 100 100 100 100 100 100 100 100 100 100 100 100 100 100 100 100 100
5 5 15 2 0 0 0 0 4 78 97 73 19 0 0 22 1 25 89 100 100 100 100 100 100 100 100 100 100 100 100 100 100 100 100 100 100 100 100 100 100 100 100
3 3 4 0 0 0 0 1 0 37 35 82 16 15 99 3 96 100 100 100 100 100 100 100 100 100 100 100 100 100 100 100 100 100 100 100 100 100 100 100 100 100 100
5 30 18 47 44 38 84 75 20 5 5 2 1 14 100 36 66 100 100 98 70 100 100 100 100 100 100 100 100 100 100 100 100 100 100 100 100 100 100 100 100 100 100
69 62 95 100 100 100 97 30 6 3 5 12 20 21 30 22 100 89 100 58 79 91 100 100 100 100 100 100 100 100 100 100 100 100 100 100 100 100 100 100 100 100 100
56 80 62 46 47 19 8 5 1 18 8 0 0 0 0 0 79 96 59 67 99 66 100 9 69 100 94 100 100 100 100 100 100 100 100 100 100 100 100 100 100 100 100
44 30 4 4 0 0 0 6 0 5 5 5 3 8 8 7 3 36 36 77 93 100 100 95 76 84 18 78 90 100 100 100 100 100 100 100 100 100 100 100 100 100 100
0 4 5 5 2 0 1 14 5 4 10 7 5 3 9 12 12 13 26 63 99 67 100 100 42 83 100 43 64 78 100 96 100 100 100 100 100 100 100 100 100 100 100

GFSGL_prec_cloud_105.txt.gz
Cloud_Cover
100 100 100 100 100 100 80 100 100 100 100 42 100 100 100 96 69 86 100 100 100 100 97 19 16 15 91 48 59 97 100 100 100 100 37 89 82 86 69 78 100 100 100
100 100 100 100 100 100 100 100 100 100 100 100 100 100 100 83 100 100 100 99 99 79 25 34 17 19 23 23 49 61 97 100 100 100 99 97 100 100 100 100 100 74 64
97 99 100 100 100 100 100 100 100 100 100 100 100 100 100 100 100 100 100 100 64 5 32 100 5 21 25 42 34 44 54 100 100 100 100 100 100 77 100 100 100 88 91
100 100 100 100 100 100 100 100 100 100 100 100 100 100 100 100 100 100 100 100 96 67 97 94 0 1 0 14 29 34 49 100 100 100 100 100 100 100 100 100 100 100 99
100 100 100 100 100 100 100 100 100 100 100 100 100 100 100 100 100 100 100 100 100 80 10 50 1 0 0 5 11 69 43 85 100 100 100 100 100 100 100 100 100 100 100
100 100 100 100 100 100 100 100 100 100 100 100 100 100 100 100 100 100 100 100 100 100 100 100 0 0 0 5 1 0 8 55 46 88 100 100 100 100 100 100 100 100 100
100 100 100 100 100 100 100 100 100 100 100 100 100 100 100 100 100 100 100 100 100 100 98 46 5 1 0 24 3 0 3 96 100 70 19 79 62 74 81 100 100 100 100
100 100 100 100 100 100 100 100 100 100 100 100 100 100 100 93 100 100 100 100 100 100 100 94 60 9 4 4 1 0 5 7 23 100 5 20 3 3 5 14 29 90 96
68 98 64 36 94 100 100 100 100 100 100 100 100 100 100 100 100 100 100 100 100 100 100 100 99 70 80 88 29 6 6 93 97 69 84 21 6 42 16 34 77 100 100
100 100 96 31 52 34 40 87 100 100 100 100 100 100 100 100 100 100 100 100 100 100 100 100 100 100 75 98 49 26 92 81 92 31 33 99 100 100 100 71 97 100 100
100 100 100 71 33 5 9 5 8 92 87 100 85 100 100 100 100 100 100 100 100 100 100 100 100 100 100 100 87 23 83 56 98 92 100 21 100 100 100 100 86 96 100
97 100 100 100 74 100 98 9 81 42 99 100 100 100 100 100 100 100 100 100 100 100 100 100 100 100 100 100 100 100 100 93 95 98 99 100 86 82 100 91 99 84 97
87 100 80 57 43 100 42 58 5 5 4 100 100 100 100 100 100 100 100 100 100 100 100 100 100 100 100 100 100 100 100 100 100 100 100 100 65 93 58 65 100 97 92
100 100 100 100 100 5 4 0 0 5 5 9 100 100 100 100 100 100 100 100 100 100 100 100 100 100 100 100 100 98 65 97 100 72 100 100 100 81 66 81 100 100 100
100 100 100 100 100 67 65 36 0 0 2 4 93 100 100 100 100 100 100 100 100 100 100 100 100 100 100 100 100 100 100 87 98 100 100 100 100 100 100 100 100 100 100
33 53 18 25 95 100 94 8 10 51 100 100 100 64 100 100 100 100 100 100 100 100 100 100 100 100 100 100 100 100 100 100 99 100 100 100 100 100 100 100 100 100 100
7 5 33 98 67 52 56 5 5 7 99 100 100 100 95 100 100 100 100 100 100 100 100 100 100 100 100 100 100 100 100 100 100 100 100 100 100 100 100 100 100 100 100
43 11 2 5 0 34 6 5 6 6 5 5 75 100 100 100 100 100 100 100 100 100 100 100 100 100 100 100 100 100 100 100 100 100 100 100 100 100 100 100 100 100 100
94 76 30 44 51 14 5 6 3 3 0 0 3 68 100 100 100 100 100 28 100 100 99 100 100 100 100 100 100 100 100 100 100 100 100 100 100 100 100 100 100 100 100
39 13 12 5 5 5 5 5 2 0 0 1 14 24 3 27 1 0 19 8 92 100 99 100 100 100 100 100 100 100 100 100 100 100 100 100 100 100 100 100 100 100 100
16 5 5 10 11 13 5 5 2 0 0 0 0 15 99 0 10 90 100 100 100 100 100 91 100 100 100 100 100 100 100 100 100 100 100 100 100 100 100 100 100 100 100
2 1 1 2 0 0 2 4 0 3 10 12 12 12 100 92 32 53 100 100 100 100 92 94 95 82 88 100 100 100 100 100 100 100 100 100 100 100 100 100 100 100 100
35 42 5 6 13 35 26 12 26 69 30 8 3 10 23 22 29 5 63 90 87 100 35 34 94 29 29 46 72 99 100 100 100 100 100 100 100 100 100 100 100 100 100
5 2 0 3 7 15 9 5 5 43 23 0 1 14 16 16 16 12 21 84 32 36 27 28 80 23 24 24 28 40 91 100 100 100 100 100 100 100 100 100 100 100 100
15 5 1 0 0 0 0 3 1 0 2 4 4 12 10 14 22 22 13 24 24 59 69 54 12 98 95 26 6 41 100 100 100 100 100 100 100 100 100 100 100 100 100
5 2 0 0 0 0 0 0 0 0 5 5 4 5 5 9 20 21 25 23 27 16 100 23 59 100 100 100 67 55 100 100 81 98 90 100 100 100 100 100 100 100 100

GFSGL_prec_cloud_108.txt.gz
Cloud_Cover
100 100 100 100 100 100 100 100 100 100 100 86 5 5 72 100 100 100 100 100 86 96 100 98 98 44 13 44 100 100 100 100 100 100 99 100 94 100 100 100 88 56 96
100 100 100 100 100 100 100 100 100 100 100 100 100 26 16 100 100 100 100 100 100 66 100 60 99 100 36 39 74 100 100 100 98 100 100 100 100 100 76 100 100 100 99
33 100 100 100 100 100 100 100 100 100 100 100 100 100 100 100 100 100 100 100 100 99 100 100 13 38 100 38 48 61 67 65 66 96 100 86 100 100 100 100 100 100 100
100 100 100 100 100 100 100 100 100 100 100 100 100 100 100 100 100 100 100 100 100 88 100 100 95 100 29 16 36 44 54 100 100 100 100 100 100 100 100 100 100 100 100
100 100 100 100 100 100 100 100 100 100 100 100 100 100 100 100 100 100 100 100 100 100 90 100 100 87 43 94 5 24 58 100 100 100 100 100 100 100 100 100 100 100 100
100 100 100 100 100 100 100 100 100 100 100 100 100 100 100 100 100 100 100 100 100 100 100 100 100 92 8 5 0 2 5 55 100 100 100 100 99 100 100 100 100 100 100
100 100 100 100 100 100 100 100 100 100 100 100 100 100 100 100 100 100 100 100 100 100 100 100 100 72 6 5 22 8 17 2 0 5 7 12 44 79 88 88 98 100 98
100 100 100 94 100 100 100 100 100 100 100 100 100 100 100 100 100 99 100 100 100 100 100 100 99 40 5 5 4 1 6 24 5 2 90 41 16 5 44 100 77 93 74
100 98 100 100 100 100 100 100 100 100 100 100 79 100 100 73 100 100 100 100 100 99 100 100 100 100 94 100 80 5 5 48 55 9 8 75 68 100 100 97 97 100 100
76 100 100 100 100 100 100 100 100 100 100 100 100 87 100 100 100 100 100 86 100 100 100 100 100 96 100 100 100 100 100 10 6 28 69 88 82 100 100 100 96 100 100
100 100 100 100 100 100 100 100 100 100 100 100 87 100 100 98 100 100 100 100 100 100 100 100 100 100 100 100 100 100 100 99 67 6 6 10 98 42 100 68 98 100 58
100 87 100 100 100 100 100 100 100 100 100 100 100 100 100 100 100 100 100 100 100 100 100 100 100 100 100 100 100 100 100 100 100 100 87 76 100 23 98 100 75 100 100
100 100 100 100 100 100 100 100 100 100 86 100 100 100 99 100 97 100 100 100 100 100 100 100 100 100 100 100 100 100 100 100 100 100 100 100 100 90 95 100 100 99 100
100 100 100 100 100 100 100 100 100 100 100 53 80 93 75 44 20 99 100 100 100 100 100 100 100 100 100 100 100 100 100 100 100 100 100 100 100 100 93 99 99 100 100
100 100 100 100 100 100 100 100 100 100 100 100 100 100 87 44 32 100 100 100 100 100 100 100 100 100 100 100 100 100 100 100 100 100 100 100 100 100 100 100 100 100 100
100 100 100 100 100 97 100 100 100 100 100 100 100 100 100 100 100 100 100 100 100 100 100 100 100 100 100 100 100 100 100 100 100 100 100 100 100 100 100 100 100 100 100
100 100 100 100 100 100 94 86 100 100 100 100 100 100 100 100 100 100 100 100 100 100 100 100 100 100 100 100 100 100 100 100 100 100 100 100 100 100 100 100 100 100 100
100 100 100 100 100 100 99 96 86 86 100 100 100 100 100 100 100 98 100 86 14 54 69 94 100 100 100 100 100 100 100 100 100 100 100 100 100 100 100 100 100 100 100
100 100 100 100 100 76 21 100 96 100 100 100 94 64 100 100 100 100 100 9 5 28 100 72 81 100 100 100 100 100 100 100 100 100 100 100 100 100 100 100 100 100 100
100 100 100 100 84 73 29 77 36 60 46 11 5 5 56 98 29 6 30 45 87 95 100 77 100 100 100 100 100 100 100 100 100 100 100 100 100 100 100 100 100 100 100
100 100 100 100 64 5 5 5 5 5 4 0 0 15 86 2 0 31 97 87 74 100 100 84 100 100 100 98 100 100 100 100 100 100 100 100 100 100 100 100 100 100 100
100 98 53 48 29 30 20 7 5 4 4 1 0 10 100 100 43 30 35 3 10 100 100 100 100 97 86 87 86 100 100 100 100 100 100 100 100 100 100 100 100 100 100
25 7 5 5 15 5 5 3 2 4 2 4 2 1 25 39 9 6 4 0 4 17 91 100 89 58 34 43 40 56 100 100 100 100 100 100 100 100 100 100 100 100 100
100 96 49 11 6 1 1 2 0 44 8 0 0 0 2 0 0 0 0 0 2 22 41 59 62 45 39 67 90 35 73 100 100 90 100 100 100 100 100 100 100 100 100
5 5 0 1 0 0 0 0 0 0 0 0 0 0 0 0 0 0 0 1 18 2 11 52 39 93 100 98 72 90 99 100 100 100 59 44 96 100 100 100 100 100 100
5 5 0 1 3 3 1 1 0 0 0 2 0 5 4 5 5 5 5 2 3 0 0 10 15 1 53 100 99 100 92 100 87 100 15 45 13 93 100 100 100 100 100

GFSGL_prec_cloud_111.txt.gz
Cloud_Cover
77 100 77 100 100 100 94 80 47 83 61 5 5 6 9 0 5 92 100 100 99 88 56 52 99 85 49 91 81 60 91 89 67 8 59 34 54 80 86 93 100 100 100
51 31 2 90 73 80 87 52 35 99 85 98 4 13 5 0 0 3 47 100 100 15 39 85 100 66 70 72 57 100 97 91 97 100 86 48 24 100 96 78 98 64 100
92 45 66 53 100 100 98 77 47 90 100 94 100 100 93 40 6 0 51 100 100 98 39 22 14 76 100 100 71 54 100 91 98 100 42 59 45 91 100 96 100 100 89
89 87 54 9 100 100 80 79 100 100 100 100 100 100 100 100 93 100 100 100 100 100 100 72 38 100 96 98 100 48 66 100 100 100 100 100 83 98 92 100 100 98 100
100 63 79 98 88 100 100 70 69 100 100 100 100 100 100 94 100 100 100 100 100 100 99 100 100 100 100 100 78 48 85 100 100 100 100 100 100 100 100 100 100 100 100
100 100 95 86 100 100 100 100 100 100 100 100 100 100 96 67 100 100 100 100 100 100 100 100 100 100 97 84 100 25 83 63 100 100 100 100 100 35 51 82 99 100 96
100 94 100 100 100 100 100 100 100 100 100 100 90 100 100 100 100 100 100 100 100 100 100 100 100 100 100 100 100 77 95 6 5 18 35 26 8 5 4 56 89 38 23
100 100 100 100 100 100 100 100 100 100 100 100 97 100 100 100 100 100 100 100 100 100 100 100 100 100 100 100 100 100 82 66 80 65 16 13 4 3 30 1 17 49 58
100 100 100 100 100 100 100 100 100 100 100 100 100 100 100 100 100 100 100 91 100 100 100 100 100 100 100 100 100 100 100 96 51 23 94 62 5 5 48 85 60 96 100
100 100 100 100 100 100 100 100 100 100 100 100 100 100 100 100 100 100 99 100 100 100 100 100 100 100 100 100 100 100 100 99 100 100 100 92 75 56 52 10 21 77 97
100 100 100 100 100 100 98 100 100 100 100 100 100 100 100 100 100 100 100 100 100 100 100 100 100 100 100 100 100 100 100 100 92 100 100 100 96 100 99 100 12 28 96
100 100 100 100 100 100 100 100 100 100 100 100 100 100 100 100 100 100 100 97 100 100 100 100 100 100 100 100 100 100 100 100 100 100 99 100 100 95 100 88 23 21 12
100 100 100 100 100 87 99 100 96 100 100 97 100 100 100 100 100 100 100 100 100 100 100 100 100 100 100 100 100 100 100 100 100 100 100 100 100 100 100 100 69 86 85
100 100 100 100 100 100 100 100 100 100 100 100 100 100 100 100 100 100 92 88 100 100 100 100 100 100 100 100 100 100 100 100 100 100 100 100 100 100 100 100 95 100 100
100 100 100 100 100 100 100 100 100 100 100 100 100 100 94 100 100 100 100 77 49 99 100 100 100 100 100 100 100 100 100 100 100 100 100 100 100 100 100 100 100 100 100
100 100 100 100 100 100 100 100 100 100 100 100 100 100 100 100 100 100 100 100 100 98 63 66 100 100 100 100 100 100 100 100 100 100 100 100 100 100 100 100 100 100 100
100 100 100 100 100 100 100 100 100 100 100 100 100 100 100 100 100 100 100 100 100 100 100 17 11 11 84 100 100 100 100 100 100 100 100 100 100 100 100 100 100 100 100
100 100 100 100 100 100 100 100 100 100 100 100 100 100 100 100 100 100 100 100 100 79 66 13 9 10 83 100 100 95 100 100 100 100 100 100 100 100 100 100 100 100 100
100 100 100 100 100 100 100 100 100 100 100 100 100 100 100 100 100 100 100 100 64 42 49 91 78 100 100 100 100 99 100 100 100 100 100 100 100 100 100 100 100 100 100
100 100 100 100 100 100 100 100 100 100 100 89 98 96 97 44 18 24 57 67 99 68 84 67 99 99 100 92 85 77 87 100 100 100 100 100 100 100 100 100 100 100 100
100 100 100 100 100 100 100 100 100 100 100 97 85 65 99 5 5 2 18 18 1 6 27 56 80 100 100 96 56 61 54 80 41 63 46 73 89 100 100 100 100 100 100
100 100 100 100 100 100 100 100 100 99 70 19 10 5 99 5 4 3 1 0 1 8 15 60 78 100 100 84 56 72 92 99 92 95 88 98 91 46 66 99 99 100 100
100 100 100 100 100 100 88 82 78 43 6 5 4 4 4 4 1 0 0 0 0 0 0 88 93 97 91 78 63 66 34 15 39 99 98 94 71 47 54 84 100 99 99
5 6 6 5 6 23 9 5 5 5 12 64 17 5 4 0 0 0 0 0 0 0 0 1 54 93 90 84 60 58 73 78 80 40 91 92 51 44 53 99 100 100 100
100 100 99 100 100 100 99 85 80 64 41 14 0 0 1 0 1 4 5 5 5 4 0 0 0 49 97 64 22 100 100 100 86 74 24 76 68 70 34 69 100 100 96
100 100 100 60 18 5 15 8 5 4 5 4 4 5 5 5 51 97 97 63 82 18 5 5 2 0 27 57 51 13 99 100 96 98 91 26 88 69 24 69 68 85 100

GFSGL_prec_cloud_114.txt.gz
Cloud_Cover
26 11 76 87 91 98 100 69 8 57 15 76 16 58 51 44 24 12 1 53 40 26 4 35 100 100 100 100 79 100 66 10 37 28 96 9 50 21 39 75 49 43 47
29 89 92 52 100 100 80 21 9 95 82 100 100 21 100 83 65 57 42 2 21 41 14 94 25 62 100 100 100 100 41 41 42 38 1 36 27 81 100 67 69 33 16
61 60 97 100 23 75 12 9 12 49 94 100 100 11 58 27 100 54 50 47 16 70 74 84 74 86 79 100 99 65 100 100 92 20 3 42 22 53 66 53 78 77 60
92 80 98 64 98 43 100 96 33 33 47 73 53 5 61 99 19 34 94 41 42 12 80 98 46 31 36 100 100 94 100 100 100 100 29 31 39 24 51 49 33 98 99
100 71 67 93 100 42 93 86 78 71 20 5 39 37 84 100 98 17 15 43 60 17 99 100 100 99 79 100 100 100 100 100 100 100 5 82 64 61 42 56 21 87 75
83 56 40 100 84 38 40 99 63 53 29 42 28 63 100 93 100 100 100 100 88 100 100 100 100 100 97 100 100 100 100 100 100 96 30 66 50 41 22 67 72 54 100
100 100 65 60 44 32 45 36 71 77 26 53 100 100 100 100 100 100 100 100 100 100 100 88 100 98 94 100 100 100 100 100 100 100 100 50 97 86 6 46 26 27 6
100 88 96 93 100 95 56 72 77 100 100 100 100 100 100 76 47 100 100 91 100 99 100 99 100 100 100 79 94 100 100 100 100 100 100 80 84 64 82 27 52 58 30
100 100 100 100 100 100 100 100 100 100 100 100 100 100 100 84 77 72 97 100 100 100 100 100 100 98 92 99 100 100 100 100 100 100 100 86 61 70 62 78 61 98 45
100 100 100 100 100 100 100 100 100 100 100 100 100 100 100 100 85 99 100 100 100 100 100 100 100 100 100 100 100 100 100 100 100 100 100 100 73 78 44 8 6 73 41
100 100 100 100 100 100 100 100 100 100 100 100 100 100 100 100 100 100 100 85 83 100 100 100 100 100 100 100 100 100 100 100 100 93 100 100 100 100 100 100 46 48 83
100 100 100 100 100 100 100 100 100 100 100 100 99 100 100 100 100 100 100 99 100 100 100 100 100 100 100 100 100 100 100 100 100 100 100 100 100 100 100 100 100 100 100
100 100 100 100 100 100 100 100 100 100 100 100 100 99 91 100 100 100 100 99 100 98 100 100 100 100 100 100 100 100 100 100 100 100 100 100 100 100 100 100 100 100 100
100 100 100 100 100 100 100 100 100 100 100 99 42 98 98 83 94 96 28 85 100 100 100 100 93 100 100 100 100 100 100 100 100 100 100 100 100 100 100 100 100 100 100
100 100 100 100 100 100 100 100 100 100 100 100 100 100 100 97 100 100 100 100 100 97 100 100 81 100 100 100 100 100 100 100 100 100 100 100 100 100 100 100 100 100 100
100 100 100 100 100 100 100 100 100 100 100 100 100 100 100 100 100 100 100 100 100 100 100 100 100 100 100 100 100 100 100 100 100 100 88 96 100 100 100 100 100 100 100
100 100 100 100 100 100 100 100 100 100 100 100 100 100 100 100 100 100 100 100 100 100 100 100 100 100 96 72 100 100 100 100 100 100 100 97 91 100 100 100 100 100 100
100 100 100 100 100 100 100 100 100 100 100 100 100 100 100 100 100 100 100 100 100 100 100 66 94 76 60 100 100 100 100 100 100 100 100 100 100 100 100 98 100 100 100
100 100 100 100 100 100 100 100 100 100 100 100 100 100 100 100 100 100 100 100 100 100 97 74 31 10 8 14 41 69 96 54 95 97 92 90 100 100 100 100 100 100 100
100 100 100 100 100 100 100 100 100 100 100 100 100 100 100 100 100 99 100 100 78 47 58 56 52 80 98 82 100 88 94 74 58 98 100 99 95 63 52 58 100 100 100
100 100 100 100 100 100 100 100 100 100 100 100 100 100 100 100 100 100 100 81 89 65 31 5 5 10 61 49 7 36 45 25 8 41 24 22 100 95 100 100 86 18 60
100 100 100 100 100 100 100 100 100 100 100 100 100 100 100 100 100 100 100 91 63 60 74 8 2 0 0 14 13 56 49 1 22 43 40 25 90 86 80 46 98 100 99
100 84 100 100 100 100 100 100 100 100 82 100 93 83 76 31 45 71 57 49 35 21 4 1 4 0 0 6 15 7 52 97 100 100 81 51 67 97 94 80 76 48 69
100 100 100 83 88 99 57 24 45 100 99 73 54 22 58 48 30 76 100 100 100 84 49 16 21 16 4 25 72 100 88 34 75 66 100 82 49 66 88 94 85 42 31
92 55 81 100 91 92 98 79 70 85 83 66 75 69 52 20 6 12 59 100 100 99 94 81 76 72 67 9 0 0 0 100 27 62 18 36 76 68 56 41 69 50 54
46 76 39 61 48 6 5 5 5 8 81 100 100 100 100 100 89 100 100 98 73 59 35 28 84 99 100 67 91 8 18 100 42 100 14 34 55 16 54 58 51 45 32

GFSGL_prec_cloud_120.txt.gz
Cloud_Cover
17 32 18 0 0 0 0 0 84 30 80 100 93 63 87 100 100 100 100 73 62 13 90 33 3 5 6 30 52 30 27 99 100 100 99 32 90 100 5 4 0 0 3
2 14 1 0 0 0 0 0 2 5 42 82 99 100 100 100 100 100 100 100 73 85 69 100 34 5 6 55 85 89 95 98 10 99 82 100 100 100 64 0 0 1 5
0 43 100 0 0 0 0 0 0 5 5 100 99 100 100 100 100 100 100 100 100 100 100 37 6 72 9 8 84 100 94 100 99 76 100 98 36 100 98 50 5 10 2
0 33 16 1 1 0 0 0 0 2 7 89 100 100 100 100 100 100 100 98 99 100 86 85 60 5 5 5 25 100 89 100 100 100 100 45 45 100 91 70 83 5 3
1 77 5 50 4 0 0 0 0 0 3 67 100 100 100 100 100 100 94 100 100 100 100 100 100 58 33 100 24 100 100 100 100 100 91 100 100 96 36 100 100 97 98
48 24 6 94 48 50 16 0 0 0 1 5 73 62 100 100 100 100 100 100 100 100 100 100 100 55 100 100 32 26 100 100 97 39 98 100 98 95 76 95 99 100 97
95 100 100 16 20 8 4 1 5 1 0 5 75 87 59 100 100 98 100 100 100 100 100 100 100 28 75 75 99 52 98 98 99 98 100 100 100 28 25 93 99 100 100
100 43 69 80 97 97 100 100 100 74 4 3 62 99 90 100 100 100 100 100 100 100 100 100 79 97 48 99 71 90 87 80 100 100 99 96 87 5 83 96 96 100 100
100 90 99 99 99 100 86 100 100 73 20 12 1 100 100 96 100 100 100 100 61 100 100 100 87 36 100 100 13 99 100 100 100 100 99 100 100 84 75 98 100 96 99
100 100 100 100 100 100 100 96 100 79 50 15 46 60 100 100 100 100 100 100 100 100 100 47 99 37 100 100 93 100 100 100 100 100 100 100 100 100 100 88 100 100 100
100 100 100 100 100 100 86 94 100 100 100 81 98 92 82 97 100 100 100 100 100 100 100 79 98 100 100 100 95 100 100 100 100 100 98 100 100 100 100 100 100 100 100
100 100 100 100 100 100 100 100 100 100 100 100 100 100 92 100 100 100 100 100 100 97 100 100 99 100 100 100 100 100 100 99 98 98 100 100 100 100 100 100 99 100 100
100 100 100 100 100 100 100 100 100 100 100 100 100 100 100 100 100 100 100 100 100 100 100 100 100 100 100 100 100 100 100 100 100 100 100 100 95 100 100 100 100 99 89
100 100 100 100 100 100 100 100 100 100 100 100 100 100 100 100 100 100 100 100 100 100 100 100 100 100 100 84 100 100 100 100 100 100 100 100 99 71 6 43 100 80 46
100 100 100 100 100 100 100 100 100 100 100 100 100 100 100 100 100 100 98 100 100 100 100 100 100 100 97 98 100 100 100 100 100 100 100 100 100 100 80 93 99 50 70
100 100 100 100 100 100 100 100 100 100 100 100 100 100 100 100 100 100 100 100 100 100 100 100 100 100 100 100 100 100 100 100 100 100 98 99 100 100 100 100 99 77 100
100 100 100 100 100 100 100 100 100 100 100 100 100 100 100 100 100 100 100 100 100 100 100 100 100 100 100 100 100 100 100 100 100 100 98 54 99 62 84 92 97 100 100
100 100 100 100 100 100 100 100 100 100 100 100 100 100 100 100 100 100 100 100 100 100 100 100 100 100 100 65 84 100 100 100 100 100 100 100 100 50 21 24 96 89 74
100 100 100 98 88 99 100 100 100 100 100 100 100 100 100 100 100 100 100 100 100 100 100 100 100 100 100 100 88 99 59 100 100 100 100 100 100 100 99 76 90 88 98
100 100 100 98 100 84 93 100 100 100 100 100 100 100 100 100 100 100 100 100 100 100 100 100 100 100 100 100 100 100 100 100 100 100 100 100 100 100 100 44 19 32 84
100 100 100 100 100 100 93 38 100 100 100 100 100 100 100 100 100 100 100 100 100 100 100 100 100 100 100 100 100 100 100 100 100 100 100 100 100 100 100 100 100 100 100
100 100 26 37 100 100 99 92 100 100 98 100 100 100 100 100 100 100 100 100 100 100 100 100 100 100 100 100 100 100 100 100 100 90 98 98 100 98 98 83 54 39 40
100 100 100 100 74 95 97 79 100 100 100 100 100 100 100 100 100 100 100 100 100 100 100 100 100 90 90 100 100 100 100 87 39 37 54 46 10 5 22 23 8 5 5
84 100 100 100 100 100 92 93 48 91 100 100 100 100 100 100 100 100 100 100 100 100 100 73 90 100 100 100 68 99 60 79 48 57 18 5 4 0 4 5 5 5 5
99 78 84 45 100 100 98 100 100 43 5 6 59 14 5 5 5 5 6 78 94 19 50 92 100 100 100 9 84 52 58 98 96 100 100 98 71 19 6 8 3 0 2
100 100 90 75 88 100 100 100 100 57 16 5 5 5 5 5 7 5 5 16 5 5 11 43 5 35 30 4 9 50 95 100 98 100 100 37 94 55 79 98 76 5 3

GFSGL_prec_cloud_123.txt.gz
Cloud_Cover
0 0 0 0 14 0 0 0 0 3 89 60 80 100 100 100 100 18 33 68 97 100 95 95 90 22 42 28 53 98 88 65 10 5 96 96 100 79 80 88 6 4 3
0 0 0 0 0 0 0 0 0 0 1 20 100 94 100 100 100 100 100 100 100 100 100 100 99 100 80 82 32 68 93 57 20 5 6 8 42 94 58 91 100 5 60
0 10 1 0 0 0 0 0 0 0 0 0 30 100 100 100 100 100 100 100 100 100 79 100 100 100 84 48 64 78 42 58 45 5 5 5 53 85 100 100 85 7 42
4 0 20 0 0 20 1 1 2 0 0 5 10 94 100 100 100 100 100 100 100 100 100 100 78 100 100 100 100 32 64 59 100 100 81 58 100 100 100 99 87 14 89
55 43 27 4 81 96 96 12 2 0 0 0 6 26 100 100 100 100 100 100 100 100 99 97 100 100 100 100 100 100 89 100 91 100 100 100 100 100 100 100 83 100 100
59 55 100 57 100 100 62 56 6 0 0 0 4 55 94 100 100 100 100 100 100 100 100 100 100 100 100 100 100 100 100 92 100 97 100 100 100 100 98 99 90 100 100
29 16 90 100 92 26 31 83 52 4 1 0 0 65 73 100 100 100 100 100 100 100 100 100 100 100 100 100 100 100 100 100 96 99 70 99 100 100 92 100 100 100 100
78 100 98 100 65 25 16 88 76 1 12 1 0 42 100 100 100 100 100 99 90 100 100 100 100 100 100 100 100 100 100 100 100 100 100 97 100 100 100 100 99 96 72
100 100 100 98 45 60 100 93 100 100 100 100 90 92 100 100 100 100 100 100 100 100 100 100 100 100 100 100 100 100 100 100 100 100 100 100 100 100 100 100 100 95 38
100 100 100 100 100 100 100 100 100 100 100 100 95 100 100 100 100 100 100 100 100 100 100 100 100 100 100 100 100 100 100 100 100 100 100 100 100 100 100 100 100 100 95
100 100 100 100 100 100 100 100 100 100 100 100 100 100 100 100 100 100 100 100 100 100 100 100 100 100 100 100 100 100 100 100 100 100 100 100 100 100 100 100 92 96 90
100 100 100 100 100 100 100 100 100 100 100 100 100 100 100 100 100 100 100 100 100 100 100 100 100 100 100 100 100 100 100 100 100 100 100 100 100 82 80 96 100 92 86
100 100 100 100 100 100 100 100 100 100 100 100 100 100 100 96 96 100 100 100 100 100 100 100 100 100 100 100 100 100 100 100 100 100 100 100 100 100 100 100 100 100 99
100 100 100 100 100 100 100 100 100 100 100 100 100 100 100 100 100 100 100 100 100 100 100 100 100 100 100 100 100 100 100 100 100 100 87 96 82 88 89 100 100 100 93
100 100 100 100 100 100 100 100 100 99 100 100 100 100 100 100 100 100 100 100 100 100 100 100 100 100 100 100 100 100 100 100 100 100 100 94 100 100 100 100 94 100 98
100 100 100 100 100 100 100 100 100 100 100 100 100 100 100 100 100 100 100 100 100 100 100 100 100 100 100 100 100 100 100 100 100 100 100 87 75 89 99 98 100 100 100
100 100 100 100 100 100 100 100 100 100 100 100 100 100 100 100 100 100 100 100 100 100 100 100 100 100 100 100 100 100 100 100 100 100 100 100 66 100 92 77 100 100 100
100 100 100 100 100 100 100 100 100 100 100 100 100 100 100 100 100 100 100 100 100 100 100 100 100 100 100 100 100 100 100 100 100 100 95 99 99 91 100 96 99 100 100
100 100 100 100 100 100 100 100 100 100 100 100 100 100 100 100 100 100 100 100 100 100 100 100 100 100 100 100 100 100 100 100 79 100 100 100 100 100 100 100 100 100 100
100 100 100 100 100 100 100 100 100 100 100 100 100 100 100 100 100 100 100 100 100 100 100 100 100 100 100 99 62 97 98 100 100 100 100 100 100 100 100 93 100 100 44
100 100 100 100 100 100 77 98 100 100 100 100 100 100 100 100 100 100 100 100 100 100 100 100 100 100 100 100 100 100 100 100 100 100 100 100 100 100 100 100 100 100 94
100 100 100 83 97 98 82 100 100 100 100 100 100 100 100 100 100 100 100 100 100 100 100 100 100 100 100 100 100 100 100 100 100 100 100 100 100 100 100 100 100 100 98
100 100 100 100 100 96 100 92 23 20 100 20 100 98 100 100 100 100 100 100 99 100 100 100 100 100 100 100 100 100 100 100 100 100 100 100 100 100 100 72 66 99 100
100 73 100 100 100 100 100 100 100 86 94 38 74 5 5 45 100 100 100 100 100 100 100 100 100 100 100 100 100 100 100 100 100 92 100 93 79 44 82 71 76 67 81
35 95 100 100 39 69 93 100 100 100 100 100 100 100 62 5 5 2 24 77 24 10 54 64 94 100 99 100 93 78 90 84 100 84 43 98 68 33 100 100 100 100 100
100 100 100 100 95 100 100 100 100 100 99 44 55 100 100 100 37 14 4 0 0 0 0 2 4 5 8 5 29 98 100 94 52 100 13 5 7 34 94 93 96 95 68

GFSGL_prec_cloud_126.txt.gz
Cloud_Cover
0 0 0 0 0 0 0 0 0 0 0 0 0 14 95 100 100 100 100 100 85 90 63 58 88 67 35 100 92 89 88 56 8 89 77 17 5 5 6 69 29 69 82
0 1 13 0 0 0 0 0 0 0 5 0 3 0 0 95 100 100 100 100 100 100 100 98 100 100 100 84 100 99 7 100 27 70 100 61 5 5 5 28 100 100 67
0 24 36 27 52 26 4 0 0 0 0 0 0 2 21 100 100 100 100 100 100 100 100 100 100 100 100 100 96 99 90 36 100 20 10 31 12 10 8 28 23 100 100
6 43 98 72 51 28 12 4 0 0 0 0 0 5 30 34 100 100 100 100 100 100 100 100 100 100 100 100 100 94 100 97 78 100 97 10 27 81 90 100 100 100 100
36 29 7 7 35 17 18 37 23 17 22 0 0 18 24 56 100 100 100 100 100 100 100 100 100 100 100 100 100 100 100 100 100 100 100 100 53 100 100 100 100 100 68
30 14 0 0 37 32 8 10 46 45 17 53 6 7 95 82 11 99 100 100 100 100 100 100 100 100 100 100 100 96 100 100 100 100 100 100 100 100 100 100 99 100 86
11 0 4 16 85 32 30 51 100 62 43 100 28 7 48 100 73 100 100 100 100 100 100 100 100 100 100 100 100 86 100 100 100 100 100 100 100 100 100 39 29 51 72
2 86 12 38 100 100 100 100 100 57 100 80 20 49 52 96 91 99 100 100 100 86 100 100 100 100 100 100 99 91 100 100 97 65 100 100 100 100 100 100 100 100 86
4 17 49 100 100 100 100 100 100 91 100 74 30 20 27 32 94 63 92 100 100 100 100 99 100 100 100 100 100 100 100 100 100 100 100 100 100 100 100 100 100 100 100
57 100 96 100 100 100 100 100 100 100 99 100 100 50 56 32 100 100 100 100 100 100 100 100 100 100 100 94 100 100 100 100 100 100 100 100 100 100 100 100 100 100 100
100 100 100 100 100 100 100 100 100 100 100 100 100 100 100 100 100 100 100 100 100 100 100 100 100 100 100 100 100 100 100 100 100 100 100 100 100 100 100 100 100 100 100
100 100 100 100 100 100 100 100 100 100 100 100 100 100 100 100 100 100 100 100 100 100 100 100 100 100 100 100 100 100 100 100 100 100 100 100 100 100 100 100 100 100 100
100 100 100 100 100 100 100 100 100 100 100 100 100 100 100 100 100 100 100 100 100 100 100 100 100 100 100 100 100 100 100 100 100 100 100 100 100 100 100 100 100 100 100
100 100 100 100 100 100 100 100 100 100 100 100 100 100 100 100 100 100 98 100 100 100 100 100 100 100 100 100 100 100 100 100 100 100 100 100 100 100 100 100 100 100 100
100 100 100 100 100 100 100 100 100 100 100 100 100 100 100 100 100 100 100 100 100 100 100 100 100 100 100 100 100 100 100 100 100 100 100 100 100 100 82 98 100 100 100
100 100 100 100 100 100 100 100 100 100 100 100 100 100 98 100 100 100 100 100 100 100 100 100 100 100 100 100 100 100 100 100 100 100 100 100 100 100 99 100 100 100 100
100 100 100 100 100 100 100 100 100 100 100 100 100 100 100 100 100 100 100 100 100 100 100 100 100 100 100 100 100 100 100 100 100 100 100 100 100 100 100 100 100 100 100
100 100 100 100 100 100 100 100 100 100 100 100 100 100 100 100 100 100 100 100 100 100 100 100 100 100 100 100 100 100 100 100 100 100 100 100 100 100 100 100 100 100 100
100 100 100 100 100 100 100 100 100 100 100 100 100 100 100 100 100 100 100 100 100 100 100 100 100 100 100 100 100 100 100 100 100 100 100 100 100 100 100 100 100 100 100
100 100 100 100 100 100 100 100 100 100 100 100 100 100 100 97 71 95 46 100 99 100 100 100 100 100 100 100 100 100 100 100 100 100 100 100 100 100 100 100 100 100 100
100 100 100 100 100 100 100 100 100 100 100 100 100 100 100 100 100 100 100 100 100 100 100 100 100 100 100 100 100 100 100 100 100 100 100 100 100 100 100 100 100 100 100
100 100 100 100 100 98 100 100 100 100 100 100 100 100 100 100 100 100 99 100 100 100 100 100 100 100 100 100 100 100 100 100 100 100 100 100 100 100 100 100 100 100 100
59 100 100 100 100 92 58 96 93 74 96 100 100 100 65 31 88 53 18 66 100 100 100 100 100 100 100 100 100 100 100 100 100 100 100 100 100 100 100 100 100 100 100
97 96 62 100 100 100 100 99 100 94 33 58 90 52 5 5 5 11 34 34 5 7 11 15 96 100 100 100 100 100 100 100 66 100 78 98 100 100 100 100 99 100 100
5 5 5 16 87 43 93 95 100 100 100 100 100 93 39 5 4 5 5 5 5 4 4 4 5 5 5 43 96 49 67 99 100 95 47 31 29 51 43 41 89 100 98
8 10 5 3 3 1 5 59 45 4 10 5 4 5 4 3 5 5 5 5 5 4 5 5 5 7 23 6 8 76 100 100 47 100 18 7 5 5 5 5 5 5 61

GFSGL_prec_cloud_129.txt.gz
Cloud_Cover
0 0 8 10 1 0 28 25 0 0 1 16 6 0 0 1 5 96 100 100 100 100 100 100 100 96 91 100 100 96 31 22 76 65 30 5 5 5 5 5 0 15 69
0 11 20 23 31 48 54 21 20 27 0 1 6 4 0 27 13 5 100 100 100 100 100 100 100 100 36 100 100 71 100 100 100 100 74 9 5 5 5 5 2 21 100
1 18 25 39 51 38 51 11 6 35 12 3 26 22 22 35 12 12 27 100 100 100 100 100 100 100 100 100 100 100 71 100 100 57 62 98 49 5 5 8 80 50 100
2 19 26 0 5 33 54 53 35 0 25 54 9 0 1 9 2 9 5 37 100 100 100 100 100 100 100 100 84 100 100 100 100 98 99 100 100 83 10 8 12 20 100
6 11 1 0 2 7 21 25 44 31 22 52 57 48 2 15 14 20 5 2 74 89 100 100 100 100 100 100 100 100 100 100 100 100 100 80 100 100 96 81 32 5 11
0 1 0 0 0 4 9 5 1 93 100 100 98 100 100 56 51 7 5 3 100 100 100 100 100 100 100 100 100 100 100 100 100 100 100 100 100 100 100 100 100 100 94
0 0 0 0 3 5 14 100 100 100 100 100 100 56 100 100 77 37 2 12 99 100 99 18 100 100 100 100 100 98 100 100 100 99 100 100 72 100 100 100 100 100 100
0 0 2 84 88 11 100 100 100 100 100 100 100 100 100 100 100 100 79 99 99 100 100 100 100 100 100 100 100 94 80 87 100 99 100 95 95 91 100 90 75 100 100
0 0 4 79 100 100 100 100 100 100 100 100 100 86 100 100 100 100 100 100 100 100 100 100 100 100 100 100 100 100 100 76 70 58 100 91 100 100 100 100 100 82 77
0 0 5 100 100 100 100 100 100 100 100 100 100 100 98 22 100 100 100 100 100 100 100 100 100 75 86 100 100 99 100 98 6 8 99 100 100 100 100 100 100 100 84
0 10 54 96 100 100 100 100 100 100 100 100 100 100 100 100 100 100 100 100 100 100 100 100 100 100 100 100 100 100 100 100 66 67 67 100 100 100 100 100 100 100 100
0 68 100 100 100 100 100 100 100 100 100 100 100 100 100 100 100 100 100 100 100 100 100 100 100 100 100 100 100 100 100 100 100 100 100 100 100 100 100 100 100 100 100
2 81 51 100 100 100 100 100 100 100 100 100 100 100 100 100 100 100 100 100 100 100 100 100 100 100 100 100 100 100 100 100 100 100 100 100 100 100 99 100 100 100 100
9 100 100 100 100 100 100 100 100 100 100 100 100 100 100 100 100 100 100 100 100 100 100 100 100 100 100 100 100 100 100 100 100 100 100 100 100 100 100 100 100 100 100
38 60 100 100 100 100 100 100 100 100 100 100 100 100 100 100 100 100 100 100 100 100 100 100 100 100 100 100 100 100 100 100 100 100 100 100 100 100 100 100 100 100 100
100 65 100 100 100 100 100 100 100 100 100 100 100 100 100 100 100 100 100 100 100 100 94 100 100 100 100 100 100 100 100 100 100 100 100 100 100 100 100 100 100 100 100
100 100 100 100 100 100 100 100 100 100 100 100 100 100 100 100 100 100 100 100 100 100 100 100 71 100 100 100 100 100 100 100 100 100 100 100 100 100 100 100 100 100 100
100 100 100 100 100 100 100 100 100 100 100 100 100 100 100 100 100 100 100 99 97 82 99 96 57 96 39 100 100 100 100 100 100 100 100 100 100 100 100 100 100 100 100
100 100 100 100 100 100 100 100 100 100 100 100 100 100 100 100 100 100 100 85 83 12 53 100 100 100 100 100 100 100 100 100 100 100 100 100 100 100 100 100 100 100 100
100 100 100 100 100 100 100 100 100 100 100 100 100 100 100 100 100 100 98 90 100 100 100 62 70 100 100 100 100 100 100 100 100 100 100 100 100 100 100 100 100 100 100
7 65 100 100 100 100 100 100 100 100 100 100 100 100 100 100 100 100 100 100 100 100 93 100 69 95 80 98 100 100 100 100 100 100 100 100 100 100 100 100 100 100 100
66 100 25 97 100 100 100 100 100 100 100 100 100 100 100 100 100 100 100 100 100 100 94 18 21 67 99 100 100 100 100 100 100 100 100 100 100 100 100 100 100 100 100
93 100 91 100 80 100 100 100 100 100 100 100 100 100 100 100 100 100 100 100 85 75 62 47 64 53 61 63 63 75 98 100 100 100 100 100 100 100 100 100 100 100 100
5 65 99 76 100 100 100 100 100 100 100 97 38 74 100 100 100 100 97 89 100 62 5 5 5 5 2 1 5 10 78 100 100 100 100 100 98 100 100 100 100 100 100
12 30 92 62 84 99 82 68 97 100 83 45 6 7 5 5 5 18 76 93 91 100 52 11 5 4 5 5 5 3 99 100 65 83 35 14 18 36 49 58 90 70 57
99 21 38 17 5 5 5 31 7 5 5 5 5 4 3 2 1 0 0 1 1 2 3 3 3 1 0 0 20 97 100 100 64 100 81 2 1 2 12 47 68 53 27

GFSGL_prec_cloud_132.txt.gz
Cloud_Cover
0 0 0 0 3 23 35 25 41 33 22 13 7 21 44 45 35 48 21 62 95 62 82 100 100 100 100 98 100 78 98 69 58 100 8 79 64 5 6 5 5 5 5
0 0 0 0 2 12 2 0 3 40 24 42 21 29 33 65 47 24 22 16 64 100 100 100 100 100 100 100 100 100 100 100 94 85 48 7 5 5 5 5 30 5 5
0 0 0 0 6 0 0 6 25 44 43 48 49 37 26 39 73 59 12 1 28 6 98 100 100 100 100 100 100 100 100 94 100 80 97 82 27 4 0 5 24 5 6
0 0 0 0 0 0 0 1 3 14 42 12 21 84 37 29 72 89 6 2 26 7 80 100 100 100 100 100 100 100 100 100 100 100 77 100 80 16 23 75 95 15 38
0 0 0 0 0 0 0 0 0 2 48 76 80 100 100 46 49 96 69 15 1 12 32 47 95 100 100 100 100 100 100 100 100 100 100 100 100 100 94 100 100 100 51
0 0 0 0 0 0 0 0 2 12 100 72 99 100 100 100 100 100 100 39 0 0 0 26 100 100 100 100 100 100 100 100 100 100 100 100 100 100 98 100 100 100 100
0 0 0 0 0 0 5 35 84 100 100 99 100 100 100 100 44 83 100 81 27 2 5 12 97 100 100 100 99 100 100 93 100 100 100 100 98 99 100 100 100 100 100
0 0 0 0 1 6 99 83 100 100 100 100 100 100 100 78 86 100 100 100 98 78 29 75 56 89 100 100 95 20 100 100 100 100 100 82 14 5 95 36 36 83 80
0 0 0 0 5 42 49 98 100 100 100 100 100 100 100 100 100 100 100 100 100 100 100 100 100 100 100 100 100 99 100 100 100 100 100 58 100 52 90 94 97 66 61
0 0 0 4 25 57 72 100 100 77 100 100 100 100 100 100 100 100 100 100 100 100 100 100 100 100 100 100 100 100 100 97 100 99 100 100 100 100 100 100 100 100 90
0 0 4 43 100 100 70 100 98 100 100 100 100 100 100 100 100 100 100 100 100 100 100 100 100 100 100 99 100 98 56 94 98 76 100 100 97 73 100 100 99 100 100
0 0 2 94 100 100 95 100 100 100 100 100 100 100 100 100 100 100 100 100 100 100 100 100 100 100 100 100 100 100 97 96 100 100 97 94 100 100 100 100 99 100 92
0 0 3 92 100 100 100 100 100 100 100 100 100 100 100 100 100 100 100 100 100 100 100 100 100 100 100 100 100 100 100 100 100 100 100 100 100 100 100 100 100 100 100
0 0 2 25 59 100 100 100 100 100 100 100 100 100 100 100 100 100 100 100 100 100 100 100 100 100 100 100 100 100 100 100 100 100 100 100 100 100 100 100 100 100 100
12 1 61 82 100 100 100 100 100 100 100 100 100 100 100 100 100 100 100 100 100 100 100 100 100 100 84 95 100 100 100 100 100 100 100 100 100 100 100 100 100 100 100
45 6 85 94 100 100 100 100 100 100 100 100 100 100 100 100 100 100 100 100 100 100 100 100 100 100 97 100 100 100 100 100 100 100 100 100 100 100 100 100 100 100 100
82 65 100 100 100 100 100 100 100 100 100 100 100 100 100 100 100 100 100 100 100 100 100 100 100 78 46 100 100 100 100 100 100 100 100 100 100 100 100 100 100 100 100
46 76 100 100 100 100 100 100 100 100 100 100 100 100 100 100 100 100 100 100 100 100 100 100 100 100 100 88 100 100 100 100 100 100 100 100 100 100 100 100 100 100 100
78 85 100 100 100 100 100 100 100 100 100 100 100 100 100 100 100 100 100 100 100 100 100 100 100 100 98 100 100 100 100 100 100 100 100 100 100 100 100 100 100 100 100
99 100 100 100 100 100 100 100 100 100 100 100 100 100 100 100 100 100 100 100 100 100 100 100 100 93 85 95 75 99 98 98 100 100 100 100 100 100 100 100 100 100 100
100 100 100 100 100 100 100 84 100 100 100 100 100 100 100 100 100 100 100 100 100 97 87 33 80 99 100 88 100 96 90 100 86 74 100 100 100 100 100 100 100 100 100
80 75 98 100 100 100 100 100 100 100 100 100 100 100 100 100 100 100 100 100 100 100 100 100 100 100 96 65 87 100 100 80 63 100 96 100 100 100 100 100 100 100 100
83 95 5 27 88 100 100 100 98 98 100 100 100 100 100 100 100 100 100 100 100 100 100 100 100 100 100 100 78 58 94 100 100 100 100 96 98 100 100 100 100 100 100
100 100 18 56 99 100 100 100 100 100 72 45 100 100 100 100 100 100 100 100 100 86 88 70 62 17 54 46 5 6 19 69 94 100 100 82 96 100 98 99 100 100 100
64 95 99 75 63 37 99 100 100 100 100 100 100 66 60 92 99 76 93 99 100 95 52 27 35 11 5 5 5 3 76 100 25 78 0 2 5 5 5 5 23 13 49
96 100 97 15 27 51 5 44 93 100 100 100 100 100 100 97 33 23 4 3 4 2 0 0 3 3 1 1 4 69 100 100 46 100 12 0 0 0 0 0 0 0 0

GFSGL_prec_cloud_135.txt.gz
Cloud_Cover
0 0 0 0 0 0 0 0 0 0 6 16 15 26 20 11 8 0 1 23 41 58 59 100 94 26 48 96 91 51 55 36 47 5 5 5 16 63 49 68 5 5 5
0 0 0 0 0 0 0 0 0 0 0 0 4 16 23 28 1 0 0 1 22 35 90 100 99 75 99 40 100 100 33 15 5 4 5 4 5 5 5 5 5 5 16
0 0 0 0 0 0 0 0 0 0 0 0 18 7 1 0 9 0 0 0 22 7 19 70 100 94 100 97 100 97 98 92 92 2 3 3 1 13 5 5 5 5 5
0 0 0 0 0 0 0 0 0 0 1 19 17 14 0 8 36 49 0 3 29 6 0 0 15 53 98 100 100 96 84 99 65 43 32 18 53 25 27 5 6 5 5
0 0 0 0 0 0 0 0 0 14 22 7 2 0 46 95 93 97 39 2 33 28 27 0 0 0 18 52 90 100 96 99 100 100 100 79 73 100 55 78 32 60 5
0 0 0 0 0 0 0 0 26 26 20 5 6 100 100 100 100 100 100 68 25 87 66 4 23 13 49 21 100 100 5 80 100 100 100 100 100 100 26 37 99 100 55
0 0 0 0 0 0 5 37 54 37 0 6 74 100 100 100 100 100 100 100 81 72 65 8 0 27 83 83 18 93 40 34 100 100 99 100 100 100 100 100 100 100 12
0 0 0 0 0 7 22 25 52 66 1 13 100 100 100 100 100 99 90 79 52 25 99 34 27 73 97 94 89 74 79 26 55 30 100 100 100 84 100 100 100 99 41
0 0 0 0 0 3 4 8 66 67 6 100 100 100 100 100 100 100 100 100 100 100 100 99 100 92 37 98 100 97 100 91 51 42 100 100 100 100 100 100 100 100 75
0 0 0 0 0 1 5 100 30 77 18 100 100 100 100 100 100 100 100 100 100 100 100 100 95 100 100 100 100 100 100 100 97 100 89 100 100 77 100 100 81 100 19
2 5 0 0 0 4 97 96 10 53 89 100 100 100 100 100 100 100 100 100 100 100 100 100 100 100 100 100 100 100 100 100 100 100 100 100 69 92 100 100 100 100 100
5 0 0 0 3 4 39 100 32 93 100 100 100 100 100 100 100 100 100 100 100 100 100 100 100 100 100 100 100 100 100 100 76 97 100 100 100 100 72 97 100 70 100
0 0 0 0 0 5 9 100 100 100 100 100 100 100 100 100 100 100 100 100 100 100 100 100 100 100 100 100 100 100 100 100 100 100 100 100 100 96 97 95 100 100 100
0 0 0 0 0 13 66 100 100 100 100 99 100 100 100 100 100 100 100 100 100 100 100 100 100 100 100 100 100 100 100 100 100 100 100 100 100 100 100 100 100 100 100
0 0 0 0 0 80 74 100 100 100 100 100 100 100 100 100 100 100 100 100 100 100 100 100 100 100 100 100 100 100 100 100 100 100 100 100 100 100 100 100 100 100 100
0 0 0 0 0 82 100 100 100 100 100 100 100 100 100 100 100 100 100 100 100 100 100 100 100 100 100 100 100 100 100 100 100 100 100 100 100 100 100 100 100 100 100
0 0 0 0 4 98 100 100 100 100 100 100 100 100 100 100 100 100 100 100 100 99 82 99 87 100 93 100 100 100 100 100 100 100 100 100 100 100 100 100 100 100 100
0 3 5 5 5 100 100 100 100 100 100 100 100 100 100 100 100 100 100 100 100 100 100 99 100 96 54 40 80 91 100 100 100 100 100 100 100 100 100 100 100 100 100
5 5 97 5 66 100 100 100 100 100 100 100 100 100 100 100 100 100 100 100 100 100 100 100 100 100 100 98 85 98 100 100 99 100 100 100 100 100 100 100 100 100 100
14 59 100 98 94 100 100 100 100 100 100 100 100 100 100 100 100 100 100 100 100 100 100 100 100 75 61 100 96 68 100 100 100 100 100 100 100 100 100 100 100 100 100
82 94 100 100 100 75 95 100 100 100 100 100 100 100 100 100 100 100 100 100 100 100 100 100 100 100 100 100 97 94 100 100 100 100 100 100 100 86 94 76 100 100 100
99 100 100 100 100 100 100 100 100 100 100 100 100 100 100 100 100 100 100 100 100 100 100 100 100 100 100 95 100 100 98 100 97 86 100 100 99 93 70 100 100 100 100
100 100 100 100 32 70 44 75 100 96 73 100 100 100 100 100 100 100 100 100 100 87 100 65 94 100 100 100 100 100 5 14 97 100 100 99 88 85 90 100 97 68 80
100 100 100 84 87 48 80 24 5 11 93 98 100 100 100 100 100 99 73 100 100 99 100 100 100 100 100 99 100 100 100 100 100 100 100 100 98 33 57 100 100 100 100
100 100 100 100 100 20 6 5 4 5 35 100 100 100 100 100 100 100 100 87 92 93 100 100 99 90 50 21 34 9 54 100 27 66 19 5 5 5 16 5 5 3 0
100 100 100 100 100 100 100 53 74 99 7 5 63 100 100 100 87 67 81 79 32 10 5 5 5 5 5 5 8 69 100 100 40 92 9 1 0 3 3 3 5 5 5